GFSSGP_sfc_temp_000.txt.gz
Temp
70 71 71 72 60 56 52 61 70 73 70 76 77 76 73 70 71 61 74 80 79 77 75 78 79 79 79 78 78 78 77 77 77 78 77 77 77 77 77 76 76 76 77 77 77 78 79 79 79
71 75 73 67 54 48 53 67 68 72 76 77 78 75 73 70 77 77 75 78 80 76 74 76 78 78 79 78 78 77 77 77 77 77 77 77 77 77 77 77 77 77 77 77 77 78 79 79 79
77 80 66 60 53 50 53 68 75 76 80 79 75 80 76 73 78 79 77 78 77 75 75 75 79 78 79 78 78 77 77 77 77 77 77 77 77 77 77 76 76 77 77 77 77 77 78 78 79
76 71 67 56 53 62 66 73 79 73 79 78 77 74 78 82 81 81 80 79 77 76 77 77 78 78 78 78 78 77 77 77 77 77 77 77 77 77 76 76 76 77 77 77 77 77 77 78 78
73 66 55 52 57 65 73 76 76 74 74 76 77 70 70 79 82 81 78 80 75 73 74 76 78 78 78 78 78 77 77 77 76 76 77 77 77 76 76 76 76 77 77 77 77 77 77 77 77
64 63 51 51 60 69 72 77 75 74 76 76 72 72 72 79 79 79 79 76 77 74 73 74 78 77 77 77 77 77 75 75 74 74 74 74 74 74 75 75 75 75 76 77 77 76 76 76 75
61 56 51 57 62 66 71 78 75 75 74 75 76 68 70 74 79 79 77 76 75 76 73 73 74 76 77 77 76 75 74 73 73 73 73 73 73 73 73 73 74 74 75 75 76 76 75 76 75
66 60 54 57 59 61 73 74 75 74 78 82 83 67 66 75 78 75 75 73 72 72 73 69 68 69 69 70 76 75 74 74 73 73 73 73 72 72 72 72 72 73 74 74 75 75 75 75 75
72 55 53 57 62 66 77 68 79 83 78 80 81 76 80 80 76 73 70 71 70 72 68 68 66 66 66 67 72 74 75 74 73 72 73 71 64 63 66 69 72 73 73 74 75 75 74 74 75
64 54 61 70 70 68 75 70 76 76 75 76 79 77 78 79 75 73 71 70 69 69 67 67 65 65 65 71 66 65 66 65 65 64 63 62 62 61 66 69 73 74 73 73 74 74 73 73 66
66 62 70 72 75 76 75 75 79 76 72 76 74 75 76 73 72 72 71 71 69 68 68 66 65 64 64 63 62 61 61 61 62 63 62 61 62 60 61 61 62 62 68 64 68 67 67 66 64
61 71 73 74 78 76 74 79 78 77 77 81 80 79 75 72 71 70 70 69 68 68 66 65 64 64 62 62 61 61 61 61 61 61 61 60 59 59 59 60 62 61 62 62 62 62 63 64 65
65 70 75 77 77 77 79 75 77 76 81 82 81 77 75 73 71 70 70 68 66 65 64 64 63 62 62 62 61 61 61 61 61 60 61 61 59 59 62 62 62 60 60 61 60 61 62 62 63
71 72 73 75 75 77 75 76 73 78 81 80 78 74 74 72 72 68 67 66 66 66 64 63 63 63 63 61 61 61 61 62 61 61 61 62 60 60 62 59 59 59 59 60 60 60 60 61 61
72 66 71 73 73 73 77 69 71 77 78 76 75 75 74 74 72 71 71 69 68 66 65 63 63 63 63 62 62 61 61 62 61 61 62 62 61 60 60 59 59 59 59 60 59 60 60 59 61
63 62 56 68 72 76 70 63 74 77 75 73 75 75 74 71 73 72 70 68 65 64 64 64 70 63 62 61 61 61 62 61 61 61 61 63 62 61 59 58 58 59 58 58 58 58 58 59 59
57 53 56 61 70 72 68 66 75 78 75 73 73 72 73 73 68 67 69 68 65 64 63 64 64 63 62 62 61 62 62 61 61 61 61 61 62 63 59 59 59 59 58 57 58 57 59 58 58
54 52 57 60 69 69 67 66 74 77 75 74 72 71 70 69 68 68 66 67 64 63 63 63 63 64 63 62 61 61 60 61 62 61 61 61 61 62 60 59 59 59 57 57 57 57 58 58 58
61 57 56 65 71 65 65 67 72 73 70 72 70 69 68 67 65 66 66 65 64 63 63 63 63 62 61 60 60 59 59 60 61 62 62 63 61 62 60 59 59 58 57 57 57 58 58 57 58
60 58 58 65 70 65 65 64 72 71 68 69 69 69 66 61 64 64 63 63 63 62 63 62 63 62 61 60 61 60 60 60 61 61 62 63 62 62 61 60 59 58 57 57 58 58 56 57 58
59 58 59 59 66 68 63 60 62 69 68 70 70 68 64 64 63 63 64 61 61 61 62 63 63 63 62 63 61 60 60 60 60 60 61 62 63 64 62 61 59 59 58 57 57 58 58 56 57
55 66 66 63 58 49 63 46 55 65 66 68 69 66 63 65 65 65 63 60 61 62 63 63 63 63 64 63 61 61 58 57 59 59 59 60 62 63 62 61 60 59 58 57 58 59 59 58 57
60 68 64 63 59 54 58 48 55 60 62 67 67 64 62 66 65 63 63 64 63 64 62 62 63 63 64 63 62 60 59 59 59 58 59 59 61 63 63 61 60 59 58 59 60 59 59 59 58
70 63 62 61 56 46 56 52 56 56 63 65 65 65 64 61 61 61 64 64 63 62 61 62 62 62 63 63 63 61 59 59 57 57 57 58 58 61 61 61 60 60 59 59 59 59 59 59 60
64 55 43 36 40 42 55 50 53 61 65 69 68 64 61 62 61 62 62 62 61 61 61 61 62 62 63 63 62 61 60 59 58 57 57 56 56 57 58 59 60 59 60 61 60 60 61 59 60
60 57 47 36 36 44 57 49 58 66 69 70 69 65 62 59 62 63 63 62 61 62 61 63 62 62 62 63 61 61 60 58 57 58 58 57 57 57 58 59 60 61 62 61 60 61 61 60 60
59 55 64 49 48 45 48 56 63 66 64 64 62 63 60 60 60 61 63 61 61 60 61 62 61 62 62 63 61 61 61 60 59 58 58 57 58 59 59 60 60 61 61 61 61 61 61 61 61
64 65 52 46 39 36 45 49 50 58 60 62 60 59 58 59 61 62 63 61 61 61 61 61 62 63 63 64 62 63 66 61 60 59 58 58 58 59 60 60 60 60 61 60 61 60 60 62 62
58 56 54 53 47 40 36 46 57 63 62 62 62 62 61 61 62 63 63 61 61 61 61 61 61 62 62 63 63 65 63 62 61 60 59 59 59 59 60 60 61 61 60 60 60 59 61 63 63
65 60 55 52 45 47 45 48 62 63 64 66 63 65 63 64 63 64 62 61 60 60 61 62 62 62 63 64 64 66 64 62 61 60 60 60 60 60 60 61 61 61 61 61 61 61 63 63 62

GFSSGP_sfc_temp_003.txt.gz
Temp
70 70 68 70 59 53 49 57 65 67 68 74 74 72 71 70 70 61 72 78 77 77 74 77 78 78 79 78 78 78 77 77 77 78 78 77 77 77 77 76 76 76 76 77 77 78 78 78 79
69 72 71 65 52 45 51 61 64 68 75 74 73 70 70 68 74 74 73 76 77 74 73 75 78 78 78 78 78 77 77 77 77 77 77 77 77 77 77 77 76 76 76 77 77 77 78 79 79
72 76 65 57 49 47 52 63 68 73 77 75 72 74 72 71 76 75 75 75 74 73 74 74 78 78 78 78 78 77 77 77 77 77 77 77 77 76 76 77 77 77 77 77 77 77 77 78 78
74 69 65 53 50 57 61 69 72 71 75 73 74 70 75 79 76 78 76 76 74 74 75 76 78 78 78 78 78 77 77 77 77 77 77 77 76 76 76 76 76 77 77 78 78 77 77 77 78
70 64 53 50 53 60 67 71 71 72 73 72 75 70 70 77 79 76 75 77 74 71 71 74 78 78 78 78 78 77 77 77 77 77 77 76 76 76 76 76 76 77 77 77 78 77 76 76 77
63 61 48 46 54 64 68 72 70 73 74 71 70 70 70 76 75 74 76 74 75 72 70 73 78 77 77 78 77 77 76 76 76 76 75 75 75 75 75 75 75 76 76 77 77 77 76 75 76
61 54 49 51 58 62 67 72 68 69 71 73 73 68 69 72 75 75 73 72 72 73 72 72 74 76 78 77 77 76 75 75 74 74 73 74 74 73 73 73 74 74 74 75 75 76 76 75 75
64 59 50 54 55 59 70 70 69 70 75 77 77 68 67 74 75 72 70 70 68 69 71 71 70 71 71 71 76 76 75 74 73 74 73 73 73 73 72 72 72 73 73 74 74 75 75 75 74
67 53 51 55 57 62 70 64 74 80 75 78 78 75 78 78 72 70 67 65 64 68 66 66 67 66 67 68 71 75 75 74 74 73 73 71 64 63 66 68 71 72 73 73 73 74 74 74 74
61 52 57 68 66 64 67 67 73 72 73 73 77 78 76 76 73 71 68 67 65 66 65 64 64 64 65 69 66 65 66 65 64 64 63 62 61 60 64 68 71 72 73 74 73 73 74 73 65
61 60 68 70 71 68 68 70 76 71 71 75 75 75 71 71 70 71 71 72 71 70 65 64 63 62 63 64 62 62 61 61 61 62 61 60 60 60 60 59 61 61 67 63 65 66 65 64 63
58 66 70 72 74 69 68 74 72 74 74 82 82 76 72 69 69 71 70 71 67 65 64 63 63 62 61 61 61 61 59 59 59 60 61 59 58 58 58 58 60 60 60 61 61 61 62 62 63
61 67 71 72 70 71 74 71 72 74 80 82 78 74 72 72 71 71 73 70 65 64 63 63 61 61 61 60 59 59 59 60 60 60 60 59 58 58 58 60 61 62 62 61 60 60 60 61 62
64 67 68 71 71 72 70 72 74 76 80 79 75 71 71 72 71 69 66 66 63 64 64 62 62 61 61 60 60 59 59 60 59 59 60 61 59 58 59 61 61 58 58 59 59 59 59 59 60
67 61 66 69 71 69 72 66 68 77 77 74 75 72 71 71 72 70 72 68 66 66 64 62 61 61 61 60 60 59 59 60 60 60 61 61 60 59 60 59 58 58 58 59 58 58 59 58 59
59 57 53 64 68 71 67 59 71 77 73 71 73 71 70 70 70 73 68 66 64 63 63 62 67 61 60 59 59 59 60 60 60 60 60 61 61 60 59 58 57 58 58 57 57 57 57 57 57
51 50 51 59 66 65 63 61 72 74 71 70 71 69 69 70 67 67 66 63 62 64 62 61 62 61 60 59 59 60 61 60 60 60 60 61 62 62 59 57 57 58 57 56 56 56 57 56 57
49 49 56 56 62 64 63 61 70 74 71 69 72 72 69 70 69 68 63 62 61 61 61 61 61 60 60 59 59 59 59 59 60 60 60 61 61 62 58 57 58 58 56 55 55 56 57 57 57
59 55 55 61 65 62 59 60 66 72 68 69 70 69 68 67 64 62 62 63 62 60 60 60 60 60 59 58 58 58 58 59 59 60 61 62 62 61 59 57 57 57 56 55 56 56 56 56 56
57 53 53 60 65 60 61 60 66 68 69 71 72 66 67 60 59 60 61 63 62 60 60 60 61 60 60 58 59 58 58 59 59 60 62 63 61 61 59 59 58 57 56 55 56 56 56 56 56
56 54 55 56 61 62 59 56 62 69 68 68 67 65 64 62 59 59 62 61 59 60 59 61 61 60 60 60 59 58 58 58 59 58 59 60 61 62 61 60 58 57 56 55 55 56 57 55 56
52 63 62 59 53 47 57 41 54 60 64 65 68 66 66 62 60 61 62 58 60 60 61 61 61 60 61 61 60 59 57 56 57 57 58 59 61 62 61 60 58 57 56 55 56 57 57 57 55
57 65 61 57 52 48 55 45 51 57 59 62 66 65 63 59 60 61 61 61 61 61 60 60 60 60 61 61 60 59 57 57 57 57 57 58 60 62 61 60 59 57 57 56 57 57 57 57 56
66 58 55 54 48 40 52 47 51 54 60 62 65 67 60 58 58 58 59 61 60 59 59 59 60 60 61 60 60 59 58 57 56 56 56 56 57 60 59 60 58 58 57 58 58 58 58 58 58
60 49 37 31 36 37 52 47 54 61 64 67 67 63 57 56 56 58 61 59 58 58 58 59 59 59 60 61 61 59 58 58 57 56 56 55 55 57 56 58 58 57 59 59 58 58 58 58 59
57 55 39 32 33 40 53 46 55 64 68 66 68 62 57 55 56 59 60 60 59 59 58 60 59 60 59 60 60 58 59 56 56 56 56 55 55 56 57 58 59 60 60 60 59 59 59 59 59
56 49 57 45 44 42 46 52 61 63 62 61 59 59 55 54 56 58 59 58 58 58 58 59 59 59 60 60 59 58 58 57 57 57 56 55 56 57 58 59 59 60 60 60 60 60 59 60 59
57 60 46 42 34 32 43 46 50 57 58 59 57 56 53 54 56 59 59 58 58 59 59 59 60 61 61 60 60 60 62 59 57 57 57 56 57 57 58 58 59 59 59 60 60 59 62 63 61
51 53 48 50 45 36 34 44 55 61 60 60 58 56 55 56 58 59 58 59 59 58 58 58 59 60 60 60 60 64 60 60 58 58 57 57 57 57 58 59 59 59 59 59 59 60 63 62 62
62 57 56 47 42 44 44 50 60 60 60 61 59 59 56 58 60 60 60 57 57 57 57 59 59 60 61 61 62 62 61 60 58 57 57 57 57 58 59 60 60 59 59 59 60 60 61 62 61

GFSSGP_sfc_temp_006.txt.gz
Temp
71 68 68 68 57 52 47 55 61 63 65 70 72 71 68 68 65 59 71 74 76 76 73 77 78 78 78 78 78 78 77 77 77 77 77 77 77 77 76 76 76 76 76 76 77 77 78 78 78
69 71 70 64 51 44 49 58 61 66 70 70 69 69 68 70 73 73 72 74 75 73 73 75 78 78 78 78 78 77 77 77 77 77 77 77 77 77 77 77 76 76 77 77 77 77 77 78 78
73 76 67 58 49 46 50 61 63 69 73 73 70 73 71 71 74 74 74 74 72 73 73 74 78 78 78 78 77 77 77 77 77 77 77 77 77 77 77 77 77 77 77 77 78 78 77 77 78
73 69 63 52 49 55 58 64 66 68 73 71 71 69 72 79 76 77 76 73 73 73 74 75 78 77 78 78 78 77 77 77 77 77 77 77 77 76 76 76 77 77 77 78 78 78 77 77 77
68 62 51 46 52 57 64 67 65 67 67 70 69 69 69 75 76 74 73 75 73 70 72 74 77 77 78 78 78 77 77 76 76 77 77 77 76 76 76 76 76 76 77 77 78 78 77 76 76
62 59 47 46 54 62 64 68 66 67 68 71 68 67 70 73 74 72 73 72 74 70 68 71 78 77 77 78 77 77 76 76 76 76 76 76 76 76 75 75 76 76 76 77 77 77 77 76 75
59 53 49 51 55 59 64 68 67 65 67 70 69 66 69 71 74 72 71 70 70 70 69 70 74 76 77 77 77 76 76 76 75 75 75 74 74 74 74 74 74 74 75 75 75 75 75 75 75
64 57 49 52 53 57 67 68 69 67 71 74 74 67 69 72 72 70 68 67 66 67 69 69 71 72 73 73 77 76 75 75 74 74 74 74 74 74 73 72 72 72 73 74 74 74 74 75 74
64 52 49 52 54 60 63 62 69 75 71 72 76 74 76 72 69 67 65 65 64 67 67 68 69 69 69 69 73 75 76 75 74 73 74 72 66 65 67 69 71 72 72 73 73 74 74 74 74
59 51 54 65 65 62 62 62 67 68 70 69 73 77 76 71 69 67 65 67 64 65 65 66 66 66 66 69 68 67 67 66 65 66 65 64 63 63 65 67 70 72 73 73 74 73 73 74 69
59 58 66 68 71 65 65 65 67 67 67 72 69 75 73 69 67 68 69 70 70 70 67 64 64 64 64 65 64 63 62 62 63 64 63 62 62 61 62 62 62 62 66 65 66 66 68 68 67
54 63 68 70 72 67 65 68 69 70 71 78 77 76 72 68 65 67 68 69 66 64 66 63 63 62 62 62 62 62 61 60 60 61 62 60 60 59 59 60 60 61 62 62 63 63 64 65 65
58 63 67 67 66 69 68 66 68 70 77 78 77 74 71 68 69 70 72 71 66 63 62 62 61 61 61 61 60 60 60 61 60 60 61 60 59 59 60 60 60 62 63 62 62 62 63 63 64
61 64 66 65 68 71 67 67 69 72 77 75 75 72 70 68 69 68 65 67 64 63 62 61 62 60 60 60 60 60 60 60 60 60 61 61 60 59 59 60 61 61 61 61 61 62 62 62 63
63 57 60 64 68 66 69 62 65 74 73 70 72 73 71 68 69 68 71 71 69 62 60 62 62 60 60 60 60 60 60 60 59 60 61 62 61 60 60 60 60 60 60 60 60 61 61 61 62
55 54 48 62 65 66 64 55 69 73 69 70 72 73 70 68 69 72 72 68 61 60 62 61 65 60 60 59 59 60 60 59 60 60 61 62 62 61 60 60 59 60 59 60 59 59 59 60 60
49 49 50 55 65 63 62 58 69 68 67 67 69 69 69 68 65 67 67 61 60 61 60 60 61 60 60 59 59 59 60 60 60 60 60 61 62 62 60 59 60 60 59 58 59 58 59 59 59
45 46 50 53 61 60 57 57 66 70 68 66 66 66 66 66 68 68 62 60 60 60 62 62 60 60 60 59 59 59 59 60 60 61 61 62 62 63 61 59 59 59 58 58 57 58 59 59 60
54 53 52 54 63 59 56 56 61 67 64 63 66 68 67 66 64 61 59 59 60 60 60 60 59 58 58 58 58 58 58 59 60 61 62 62 63 63 60 59 59 59 58 58 58 58 58 58 59
53 51 51 56 62 59 56 56 62 65 66 64 67 69 69 61 59 58 57 59 62 61 61 59 59 58 59 58 58 59 59 59 60 61 62 63 63 62 60 59 59 59 58 57 58 58 57 58 59
52 51 52 51 60 59 55 53 56 64 64 65 65 64 63 62 59 57 57 58 61 60 60 60 59 59 59 60 59 58 58 59 59 59 60 61 62 62 61 61 60 59 58 57 57 58 59 57 58
48 58 57 55 53 44 53 37 52 57 62 63 65 64 64 62 58 56 56 56 60 60 60 60 59 59 60 60 59 59 58 57 57 58 59 60 62 62 62 61 60 59 58 57 58 59 60 59 58
53 63 57 57 50 43 48 41 50 53 55 62 64 65 64 60 57 56 56 58 60 59 59 59 59 59 60 60 60 59 58 57 58 58 59 60 60 63 62 61 60 59 58 58 58 59 59 60 59
63 56 52 49 44 38 48 45 44 50 58 60 62 64 61 56 55 55 57 60 57 58 58 58 59 59 59 60 60 60 59 58 57 57 57 57 58 60 61 61 60 60 59 59 59 59 60 59 60
56 46 34 29 29 34 50 44 52 56 60 63 65 64 56 53 53 56 58 58 56 57 57 58 59 59 59 60 60 60 59 59 58 58 57 57 57 59 59 60 60 60 60 60 60 60 60 60 60
54 50 36 30 31 40 48 42 52 60 65 64 65 62 55 52 54 57 59 58 58 58 57 59 58 58 59 60 60 60 60 58 57 58 57 56 57 58 59 60 61 61 62 61 61 61 60 61 61
53 45 54 42 45 38 42 50 59 61 63 63 59 56 53 51 53 56 58 58 57 57 57 59 58 59 59 61 59 59 59 58 58 58 58 57 58 59 60 61 61 61 62 62 62 61 62 62 62
54 57 43 44 32 30 41 44 48 54 59 60 56 55 51 51 54 56 57 56 57 58 58 58 59 59 60 60 60 60 60 59 59 58 58 58 58 60 60 61 61 61 62 62 61 62 64 64 61
48 47 44 48 39 34 32 41 53 58 61 61 59 56 52 53 55 57 56 57 58 57 57 58 58 60 60 60 60 62 60 60 59 59 58 58 59 59 60 61 61 61 61 61 62 62 63 62 62
60 54 48 45 37 43 40 42 58 59 59 59 59 56 53 54 56 57 58 56 56 56 57 58 58 60 60 61 61 62 62 60 58 59 58 59 59 60 60 61 61 61 61 61 63 64 64 63 62

GFSSGP_sfc_temp_009.txt.gz
Temp
76 77 79 77 68 68 65 68 73 75 77 84 84 82 82 83 79 77 86 85 87 86 83 82 78 78 79 78 78 78 77 77 77 77 77 77 77 77 76 76 76 76 76 77 77 77 77 78 78
78 76 80 76 67 59 69 72 73 79 83 85 84 83 81 82 85 88 88 84 87 85 82 84 78 78 79 78 78 77 77 77 77 77 78 77 77 77 77 77 76 76 77 78 77 77 78 78 78
78 80 78 73 66 64 69 74 77 80 83 81 82 85 84 84 86 87 90 85 85 83 82 83 78 78 78 78 78 77 77 77 77 77 78 77 77 77 77 77 77 77 77 78 78 78 78 77 78
80 81 77 67 64 68 70 77 77 79 83 83 83 82 86 90 88 90 88 86 84 84 84 82 78 78 78 78 78 77 77 77 77 77 77 77 77 77 77 76 77 77 78 78 78 78 78 77 77
82 79 69 63 65 69 74 79 79 78 79 83 83 81 83 88 88 86 85 86 86 85 84 84 78 77 78 78 78 77 77 77 77 77 77 77 77 76 76 76 77 77 77 77 78 78 77 77 77
76 77 65 64 67 71 76 81 79 79 82 83 81 80 85 88 86 88 87 87 90 85 84 84 79 77 77 78 77 77 76 76 76 76 77 77 77 76 76 76 76 76 76 77 77 77 77 76 76
73 71 65 64 65 70 75 82 77 80 81 82 86 80 87 89 91 88 86 89 88 87 84 83 84 80 77 77 77 77 76 76 76 76 76 76 76 75 75 75 75 75 75 75 75 76 76 75 75
76 74 63 66 66 68 78 79 82 81 81 86 85 80 81 90 86 86 86 87 86 86 86 84 83 84 83 83 77 76 76 76 75 75 75 75 74 75 74 73 73 73 73 74 75 75 75 75 75
74 68 65 66 66 74 79 78 80 84 82 84 86 86 90 87 82 83 82 83 84 83 82 83 83 82 83 84 82 77 77 76 75 76 74 74 79 78 76 74 72 72 72 73 73 74 74 74 74
72 66 67 75 77 76 77 76 77 77 79 80 82 88 88 87 84 85 82 83 82 81 81 83 80 81 81 82 81 81 81 81 79 78 77 77 76 75 75 74 71 71 72 73 73 73 73 74 80
72 65 74 76 78 77 76 77 81 76 74 81 79 83 87 89 85 83 85 87 86 84 83 81 79 79 79 80 80 80 79 79 77 76 75 75 74 74 75 75 75 74 73 76 76 76 77 76 78
67 72 74 77 79 76 74 78 73 77 78 84 85 85 85 85 85 83 84 86 86 84 82 80 79 76 77 80 79 79 78 77 77 76 74 74 74 73 72 74 74 72 74 72 74 75 74 74 75
66 71 75 76 76 76 76 71 73 75 80 85 85 84 83 84 85 85 85 86 85 81 81 78 77 76 76 75 77 77 76 76 77 76 75 74 74 71 72 72 73 72 75 74 72 72 73 74 74
75 72 73 76 75 76 72 73 75 77 82 82 82 82 85 85 85 85 81 80 79 79 77 77 76 75 75 75 74 74 74 76 75 75 74 72 73 71 72 72 72 73 72 74 72 73 73 73 72
72 66 70 71 72 71 74 69 70 80 82 79 80 82 83 84 86 82 83 79 80 79 77 74 75 74 73 73 74 75 76 75 74 74 72 72 71 71 70 71 70 70 69 69 70 71 72 72 72
66 66 61 72 72 73 71 64 77 82 79 78 80 80 81 84 86 86 83 80 80 78 72 74 76 73 72 72 74 75 75 75 74 74 73 72 71 71 70 70 71 71 69 69 71 70 71 71 71
62 58 59 64 72 71 70 67 77 80 78 76 77 79 81 82 83 82 82 81 76 74 73 72 73 73 72 72 74 73 72 72 73 73 74 72 71 71 69 71 70 69 70 70 69 69 69 69 69
57 56 60 59 70 69 69 67 73 75 75 74 77 79 79 79 81 84 80 77 72 72 72 71 72 72 72 73 71 72 72 72 73 73 73 72 72 71 69 67 67 69 69 68 69 67 68 68 67
64 61 61 67 71 67 67 66 69 74 75 74 75 76 77 79 83 76 74 71 70 71 70 70 70 70 71 72 72 72 72 73 73 73 72 72 72 71 69 68 68 66 68 68 67 67 66 67 68
60 58 59 64 67 66 65 64 70 72 73 76 75 76 77 79 81 73 69 69 69 69 70 70 71 69 71 73 72 74 73 74 74 73 72 72 72 71 69 67 68 65 66 67 67 67 66 65 67
58 57 58 59 65 67 64 61 66 74 74 76 77 77 78 77 76 73 68 68 70 69 69 70 70 70 71 72 71 70 71 71 72 72 72 72 71 69 69 69 68 68 68 67 66 66 66 63 67
54 63 62 60 57 52 64 49 62 68 69 74 76 77 78 79 75 71 68 67 68 70 71 72 71 70 71 71 72 70 72 72 72 72 71 71 70 70 70 69 69 68 70 68 68 68 67 66 64
59 66 61 61 57 57 58 52 60 67 65 70 75 79 79 76 74 70 69 69 70 70 71 71 71 71 71 71 72 72 70 72 71 71 68 68 70 70 70 70 69 68 70 68 68 67 67 66 67
67 63 62 60 58 46 56 53 55 62 66 72 76 79 76 71 68 68 69 69 69 72 72 71 71 70 71 72 71 71 70 69 70 69 69 70 71 67 70 70 70 69 69 68 69 68 68 69 67
62 57 47 44 44 44 59 54 55 68 72 73 75 80 73 67 66 67 67 69 70 71 72 72 72 70 71 71 72 72 70 69 68 68 69 68 67 65 68 69 68 68 69 69 69 68 69 69 68
58 57 50 40 43 50 56 50 56 71 75 76 78 77 72 67 67 68 69 70 71 71 71 72 72 71 71 72 72 72 70 72 72 70 70 69 69 69 69 69 71 69 70 70 70 71 71 69 68
59 54 64 53 53 50 54 58 64 71 72 74 74 70 68 67 67 68 69 71 72 71 71 72 72 72 72 72 71 71 70 69 69 67 67 69 68 69 69 70 70 70 71 70 70 71 69 70 70
64 67 51 55 42 40 51 53 58 66 70 73 72 70 67 67 67 68 70 70 71 72 72 72 72 72 73 72 72 72 71 70 69 68 67 68 68 69 69 70 71 71 71 70 68 66 68 68 68
58 57 59 59 54 46 45 54 68 70 75 75 75 71 68 67 68 69 71 71 72 72 72 71 72 72 72 72 72 72 71 71 70 69 68 69 69 69 70 70 71 71 70 67 67 67 67 67 67
65 61 59 52 46 55 52 55 70 71 74 72 73 70 68 69 70 71 72 71 72 72 73 71 72 73 74 74 73 73 71 70 69 69 68 69 69 70 70 71 71 70 70 66 66 66 65 65 64

GFSSGP_sfc_temp_012.txt.gz
Temp
79 89 95 90 78 79 74 77 87 84 85 92 92 90 90 93 88 82 99 100 99 99 93 85 78 79 79 79 78 78 78 78 78 78 78 77 77 77 77 77 76 76 77 77 77 78 78 78 78
92 90 91 92 76 73 78 85 82 87 90 94 94 93 91 88 97 98 100 98 99 97 92 89 78 78 79 78 78 78 78 78 78 78 78 78 77 77 77 77 77 77 77 78 78 78 78 78 78
92 92 88 83 78 75 80 85 87 89 92 91 90 93 92 90 96 99 101 98 98 94 92 90 78 78 79 78 78 77 77 77 78 78 78 78 78 77 77 77 77 77 78 78 79 79 78 78 78
90 90 89 76 75 82 82 87 88 88 91 92 92 88 95 99 97 100 99 98 97 96 94 89 78 78 78 78 78 78 77 77 77 78 78 78 78 77 77 77 77 77 78 78 78 78 78 78 77
92 90 79 77 78 84 87 89 91 88 89 91 91 87 90 98 99 98 97 98 97 97 96 95 78 78 78 78 78 78 77 77 77 77 78 78 77 77 77 77 77 77 77 78 78 78 78 78 77
84 88 75 74 80 85 87 91 91 91 92 92 89 89 92 99 100 101 100 100 102 99 96 96 80 78 78 78 78 77 77 77 77 77 77 77 77 77 76 76 76 76 76 76 77 77 77 77 76
81 81 77 80 79 80 85 91 89 90 90 90 94 86 95 98 100 102 100 102 102 102 98 95 91 82 77 77 77 77 76 76 76 76 76 76 77 76 76 75 75 75 75 75 76 76 76 76 76
87 84 76 80 76 78 85 88 91 90 89 95 93 86 88 97 99 102 102 102 103 102 100 97 93 91 87 87 77 77 76 76 76 76 76 76 76 76 74 74 74 74 74 74 74 74 75 75 75
90 76 74 78 79 81 91 86 90 92 90 92 94 93 97 99 100 99 99 100 100 100 97 96 94 92 90 93 87 77 77 76 76 77 76 76 83 84 83 79 73 73 73 73 73 74 74 74 74
81 76 77 86 87 85 89 87 89 85 86 87 91 97 99 99 99 96 96 98 97 96 97 97 91 91 91 94 90 86 87 86 85 84 83 82 83 83 81 77 73 72 73 73 73 73 73 74 83
82 75 86 87 89 89 86 86 91 86 82 85 88 92 95 96 96 96 97 98 99 99 97 95 89 88 89 91 90 89 89 87 86 83 82 82 82 82 82 82 82 81 77 81 81 80 82 82 77
76 83 85 87 89 87 84 88 85 87 85 90 93 94 94 93 94 96 97 98 99 99 98 94 92 86 85 91 89 90 89 87 85 85 81 80 81 80 79 81 82 79 81 79 80 82 79 79 80
79 81 85 87 86 86 86 83 84 85 88 92 93 93 92 93 94 96 98 98 97 96 97 93 90 85 84 85 88 88 87 86 86 85 83 82 82 79 80 78 79 79 82 81 80 79 78 78 79
83 83 83 85 85 86 82 83 85 86 87 89 91 92 93 94 94 95 96 95 93 94 95 93 89 85 84 84 84 84 84 86 84 85 84 80 81 79 80 77 76 76 77 79 79 78 77 79 79
82 75 80 81 83 82 85 75 77 87 88 87 89 91 93 93 96 94 95 93 95 94 92 89 87 85 82 82 83 84 85 84 85 84 81 80 79 78 76 75 77 77 76 74 75 76 77 78 80
75 75 68 80 81 81 79 69 82 90 90 88 88 90 91 92 94 95 95 95 94 92 90 87 87 84 81 81 82 84 86 85 85 84 83 80 78 77 74 71 71 75 74 73 73 77 77 78 79
71 64 69 73 84 81 78 71 83 90 88 84 85 88 89 91 92 93 94 95 92 90 87 83 83 83 80 80 82 82 81 83 84 84 83 81 79 78 73 69 70 73 70 73 73 76 75 73 76
64 66 69 70 79 77 75 74 82 87 86 83 85 86 88 88 90 94 94 92 90 87 83 81 83 81 80 80 80 83 83 83 83 83 83 80 80 78 73 70 71 69 71 72 74 73 74 75 75
71 70 69 75 81 76 74 74 79 84 84 82 84 85 86 87 93 94 88 85 83 81 80 80 79 78 79 80 81 81 81 82 82 82 80 79 79 76 72 70 69 70 71 71 72 70 69 71 71
68 67 68 74 78 76 73 71 77 81 82 82 83 85 87 88 91 92 85 81 79 78 78 78 78 76 79 82 82 83 83 84 84 84 80 79 78 75 72 70 72 71 73 72 71 69 69 68 68
67 65 66 66 71 74 70 66 70 78 82 84 86 87 87 87 89 89 83 79 79 78 77 77 77 76 79 80 80 79 80 80 80 80 80 78 78 76 75 73 71 71 72 68 69 69 67 64 67
62 72 68 65 64 58 72 56 68 74 76 80 83 85 88 90 91 88 82 78 78 78 79 78 77 77 79 78 79 78 80 79 82 81 82 78 77 76 76 74 74 72 69 70 70 71 68 68 66
66 70 68 67 64 63 64 60 66 74 72 76 81 85 88 91 88 87 82 80 80 78 78 77 77 77 77 78 79 79 78 81 81 80 75 75 75 76 76 75 74 73 72 71 71 71 71 70 68
74 68 68 68 64 53 62 62 63 70 73 78 84 86 89 87 83 83 81 79 78 80 79 78 77 76 77 78 78 78 76 76 78 77 76 75 69 71 75 76 76 75 74 72 74 74 73 69 70
69 63 55 50 51 50 66 62 65 75 79 81 82 85 84 82 80 79 78 78 78 79 79 79 78 76 78 78 78 78 76 75 74 74 77 73 70 69 74 74 73 73 73 75 76 74 74 73 70
65 64 58 46 49 57 68 57 66 78 83 85 86 86 85 81 80 79 79 79 80 79 79 80 78 77 78 78 78 78 77 80 80 76 79 78 69 74 74 74 74 75 75 75 75 76 76 74 70
65 61 72 62 62 59 65 67 73 78 79 82 83 84 83 80 79 79 79 80 80 80 79 79 79 78 78 79 78 77 77 77 76 73 75 76 73 76 75 75 76 77 76 75 73 71 74 73 71
70 73 59 64 49 48 59 60 65 72 76 81 83 83 81 80 80 79 80 80 80 80 80 80 80 78 79 79 79 79 77 77 76 75 74 74 74 76 75 75 76 76 77 75 73 71 72 71 70
67 65 66 67 64 53 53 59 73 74 80 81 84 83 80 79 80 79 80 81 81 81 80 78 79 79 78 79 79 78 78 77 76 75 75 75 74 75 76 77 77 78 76 71 71 69 70 70 69
72 68 66 59 54 62 60 60 79 79 81 80 83 82 82 82 81 82 81 80 81 80 80 79 79 80 80 81 80 79 78 77 74 75 75 75 75 76 77 77 78 78 75 73 69 68 68 69 67

GFSSGP_sfc_temp_015.txt.gz
Temp
79 89 99 95 81 83 80 84 94 89 90 96 97 94 94 96 90 83 106 107 107 104 91 85 79 79 79 79 78 78 78 78 78 78 78 78 78 78 78 78 77 77 77 78 78 78 78 78 78
97 96 95 90 78 77 82 91 87 92 96 98 98 97 94 91 101 102 105 105 106 102 91 89 79 79 79 79 78 78 78 78 78 78 78 78 78 78 78 77 77 77 78 78 78 78 78 78 78
93 98 89 85 81 78 81 85 91 94 96 95 94 98 96 93 101 102 104 104 105 100 94 91 78 78 79 79 78 78 77 78 78 78 78 78 78 78 78 78 78 78 78 78 78 79 79 78 78
94 93 90 79 79 87 88 92 94 93 97 97 97 92 100 104 101 104 105 105 103 100 98 87 78 78 78 78 78 78 77 77 78 78 78 78 78 78 77 77 77 78 78 78 78 78 78 78 78
97 92 80 80 80 88 93 95 96 92 94 95 96 91 93 101 104 104 103 104 103 102 99 94 78 78 78 79 78 78 77 77 77 78 78 78 78 77 77 77 77 77 78 78 78 77 77 78 78
85 90 78 77 82 90 94 95 95 94 96 97 94 93 95 105 104 105 106 106 107 105 100 98 80 78 78 78 78 78 77 77 77 77 77 78 77 77 77 77 77 77 77 76 77 76 76 76 77
83 84 78 81 82 86 89 96 93 94 94 95 99 88 97 102 104 105 106 107 107 108 103 101 90 82 78 78 77 77 77 76 76 76 76 76 77 77 77 76 76 76 76 75 76 76 76 75 76
88 85 78 83 80 81 93 93 97 94 93 102 97 88 91 101 105 107 108 109 109 108 107 102 97 90 86 86 78 77 76 76 76 76 76 76 76 77 76 75 75 75 75 74 74 74 75 75 75
93 78 75 79 81 83 94 92 98 98 93 96 98 98 100 104 106 103 104 106 107 106 105 103 100 95 91 92 87 77 77 77 76 77 76 77 82 84 82 79 75 74 74 74 74 74 74 74 75
83 76 78 88 90 89 93 93 95 93 92 92 94 100 103 104 103 101 101 102 103 104 104 105 97 96 93 95 91 85 86 85 84 84 84 83 83 84 84 80 75 74 73 73 73 74 74 74 81
84 76 85 89 93 92 92 92 96 91 87 92 90 95 99 100 99 100 101 103 103 105 105 103 96 93 93 93 94 90 89 87 87 85 85 84 84 84 85 85 81 78 75 80 78 78 78 80 78
80 85 87 89 91 91 89 92 91 91 91 97 97 97 97 97 97 99 100 102 103 103 103 101 99 91 90 95 94 93 91 90 89 88 84 82 83 82 81 84 84 82 82 81 82 83 82 80 80
82 85 89 91 91 91 93 88 89 90 95 98 97 96 95 97 98 100 102 102 102 100 101 102 97 91 88 87 93 91 91 90 89 89 86 84 84 82 83 81 79 80 83 78 78 78 77 78 78
86 86 87 89 89 90 87 88 89 91 96 94 94 94 96 97 98 99 100 99 98 99 99 100 96 90 88 87 88 88 89 90 88 88 87 84 83 82 82 80 77 75 79 80 78 76 72 73 74
87 80 84 86 88 86 88 81 82 91 94 91 92 94 95 97 100 98 98 97 98 99 99 95 95 91 85 85 87 88 89 89 87 87 85 84 82 81 79 79 78 77 75 75 77 76 74 76 75
79 80 71 82 86 87 85 72 84 92 91 90 93 94 95 96 98 99 99 98 98 98 96 95 97 91 85 84 86 87 89 87 89 88 87 83 81 80 79 78 77 76 74 72 71 72 73 71 73
75 67 71 76 87 85 82 76 86 92 90 88 90 92 92 93 95 96 99 98 97 95 94 93 92 91 85 84 85 85 85 86 88 88 87 85 83 82 75 76 76 73 72 71 72 70 73 68 75
66 68 71 71 81 84 80 79 86 89 88 87 89 91 92 91 93 97 98 98 98 96 93 90 89 87 84 85 84 85 85 85 87 86 86 85 83 80 77 76 75 72 70 71 71 71 73 74 73
74 73 71 77 84 79 77 79 84 87 87 86 87 88 90 90 95 97 98 97 91 91 88 86 83 84 83 82 82 83 83 83 85 85 84 83 82 79 78 77 72 70 69 70 71 71 70 71 73
71 69 70 76 82 78 77 76 82 85 85 85 85 87 88 90 92 95 97 91 87 85 83 82 82 82 82 83 83 86 85 86 86 86 84 82 81 80 75 73 71 71 69 70 71 70 70 67 69
70 68 69 70 77 78 76 71 75 82 84 85 87 88 89 89 90 92 94 88 85 83 81 81 81 80 81 83 85 84 84 84 82 83 82 80 79 77 76 74 71 72 71 71 71 70 68 67 67
64 76 73 71 69 62 76 60 71 78 80 83 86 87 89 90 92 93 95 86 83 83 83 81 80 78 82 82 81 79 80 80 84 84 85 82 79 78 77 75 74 72 72 71 71 71 71 68 65
70 77 74 73 68 67 67 63 69 78 75 80 84 87 89 91 92 94 93 86 85 83 81 80 79 79 80 80 82 80 81 83 84 83 80 77 78 76 77 75 73 73 73 72 71 71 70 68 67
78 74 73 73 69 57 65 64 65 72 77 82 86 89 90 92 93 94 89 85 83 83 81 79 78 78 79 81 81 79 79 80 81 79 79 75 73 74 75 78 77 75 73 73 73 72 71 71 70
75 67 57 53 53 53 69 65 68 78 83 84 85 88 91 91 88 87 84 83 81 81 80 80 79 77 79 80 80 80 79 78 76 77 72 74 73 72 71 77 75 76 74 74 74 74 73 72 70
69 67 59 47 52 59 69 60 70 83 86 87 89 89 89 86 86 84 83 82 83 81 80 81 79 78 80 80 80 80 80 81 81 77 78 70 75 74 76 76 75 75 75 74 75 76 75 75 72
68 65 73 64 68 63 68 73 79 83 83 85 86 88 87 85 84 84 84 83 83 82 81 80 80 80 80 80 80 79 79 80 75 76 76 76 75 74 77 77 75 76 77 75 75 73 72 73 73
72 77 62 67 53 52 63 66 67 75 80 84 85 86 87 85 85 84 84 83 83 82 82 82 81 80 80 81 81 80 79 79 78 77 76 72 76 79 77 76 75 76 76 75 72 71 72 71 70
68 68 68 69 67 57 56 62 80 78 83 84 87 88 85 84 85 84 84 84 84 84 83 81 81 81 80 81 81 75 77 79 79 76 77 72 75 75 77 78 77 76 75 76 73 70 71 71 71
73 69 68 62 59 67 66 66 82 82 84 84 87 87 87 86 85 86 85 84 84 83 82 81 81 82 82 83 82 76 78 78 76 75 76 76 73 77 79 80 80 78 76 75 71 69 69 70 69

GFSSGP_sfc_temp_021.txt.gz
Temp
72 75 75 74 62 62 59 66 78 78 80 84 89 86 79 78 78 66 82 86 82 76 76 78 78 79 79 78 78 78 77 77 77 78 77 77 77 77 77 77 77 77 77 77 77 78 78 78 78
78 82 77 71 59 54 58 75 74 78 85 90 90 84 83 79 89 87 84 84 81 77 75 76 78 78 79 78 78 77 77 77 77 77 78 78 77 77 77 77 77 77 77 78 78 78 78 78 78
78 84 68 64 60 57 60 75 75 79 84 89 87 92 86 82 89 88 87 84 80 77 75 75 78 78 79 78 78 77 77 77 77 77 78 77 77 77 77 77 77 77 78 78 78 78 78 78 78
77 74 72 59 60 69 72 78 77 77 82 86 89 84 88 90 90 90 87 85 80 78 78 78 78 78 78 78 78 77 77 77 77 77 77 77 77 77 76 77 77 77 78 78 78 78 78 78 78
75 68 58 58 64 73 80 84 78 74 81 84 89 83 83 88 92 93 89 87 81 79 80 77 78 78 78 78 78 77 77 77 77 77 77 77 77 77 77 77 77 77 77 77 78 77 77 76 77
67 68 55 55 65 76 82 87 87 82 85 88 87 86 80 90 90 90 93 88 86 82 81 77 78 77 77 78 77 77 77 77 77 77 77 77 77 76 77 77 77 77 77 77 77 77 76 76 76
62 58 55 61 66 73 81 88 83 79 82 83 84 81 81 86 90 92 91 90 88 86 81 77 77 77 78 77 77 77 76 76 76 76 76 76 76 76 76 76 76 76 76 76 76 75 75 75 75
71 62 57 62 65 69 82 86 87 84 83 91 92 79 78 84 91 91 91 93 90 87 80 77 76 77 76 75 77 77 76 76 76 76 76 76 76 76 76 75 75 76 76 75 75 75 75 75 75
79 56 53 61 65 72 83 81 88 92 87 88 89 86 89 92 91 86 82 87 83 86 80 77 75 75 75 75 76 76 77 76 76 75 76 74 69 70 73 74 75 75 75 75 75 74 74 74 74
70 56 60 71 74 74 80 81 84 85 82 84 87 90 93 95 88 83 81 80 82 84 80 79 76 75 75 79 75 74 74 74 73 73 71 70 68 67 74 74 76 76 76 75 75 75 74 74 67
71 63 71 74 78 80 80 81 87 83 77 82 82 86 90 90 87 81 82 82 84 85 82 80 77 76 76 78 75 73 73 72 71 70 69 69 70 69 70 67 70 68 73 69 71 70 69 68 66
66 73 74 76 79 79 77 84 81 82 80 85 87 87 85 84 82 84 83 84 83 83 83 81 79 77 77 80 75 73 73 72 71 71 70 69 69 67 67 67 67 66 66 65 66 65 66 68 69
68 71 76 79 79 79 82 79 80 81 87 88 89 89 84 83 82 83 84 83 82 81 84 79 79 78 79 79 77 75 74 73 73 73 72 71 69 67 67 67 67 66 66 65 64 68 68 68 68
72 73 74 77 77 79 78 79 81 83 85 86 88 86 84 83 83 81 81 82 80 83 82 76 80 80 80 80 77 76 77 75 74 74 73 72 70 68 67 67 67 66 66 65 65 65 65 65 66
71 66 72 74 76 75 80 74 75 84 85 84 84 85 84 85 85 82 82 81 80 82 82 76 78 79 79 79 75 77 77 76 76 72 73 73 70 68 68 66 65 65 65 66 65 64 64 64 66
63 64 57 69 74 77 75 65 77 83 83 79 84 86 86 82 82 83 83 78 82 80 80 78 82 77 77 77 72 75 74 75 75 71 73 72 70 70 68 66 65 66 65 64 64 63 62 62 62
60 51 56 62 74 74 71 67 77 82 81 80 82 83 84 85 80 79 82 84 80 78 77 76 75 75 73 71 71 72 73 72 72 69 68 71 72 72 68 66 66 66 64 64 63 62 62 61 61
50 53 58 58 68 72 69 69 76 80 80 80 81 81 82 80 78 82 82 80 80 78 76 75 72 73 73 73 71 71 70 70 69 68 66 69 70 71 68 66 65 65 64 62 62 61 61 61 61
60 59 58 63 71 68 67 68 72 77 75 76 76 76 77 80 79 78 80 80 76 75 73 73 71 71 74 74 72 68 67 69 69 66 71 69 70 70 67 65 65 64 63 62 62 61 60 60 60
58 55 56 64 71 67 66 66 73 76 75 77 78 72 74 73 77 80 79 78 75 73 72 71 71 73 72 75 69 69 70 68 72 68 69 70 71 70 67 65 64 63 62 62 61 60 59 59 59
56 55 56 57 64 67 64 60 65 72 75 75 76 75 74 73 73 75 77 74 70 70 69 70 70 70 70 71 71 68 68 67 66 66 66 68 70 69 67 66 64 63 62 61 60 60 59 57 58
51 63 63 61 57 50 63 48 61 67 70 75 78 77 79 78 81 79 77 67 69 68 69 70 70 70 71 70 69 68 65 63 65 66 66 67 69 69 68 66 65 63 62 61 61 61 60 58 57
56 65 62 61 57 55 57 49 59 64 63 66 71 72 72 74 75 74 73 70 69 69 68 68 69 69 69 69 68 67 66 66 66 65 65 65 65 67 68 66 64 63 62 62 61 61 60 59 57
66 61 60 59 55 43 54 53 55 59 64 67 71 74 77 76 74 71 72 71 69 69 67 69 68 67 69 68 68 67 66 65 64 63 62 62 62 64 66 67 64 63 62 62 62 62 61 60 60
59 51 39 38 40 40 57 53 57 62 69 73 72 73 71 70 70 70 69 69 68 68 68 67 66 65 67 67 67 67 66 66 65 63 62 62 62 62 63 64 62 62 64 63 62 62 61 62 60
51 52 41 31 37 44 58 47 57 71 73 73 76 73 70 68 70 69 68 69 69 68 67 66 66 65 66 67 66 67 67 65 64 64 63 62 61 62 63 64 64 65 66 65 63 61 61 62 61
52 46 58 48 50 45 50 58 66 72 72 71 74 73 68 69 69 68 68 69 68 68 66 66 66 65 66 67 66 66 65 65 64 64 63 62 62 64 64 64 65 66 66 66 63 61 62 62 61
55 59 45 48 36 35 48 52 54 63 68 72 69 69 67 69 68 68 68 68 69 68 68 66 66 66 66 67 66 66 66 67 65 64 63 63 63 64 64 64 65 66 65 66 63 62 63 64 62
49 50 50 51 47 40 39 48 65 68 71 68 68 70 69 69 69 69 69 69 69 68 68 66 66 66 66 67 66 69 69 69 65 64 66 63 64 68 65 66 66 66 64 63 62 62 63 64 64
52 47 52 43 44 49 46 49 69 69 68 70 70 71 71 71 71 71 70 70 69 69 67 66 66 66 67 67 67 70 69 64 64 63 64 64 64 66 67 68 70 67 65 64 63 63 64 64 62

GFSSGP_sfc_temp_024.txt.gz
Temp
72 74 74 73 62 58 52 63 72 73 76 79 84 81 76 75 74 64 78 84 78 76 75 77 78 78 79 78 78 77 77 77 77 77 77 77 77 77 77 77 76 77 77 77 77 77 77 77 77
75 78 74 68 57 51 55 67 70 74 80 84 86 83 78 75 83 80 79 80 79 75 74 75 78 78 78 78 77 77 77 77 77 77 77 77 77 77 77 77 77 77 77 77 77 78 78 77 77
78 81 66 61 56 53 58 69 73 77 82 83 82 88 81 79 84 83 80 78 76 74 74 75 78 78 78 78 77 77 77 77 77 77 77 77 77 77 77 77 77 77 77 77 78 78 78 78 77
75 70 66 57 56 64 68 75 77 77 82 86 85 81 85 86 86 85 81 78 76 74 75 77 78 78 78 78 77 77 77 77 77 77 77 77 77 76 76 76 76 77 77 78 78 78 78 77 78
72 65 55 54 60 68 75 79 76 76 79 82 85 80 77 84 87 83 80 81 77 75 75 76 77 78 78 78 78 77 77 76 77 77 77 77 76 76 76 76 76 77 77 77 77 77 77 76 76
64 63 53 53 61 71 75 81 80 76 78 83 80 79 77 86 84 83 83 81 81 76 75 76 78 78 77 78 77 77 76 76 76 76 77 77 76 76 76 76 76 77 77 77 77 76 76 76 75
60 55 53 57 62 67 75 82 79 79 80 81 85 76 77 82 86 86 85 83 80 80 77 76 76 77 78 77 77 76 76 76 76 76 76 76 76 76 76 76 76 76 76 76 76 76 76 75 75
64 58 53 58 60 63 77 79 81 82 82 89 89 75 72 82 87 83 81 77 78 78 77 75 76 75 75 75 77 76 76 76 76 75 76 76 76 76 76 75 75 76 76 75 75 75 75 75 74
72 53 50 58 63 67 77 75 85 88 85 84 86 84 88 91 90 84 82 80 78 78 75 75 74 75 74 74 76 76 77 76 76 76 76 74 71 71 72 73 74 76 75 75 75 75 74 74 74
62 54 56 67 71 67 73 76 78 80 79 80 84 86 90 89 84 82 80 80 74 79 74 73 74 74 74 77 74 74 73 73 72 72 72 70 68 67 71 72 75 75 75 75 75 75 74 74 66
63 60 67 70 73 75 73 75 80 77 74 78 79 83 87 87 83 80 83 82 82 81 78 75 74 74 73 75 73 72 72 71 71 70 69 69 68 67 67 66 68 70 73 69 71 69 68 66 65
61 68 70 71 75 74 72 77 76 77 77 83 83 84 84 83 80 80 80 82 82 81 77 76 75 73 72 75 73 73 71 70 70 69 68 67 65 64 64 64 65 65 65 65 64 63 64 64 66
63 67 71 73 73 74 76 73 74 75 81 85 84 84 82 80 79 78 80 80 81 78 76 76 75 74 73 74 73 72 71 71 70 69 68 67 66 65 65 65 64 64 63 63 62 63 63 63 65
63 65 68 72 71 73 72 73 76 78 83 84 84 81 81 79 79 79 78 77 77 79 76 75 75 74 74 75 73 72 72 71 70 69 69 69 68 66 65 65 64 64 63 63 63 63 63 63 63
65 58 64 67 69 70 75 68 69 79 82 80 81 82 80 79 79 79 79 78 79 76 78 72 74 74 74 75 74 73 72 71 71 70 70 70 69 67 67 65 65 64 63 63 63 63 62 62 63
56 56 53 64 68 70 69 59 73 79 78 77 80 83 83 80 82 85 80 76 75 76 76 73 78 74 74 75 74 74 73 72 72 71 70 71 71 69 66 64 63 64 63 63 62 62 62 61 61
51 48 51 57 67 67 67 62 72 78 78 73 74 77 80 82 82 76 78 78 77 76 76 72 71 72 73 74 72 73 71 72 71 69 69 70 70 70 67 65 64 64 63 62 62 61 60 60 60
44 48 53 53 62 66 64 63 71 75 76 75 77 79 79 80 80 80 80 78 75 73 74 71 71 70 71 69 68 67 68 67 67 67 67 69 70 70 66 65 64 63 62 62 60 61 60 60 60
55 53 52 57 64 62 62 63 67 72 72 69 71 73 77 78 80 78 75 77 75 72 71 69 68 67 70 70 70 69 66 67 64 64 67 67 67 68 66 64 63 63 62 62 60 60 60 59 60
52 49 49 56 63 62 61 61 68 71 72 73 74 74 74 75 72 75 75 75 74 74 71 67 68 69 71 73 74 67 69 65 67 66 68 67 67 67 65 64 62 62 61 61 59 59 57 58 59
51 49 50 50 58 62 58 55 59 66 68 70 70 73 70 70 71 72 74 73 68 70 68 67 68 69 69 69 69 66 66 65 65 63 63 65 67 67 65 63 62 62 61 60 59 59 58 56 56
45 57 56 54 51 44 59 44 57 63 66 69 70 69 70 75 71 72 74 68 67 66 66 67 68 68 69 71 69 71 64 63 63 64 63 64 66 66 66 64 63 62 60 60 59 60 58 57 55
50 59 56 55 50 49 51 43 55 59 61 65 68 70 68 70 72 72 72 68 65 66 66 68 68 68 67 67 69 68 64 63 62 62 63 63 63 65 66 64 63 61 60 60 60 60 59 58 56
60 55 54 53 46 37 49 47 47 55 61 62 66 69 73 72 71 69 65 66 65 65 67 68 67 66 66 67 66 65 64 62 61 60 61 60 61 62 64 64 62 61 60 60 60 60 60 58 58
51 41 33 30 33 36 52 47 52 57 63 67 69 71 73 69 64 62 63 64 64 65 66 66 67 64 65 65 65 64 63 62 62 61 60 60 60 60 61 62 61 60 61 61 61 60 59 59 59
45 42 33 26 29 37 53 42 49 65 71 74 75 74 66 61 61 61 62 63 64 65 65 65 66 64 65 64 63 63 64 63 62 61 60 60 60 60 61 62 61 62 63 63 62 60 60 60 59
44 41 48 40 45 36 44 51 58 66 68 71 71 65 61 60 60 62 62 63 64 63 64 65 64 63 64 64 63 62 62 62 61 61 61 60 60 62 62 62 62 63 64 63 62 60 61 60 60
48 52 39 37 30 28 40 44 47 57 62 66 66 62 60 60 62 62 63 63 63 63 63 63 63 64 63 63 63 64 63 63 62 62 61 61 60 62 62 62 63 63 64 63 62 60 62 62 61
42 41 43 42 39 35 31 40 56 58 63 66 62 63 62 62 62 62 63 64 64 65 64 62 63 63 63 63 63 63 63 63 62 61 61 61 61 62 62 63 64 64 62 62 61 62 63 62 62
47 43 41 33 35 41 39 44 66 62 66 66 64 65 63 64 63 64 64 65 65 64 63 62 62 64 64 64 63 62 63 62 61 61 61 62 62 62 63 65 66 66 63 62 62 63 63 62 62

GFSSGP_sfc_temp_027.txt.gz
Temp
73 72 72 72 60 56 51 58 67 71 71 78 78 78 73 74 73 64 75 79 76 73 75 77 78 78 78 78 78 77 77 77 77 77 77 77 77 77 77 76 77 77 77 77 77 77 77 77 77
73 75 72 66 55 46 51 63 67 73 76 78 79 77 74 73 80 77 78 77 76 74 74 75 78 78 78 78 77 77 77 77 77 77 77 77 77 77 77 76 77 77 77 77 77 77 77 77 77
76 78 66 60 54 51 54 66 69 77 79 79 79 82 79 76 81 79 77 76 74 73 74 74 78 78 78 78 77 77 77 77 77 77 77 77 77 77 76 76 77 77 77 77 77 77 77 77 77
74 69 66 56 54 59 63 67 73 74 78 79 80 76 80 85 85 85 78 77 74 73 74 75 78 78 78 78 77 77 77 77 77 77 77 77 77 76 76 76 76 77 77 77 77 77 77 77 77
70 64 54 52 56 63 69 73 74 74 76 77 80 76 76 82 84 79 78 78 75 73 73 75 78 78 78 78 77 77 77 76 76 77 77 77 76 76 76 76 76 77 77 77 77 77 77 77 76
63 62 50 52 58 67 72 73 74 73 76 76 76 75 73 81 81 79 79 76 78 74 73 74 78 77 77 78 77 77 76 76 76 76 77 77 76 76 76 76 76 76 77 77 77 77 76 75 75
60 55 52 54 59 64 72 73 74 76 77 76 76 74 74 79 81 79 77 76 76 77 74 74 75 76 78 77 77 76 76 76 76 76 76 76 76 76 76 76 76 76 76 76 76 76 76 75 75
62 58 49 55 58 61 75 74 76 77 78 86 83 72 70 81 85 82 76 74 70 73 74 73 74 74 75 75 77 76 76 76 75 75 75 76 76 75 75 74 75 76 76 76 75 75 75 75 75
65 51 48 55 59 64 73 73 82 83 78 80 82 78 85 87 83 79 77 74 73 74 72 72 73 73 74 73 75 76 77 76 76 75 75 74 70 71 72 73 74 76 75 75 75 75 75 74 74
58 49 54 63 68 65 70 70 75 79 76 77 78 84 87 86 80 79 76 75 71 73 73 72 72 73 73 75 73 73 72 73 72 72 71 69 67 67 70 72 75 75 75 75 75 75 75 74 65
59 56 65 68 70 71 71 70 75 74 70 74 75 78 83 82 80 78 77 76 78 79 76 74 73 72 72 74 72 72 71 70 70 69 67 66 67 67 67 65 67 68 73 69 71 69 67 66 64
56 63 67 68 71 70 69 74 72 73 74 79 79 81 79 82 79 78 78 80 78 75 76 75 73 72 72 73 72 73 71 70 69 69 67 67 65 64 64 64 64 65 66 66 65 64 64 64 64
58 62 65 68 69 70 73 70 70 71 77 81 81 81 78 77 77 77 77 77 77 74 74 74 73 72 72 71 72 72 71 71 70 68 68 67 65 65 63 63 63 63 63 64 63 62 62 62 63
59 63 64 66 66 68 67 69 72 74 79 78 80 77 79 78 77 76 74 74 73 76 74 72 71 72 72 71 72 72 71 71 69 68 68 67 65 65 64 64 64 63 62 63 62 62 61 61 62
60 55 61 63 60 63 69 64 65 75 78 76 78 77 77 76 77 76 77 76 78 78 76 70 72 72 70 71 72 72 71 70 69 68 67 68 66 64 65 64 63 64 63 62 62 62 61 60 61
53 53 49 61 64 65 67 56 68 73 74 73 75 78 78 77 76 77 76 74 77 73 73 70 76 71 70 71 72 72 71 70 69 69 67 68 67 67 65 65 65 63 62 61 61 61 60 61 61
48 43 46 54 64 64 64 58 68 73 73 72 74 74 74 76 74 74 76 78 78 77 73 70 68 69 70 71 71 71 68 68 69 68 67 68 68 67 65 64 63 63 62 61 61 60 60 58 59
42 44 48 47 57 63 60 59 67 69 70 69 69 72 73 74 76 80 81 79 74 71 71 68 68 68 68 66 65 65 66 66 67 67 67 68 68 67 65 64 63 62 61 61 60 60 59 59 59
49 47 45 53 60 59 58 58 63 67 68 69 71 73 74 74 75 76 76 75 71 69 68 67 66 64 67 66 66 65 65 65 65 66 67 67 67 66 65 63 62 62 61 61 60 59 58 58 59
49 45 44 51 58 55 55 55 62 65 66 68 68 68 69 71 73 75 72 71 69 71 68 67 66 64 67 69 69 65 65 63 64 65 66 67 68 67 65 63 62 62 61 60 59 61 56 57 59
46 44 46 46 53 57 52 51 55 62 64 68 70 70 69 67 69 71 71 70 69 68 67 66 65 65 66 65 65 64 65 64 62 62 63 65 66 65 65 63 62 61 60 59 59 58 57 55 55
41 52 52 50 46 39 53 39 53 60 62 63 66 67 65 68 70 67 71 69 67 67 66 65 65 65 66 67 65 68 66 66 61 64 62 62 65 65 64 63 62 61 59 59 58 59 57 56 54
45 53 51 50 45 41 44 38 51 56 56 62 66 66 69 70 67 69 70 69 67 66 64 65 66 66 65 65 68 67 64 62 64 64 62 61 62 64 64 63 62 60 59 59 59 58 57 56 56
56 50 48 47 42 31 44 41 46 52 56 58 62 64 67 67 67 67 66 64 60 64 65 66 66 65 65 66 65 66 64 62 61 60 60 60 60 60 62 63 61 60 59 59 59 59 58 57 57
49 38 28 27 29 32 47 43 48 53 58 60 61 64 66 66 66 63 56 59 62 65 64 65 65 62 63 64 64 64 63 62 61 61 60 59 58 59 60 61 60 59 60 60 59 59 59 58 57
42 39 29 25 28 33 49 39 47 58 63 67 69 68 64 64 60 58 59 60 63 64 63 64 64 62 62 63 62 61 61 60 60 60 60 59 59 60 60 60 60 60 61 60 60 59 59 59 58
41 36 46 36 38 33 38 45 55 61 65 63 63 64 63 61 57 58 60 62 63 62 62 63 63 62 62 61 61 60 61 61 60 60 60 59 59 61 60 61 61 61 61 61 61 60 60 60 60
46 49 36 32 28 26 35 39 44 51 59 58 60 61 59 56 57 59 61 61 61 61 61 62 64 62 62 61 62 62 60 61 60 60 60 60 59 60 60 60 61 61 62 62 61 59 60 60 60
42 38 40 40 35 28 29 35 51 55 56 58 62 63 56 56 58 60 60 61 61 61 61 62 63 62 61 62 61 61 60 61 60 60 60 59 59 60 61 62 62 62 61 61 59 60 62 62 62
46 40 40 31 33 35 35 38 61 55 58 61 64 60 56 58 59 60 60 61 61 61 62 61 62 63 62 63 62 60 60 60 59 60 60 60 60 60 61 62 63 64 62 61 60 61 62 62 61

GFSSGP_sfc_temp_030.txt.gz
Temp
71 70 69 69 57 52 49 56 62 65 68 73 75 74 74 72 71 63 73 76 74 74 75 77 78 78 79 78 78 78 77 77 77 77 77 77 77 78 77 77 77 78 78 78 78 77 77 77 77
71 73 70 64 54 48 53 60 64 68 72 77 75 73 72 73 78 76 76 75 74 74 74 75 78 78 78 78 78 77 77 77 77 77 77 77 77 77 77 77 77 78 78 78 78 77 77 77 77
75 76 64 59 52 48 54 64 68 71 76 76 73 78 75 75 79 78 76 75 72 72 74 74 78 78 78 78 78 77 77 77 77 77 77 77 77 77 77 77 77 77 78 78 78 77 77 77 77
72 68 64 53 52 58 59 65 69 71 76 77 77 74 77 81 81 82 76 75 73 72 74 76 78 78 78 78 78 77 77 77 77 77 77 77 77 77 76 77 77 77 78 78 78 77 77 77 77
68 62 52 49 55 62 63 68 67 69 70 75 78 73 73 81 80 78 76 76 73 71 73 74 77 78 78 78 78 77 77 77 77 77 77 77 77 76 76 77 77 77 77 77 77 77 77 77 77
62 60 47 50 56 64 66 70 70 69 72 75 75 74 73 79 79 75 75 72 74 72 71 72 78 77 77 78 77 77 77 77 77 77 77 77 76 76 76 76 76 77 77 77 77 77 76 76 75
57 52 50 53 57 62 67 71 70 71 71 74 75 71 74 77 78 76 75 73 73 73 71 71 74 77 78 77 77 77 76 76 76 76 76 76 76 76 76 76 76 76 76 76 76 76 76 75 75
60 55 47 54 57 60 70 71 72 72 74 82 83 70 68 80 80 76 74 71 69 71 72 69 71 74 75 75 77 77 76 76 75 75 76 76 76 75 75 75 75 76 76 76 76 75 75 75 75
63 50 47 54 58 63 69 64 75 79 76 77 79 78 81 82 79 76 73 72 71 73 69 69 70 71 72 73 75 76 77 76 75 75 75 74 72 72 73 74 74 76 76 75 75 75 75 75 75
58 48 52 62 66 65 68 66 70 72 71 73 74 80 84 84 77 76 74 75 71 71 71 70 70 71 71 74 72 73 72 73 72 72 72 71 69 69 71 73 75 75 75 75 75 75 75 75 70
57 55 63 64 69 69 69 68 72 68 65 71 71 74 78 79 76 75 74 75 75 75 73 72 71 71 70 73 71 72 71 70 70 70 69 69 69 69 71 68 70 69 73 71 73 72 71 69 68
52 61 66 66 69 69 67 70 68 70 69 75 75 76 74 76 74 74 74 75 75 74 77 73 72 70 70 73 71 72 70 70 69 69 68 67 67 66 67 66 66 66 68 69 69 68 68 68 67
57 59 63 68 69 68 71 67 67 69 74 76 78 78 75 73 74 74 75 75 74 73 75 71 69 70 70 70 71 70 71 71 70 68 68 68 67 65 65 66 65 65 66 67 67 66 66 66 66
57 60 61 64 64 66 65 66 65 68 74 74 76 74 75 73 74 74 72 72 71 71 72 73 69 70 70 69 71 70 71 70 68 68 68 69 66 65 65 65 64 64 65 66 66 65 64 65 65
59 53 56 58 59 61 66 60 62 72 74 73 74 76 76 76 76 74 77 72 73 74 72 69 71 70 69 69 70 70 70 70 68 69 68 68 66 65 65 64 63 64 64 65 64 64 64 64 65
51 51 48 60 59 62 65 55 68 72 72 71 74 74 75 74 73 74 73 71 72 71 70 69 72 68 69 69 70 70 70 69 69 69 68 68 67 66 65 63 64 64 64 64 63 63 63 63 62
45 45 43 50 60 62 62 57 64 70 69 67 68 69 71 72 71 70 72 72 72 70 69 68 66 67 68 69 69 69 68 68 68 67 67 67 67 67 65 64 64 64 63 63 63 62 63 62 62
40 39 45 46 54 60 56 57 64 67 68 68 66 68 68 67 68 72 73 74 72 70 67 66 65 66 67 66 65 64 65 66 66 66 66 67 67 67 65 65 65 64 63 63 62 62 62 62 62
47 44 42 48 55 54 54 56 60 63 62 65 67 69 70 72 76 71 71 71 70 67 66 64 63 63 66 64 63 63 65 64 65 66 67 67 67 66 66 66 65 64 63 63 62 62 62 60 62
45 41 41 48 54 51 50 50 55 58 60 63 65 66 65 66 65 69 69 69 66 68 66 64 62 62 66 67 64 65 64 65 65 66 66 67 67 67 66 66 64 64 62 62 62 62 60 60 61
43 42 42 43 51 54 49 48 53 57 60 64 66 66 67 67 64 69 71 67 68 65 66 66 62 62 64 64 64 62 63 62 62 63 64 66 68 68 67 65 64 63 63 62 61 61 60 59 59
38 48 48 47 43 37 48 35 49 55 57 60 62 64 65 63 66 67 67 67 69 69 65 63 62 63 64 65 64 64 62 61 62 63 64 64 66 66 65 65 64 63 62 61 61 61 60 59 57
43 51 48 46 42 37 41 35 48 52 52 55 61 65 67 66 64 64 68 69 67 64 62 62 63 64 64 65 66 65 62 61 64 64 64 62 64 65 65 64 64 63 62 61 61 60 59 59 58
53 47 45 42 38 29 40 39 42 49 54 54 60 61 64 64 63 63 64 63 61 62 64 65 64 62 64 65 64 64 63 63 62 62 62 62 61 63 64 65 64 63 61 61 61 61 60 60 59
45 36 25 24 25 29 43 39 46 50 55 55 57 60 61 61 61 61 60 59 62 65 66 65 63 62 62 63 64 64 63 63 63 63 61 60 60 60 62 63 62 61 62 62 61 61 61 60 59
39 37 27 24 25 30 45 35 43 55 60 61 60 61 61 61 60 59 58 60 66 65 65 63 62 61 62 63 62 63 64 64 64 62 62 61 60 61 62 62 62 62 63 62 62 61 61 61 60
40 34 42 33 35 29 35 41 51 59 58 59 59 61 60 60 58 57 60 64 64 63 62 62 62 61 62 61 62 62 62 62 61 60 61 61 61 62 62 63 62 62 63 63 62 61 61 61 61
43 46 33 30 26 25 32 36 40 49 50 56 57 57 59 58 56 60 62 63 60 60 61 61 62 62 61 62 62 62 61 62 61 62 61 61 61 62 62 62 62 63 64 64 63 62 62 61 61
40 36 37 35 31 27 27 33 46 52 54 54 55 60 59 54 59 61 61 62 59 60 61 61 62 61 61 62 62 62 61 62 61 61 61 61 61 61 62 63 64 64 64 63 62 62 63 61 61
40 37 38 30 31 33 30 33 52 52 53 53 57 56 54 55 60 61 61 61 60 60 61 61 61 62 62 62 62 62 61 61 60 60 61 61 61 62 63 64 65 65 65 64 63 62 62 62 60

GFSSGP_sfc_temp_033.txt.gz
Temp
76 78 81 81 71 69 66 69 74 76 78 85 86 84 85 88 83 78 87 88 88 86 85 82 79 79 79 79 79 78 78 78 78 78 78 78 78 78 78 77 77 78 79 79 79 78 78 78 78
79 78 81 76 67 63 69 73 71 80 84 87 86 84 84 84 91 91 91 86 87 85 84 85 79 79 79 79 78 78 78 78 78 78 78 78 77 78 78 77 78 79 79 79 78 78 78 77 77
81 81 76 72 66 63 69 73 79 80 83 82 84 88 87 87 90 92 91 86 85 84 84 84 78 78 79 79 78 77 77 77 78 78 78 78 77 77 77 77 78 79 79 79 78 78 78 77 77
80 80 76 65 63 68 70 76 77 79 85 85 86 83 89 91 92 96 89 88 86 85 85 82 78 78 78 79 78 77 77 77 77 78 78 77 77 77 77 77 77 78 79 78 78 78 77 77 77
78 75 67 61 63 68 75 77 80 80 81 84 85 83 85 91 90 89 89 88 88 86 85 85 78 78 78 79 78 77 77 77 77 77 77 77 77 77 76 77 77 78 78 78 78 77 77 77 77
70 72 61 60 63 70 77 81 81 82 85 84 83 83 86 92 92 88 90 90 91 86 84 85 79 78 78 78 78 77 77 77 77 77 77 77 77 76 76 77 77 77 77 77 77 77 77 76 76
70 66 63 63 64 68 76 84 81 83 82 84 88 82 88 91 91 90 89 89 87 87 84 84 86 81 78 77 77 77 76 76 76 76 76 77 76 76 76 76 76 77 77 77 77 77 76 76 75
73 70 63 64 63 66 78 81 84 84 83 90 90 81 83 90 89 89 90 88 87 86 86 84 83 84 84 83 77 77 76 76 76 76 76 76 76 76 76 75 75 76 76 76 76 76 76 75 75
73 64 61 63 63 69 76 76 84 86 84 86 89 89 91 89 89 89 88 89 88 86 83 82 82 82 82 85 82 77 77 76 76 77 76 76 81 81 80 78 76 76 76 76 76 75 75 75 75
69 63 64 71 72 71 77 77 79 80 79 81 84 89 90 92 92 91 90 91 89 87 86 85 79 81 82 83 82 81 82 82 81 81 80 80 80 80 79 79 75 75 76 76 75 75 75 76 83
69 63 70 72 74 75 76 76 80 77 75 82 81 81 87 89 90 88 92 92 92 93 89 86 80 79 81 82 82 82 83 82 81 80 79 80 79 79 80 81 80 80 77 81 80 80 81 81 81
63 69 71 73 73 73 72 78 76 78 79 83 83 83 84 84 86 88 89 91 91 89 90 89 83 79 79 84 82 82 83 81 81 81 78 79 78 77 79 80 81 78 81 80 80 81 80 79 79
63 69 71 73 73 73 74 72 74 76 81 84 83 83 83 83 83 87 88 88 87 87 90 88 85 80 79 78 82 80 81 81 82 81 79 79 79 76 78 78 79 78 78 80 79 80 78 78 78
70 69 69 71 70 71 69 71 74 76 81 80 81 81 83 83 84 86 86 86 86 86 86 88 84 81 79 78 78 79 79 81 80 81 80 77 79 77 77 77 76 73 75 79 78 78 78 78 78
66 61 66 67 69 68 70 65 67 75 77 76 77 79 81 84 86 84 86 86 86 87 85 82 82 82 78 77 78 79 80 80 80 80 78 77 76 75 75 77 75 73 72 73 73 73 75 75 77
59 61 55 66 66 69 67 59 74 80 78 76 78 80 81 84 85 87 87 84 84 83 83 83 86 82 79 79 79 80 81 80 81 80 79 76 75 75 75 75 75 74 70 70 70 73 73 75 76
57 52 55 60 69 67 65 62 73 79 78 76 78 79 80 81 83 82 83 84 83 83 81 82 80 80 79 79 79 78 77 78 80 79 78 75 74 74 76 74 72 74 73 70 72 73 73 74 75
48 49 55 56 64 65 63 63 71 76 74 74 76 77 79 80 81 82 83 84 83 81 80 78 80 77 78 79 77 79 79 78 79 78 77 75 74 75 75 72 72 75 74 74 72 72 74 75 73
55 52 53 59 64 63 61 63 67 72 72 72 74 75 76 77 82 84 82 83 83 81 79 79 78 77 76 77 76 76 76 76 75 76 74 75 75 75 74 73 72 74 74 73 72 72 72 72 68
52 50 50 55 60 59 61 59 65 67 68 71 71 73 74 77 79 80 81 81 80 79 79 79 78 76 75 77 77 78 78 74 74 74 75 75 75 74 74 72 71 70 75 73 72 72 67 66 66
51 48 50 50 56 60 57 54 59 67 69 70 73 74 75 75 75 77 79 79 80 79 78 79 79 75 75 77 76 75 74 70 71 70 69 72 74 74 73 73 73 74 75 74 71 70 66 68 64
45 55 54 52 50 45 57 45 58 63 64 67 69 71 73 75 77 77 79 79 79 79 81 78 77 74 75 74 75 73 77 72 74 70 71 70 74 74 74 73 74 74 69 67 69 72 67 68 68
48 56 53 52 50 49 51 46 54 63 61 66 69 71 73 75 77 77 79 80 80 80 77 75 75 74 74 74 76 76 76 77 76 75 71 71 73 75 75 75 74 73 69 69 72 70 69 71 71
57 53 52 52 49 39 48 47 51 58 62 66 70 74 75 76 76 77 78 77 76 77 76 75 74 73 73 74 74 75 73 73 74 73 73 73 75 75 75 75 75 73 71 72 72 71 70 69 68
52 47 38 35 36 36 51 46 51 62 65 67 68 72 75 76 76 76 77 77 77 75 74 71 73 72 73 74 74 74 73 73 72 73 74 70 73 74 72 73 72 73 73 72 72 70 70 69 68
49 47 39 30 34 39 50 42 53 64 69 69 71 72 74 74 77 75 75 75 75 73 70 69 73 72 73 74 73 74 74 76 76 76 71 75 76 75 73 73 73 73 73 72 72 72 72 70 68
48 43 53 42 45 42 46 52 60 64 66 69 71 72 72 73 73 73 73 72 73 69 68 73 73 73 74 73 73 73 74 75 74 72 73 75 74 74 73 73 72 73 73 72 71 72 71 70 64
49 55 41 44 33 33 44 46 51 58 63 65 67 68 70 71 70 69 69 69 67 68 72 73 74 73 73 74 75 75 74 74 73 73 72 73 73 74 73 72 72 72 72 72 71 71 71 69 63
42 41 48 48 46 38 39 47 59 59 61 62 66 68 68 67 67 65 65 66 67 72 73 72 73 73 73 74 73 73 73 73 74 73 73 73 72 72 73 73 73 73 72 72 70 71 71 65 63
48 44 46 40 40 45 43 45 62 61 63 63 66 68 70 63 63 64 64 66 69 73 73 73 73 74 74 75 74 73 73 73 72 72 73 73 72 73 74 74 74 74 73 72 72 71 67 62 61

GFSSGP_sfc_temp_036.txt.gz
Temp
80 90 95 90 77 79 78 80 88 84 84 92 93 91 92 97 91 86 101 105 105 100 94 86 79 79 79 79 79 79 78 78 78 78 78 78 78 78 78 78 78 79 79 79 79 79 79 79 79
92 90 91 91 74 73 78 87 83 89 91 92 92 92 91 90 102 100 101 100 102 99 93 91 79 79 79 79 78 78 78 78 78 78 78 78 78 78 78 78 78 79 79 79 79 79 79 78 78
89 92 87 82 78 74 80 86 89 90 93 91 89 95 92 91 100 102 106 100 101 96 93 92 79 79 79 79 78 78 78 78 78 78 78 78 78 77 77 78 78 79 79 79 79 79 78 78 78
89 89 88 75 75 82 84 85 88 87 92 93 93 87 95 98 99 107 103 102 99 97 96 88 79 79 79 79 79 78 78 78 78 78 78 78 78 77 77 77 78 79 79 79 79 78 78 78 78
89 86 75 73 76 84 87 89 87 86 90 92 94 89 92 99 101 105 102 102 101 99 98 94 79 79 79 79 79 78 78 78 78 78 78 78 77 77 77 77 78 78 79 79 79 78 77 77 77
81 84 69 68 73 81 87 91 90 89 90 92 91 92 95 102 101 104 106 106 108 102 98 97 80 78 78 79 78 78 77 77 77 77 78 77 77 77 77 77 77 78 78 78 78 78 77 77 77
77 77 72 75 75 77 84 93 89 90 91 92 98 90 97 100 105 105 106 107 106 105 99 98 93 84 78 78 77 77 77 77 77 77 77 77 77 77 76 76 77 77 77 77 77 77 77 77 76
81 80 73 77 74 74 86 88 94 92 91 97 97 90 91 100 102 105 107 106 105 104 102 99 95 93 89 89 77 77 77 77 76 76 76 76 77 76 76 75 76 77 77 77 77 77 77 76 76
85 72 71 75 75 75 83 84 94 95 92 93 95 95 96 100 101 102 101 103 104 102 99 98 97 94 93 96 89 78 77 77 76 77 76 77 85 84 84 80 78 76 76 76 76 76 76 76 76
76 72 75 83 83 76 81 86 89 87 89 89 91 95 97 98 99 100 100 101 102 102 102 100 92 93 93 95 93 87 88 86 84 85 84 83 85 86 87 83 77 76 76 76 76 76 76 76 89
76 71 81 83 84 82 80 85 91 86 84 91 90 92 94 95 96 97 100 103 103 103 104 102 94 89 90 92 93 92 90 89 87 85 85 84 86 87 86 88 84 83 78 84 81 81 84 86 88
71 78 79 81 83 77 76 84 84 87 88 95 93 93 93 92 95 97 98 100 102 101 100 100 96 88 86 93 92 93 92 91 89 88 85 85 85 85 85 87 87 84 87 85 87 87 86 86 85
73 76 80 82 81 79 79 77 81 85 91 95 95 93 91 92 92 94 96 98 99 98 99 100 98 91 87 85 92 91 92 92 91 91 87 86 86 84 85 86 88 87 89 87 86 86 85 82 84
77 76 77 79 79 79 76 78 81 85 91 90 89 89 92 93 94 93 94 94 94 97 98 99 97 93 89 86 86 90 89 91 91 91 89 84 86 85 85 84 85 87 88 88 86 86 82 82 86
73 68 73 76 78 75 77 70 74 84 88 87 87 88 90 92 94 93 94 93 95 97 97 94 94 93 88 86 87 89 92 90 91 90 87 86 83 84 82 84 85 86 86 83 84 82 82 82 85
65 67 61 73 75 77 72 62 79 86 85 84 85 88 89 91 93 95 96 95 94 94 93 94 97 96 89 88 89 90 92 92 91 91 89 85 82 83 81 85 85 86 85 84 82 81 79 83 83
64 57 63 66 77 75 70 65 76 84 85 84 86 88 89 91 93 94 94 94 93 92 91 92 93 93 89 88 89 89 88 88 90 90 89 86 82 81 82 83 85 83 84 82 81 81 82 81 76
57 60 62 63 73 74 70 68 75 82 82 83 86 87 88 90 90 94 94 93 92 91 90 89 90 90 87 88 87 90 90 88 88 89 88 85 83 81 80 83 83 81 82 78 80 79 81 78 78
62 61 61 66 72 70 69 68 72 79 79 80 82 84 85 87 91 92 92 92 91 89 88 88 88 86 85 88 87 87 87 87 86 87 84 83 82 81 79 83 80 79 81 78 77 79 77 75 77
59 56 57 64 66 68 67 66 73 76 78 80 80 81 83 85 87 89 90 90 88 87 87 87 87 87 84 88 86 90 88 89 88 86 80 82 81 80 79 80 80 78 81 77 78 77 74 75 77
55 53 55 57 64 66 64 61 66 74 77 79 80 81 82 82 83 85 87 88 89 88 87 87 86 86 84 85 86 84 85 84 82 79 78 78 79 77 77 77 80 78 81 80 77 76 75 75 74
50 60 59 57 55 50 64 49 63 69 71 75 78 79 81 83 85 86 86 86 87 89 90 89 86 85 85 83 85 81 83 81 83 81 75 74 76 76 76 79 80 78 82 78 79 79 77 74 71
53 61 58 58 55 54 56 53 61 69 67 72 76 79 81 83 85 86 88 89 91 91 89 88 85 84 84 83 84 83 83 86 84 82 70 73 75 76 81 80 80 79 82 79 79 78 75 75 77
61 56 55 55 52 43 54 54 57 63 68 73 78 81 82 84 86 88 89 89 88 90 88 86 83 82 83 82 81 81 82 83 83 79 72 76 77 79 80 82 80 79 80 78 79 77 75 76 77
57 49 38 36 39 39 56 53 57 68 73 74 75 79 82 84 85 86 87 88 88 86 87 86 84 82 82 82 81 82 81 80 79 79 81 80 78 79 78 79 79 80 79 79 78 75 76 75 75
52 48 40 31 37 44 55 47 58 71 75 77 79 80 81 82 85 86 87 87 88 87 86 84 83 82 82 82 81 82 81 84 83 84 82 83 83 82 79 80 80 80 79 78 77 79 78 76 75
50 42 55 45 48 45 54 57 65 71 72 74 76 77 79 80 82 83 85 86 86 84 79 81 82 81 81 81 81 80 83 82 82 79 80 83 82 81 80 80 79 79 78 78 77 79 76 76 73
52 56 34 46 32 35 49 53 55 64 66 73 73 74 76 78 79 81 82 83 81 78 82 82 82 81 81 81 82 82 81 81 80 80 80 80 80 81 79 79 78 78 78 78 76 77 76 73 71
48 44 45 46 47 39 44 52 68 67 70 70 72 74 76 77 75 76 78 74 73 82 82 81 81 81 81 82 81 81 81 80 81 80 80 79 79 79 79 79 79 78 77 77 74 74 75 72 68
46 42 39 34 40 49 45 52 70 68 70 69 71 75 78 78 67 68 68 70 81 82 82 81 81 82 82 82 81 80 80 80 79 79 79 80 79 80 80 80 80 80 79 78 77 75 76 64 62

GFSSGP_sfc_temp_039.txt.gz
Temp
82 92 98 95 80 82 79 84 96 92 94 99 98 96 94 99 94 85 109 112 110 107 93 87 79 80 80 80 79 78 78 78 79 79 78 78 78 78 78 78 78 79 80 80 80 80 80 80 79
96 97 96 90 76 75 80 91 90 93 98 99 98 96 92 92 102 98 103 108 108 104 93 92 79 79 80 79 79 78 78 78 78 78 78 78 78 78 78 78 78 79 80 80 80 80 79 79 79
92 98 87 83 79 75 82 93 93 98 98 96 95 100 98 97 104 105 107 106 107 101 95 93 79 79 79 79 79 78 78 78 78 78 78 78 78 78 78 78 78 79 80 80 80 79 79 79 78
92 92 89 78 76 84 88 93 96 95 96 99 98 91 100 104 103 107 104 105 102 100 98 87 79 79 79 79 79 78 78 78 78 78 78 78 78 78 77 78 78 79 80 80 79 79 78 78 78
94 90 78 77 76 85 93 96 93 92 94 96 98 92 95 103 107 104 104 107 105 104 101 92 78 79 79 79 78 78 78 78 78 78 78 78 77 77 77 78 78 79 79 79 79 79 78 78 78
82 83 70 73 79 87 92 96 94 93 95 97 96 95 97 106 104 108 109 109 110 106 103 96 80 78 78 79 78 78 77 77 77 78 78 78 77 77 77 77 78 78 79 79 79 78 78 77 77
79 80 75 78 79 83 89 97 93 94 94 95 101 91 99 100 106 108 110 112 112 110 105 100 90 83 78 78 78 77 77 77 77 77 77 77 77 77 77 77 77 77 78 78 78 78 77 77 77
84 81 75 80 77 79 92 94 96 92 93 105 103 92 93 103 108 111 112 112 112 111 108 106 94 90 88 87 78 77 77 77 76 76 76 77 77 77 76 76 76 77 77 77 77 77 77 77 77
90 74 71 76 78 80 92 89 97 101 97 99 100 99 100 107 109 109 108 110 110 109 107 106 101 94 91 94 88 78 77 77 76 77 76 76 84 83 83 80 78 76 76 76 76 77 76 76 76
79 74 75 85 87 85 89 89 91 93 92 93 96 99 101 105 105 104 104 104 105 106 106 106 99 98 96 98 94 86 86 84 83 84 83 82 84 86 87 83 78 76 76 76 76 76 76 76 86
80 73 81 86 89 90 86 87 93 91 88 93 92 96 99 101 102 103 104 106 106 107 108 107 98 95 97 97 98 93 90 88 86 84 84 83 85 86 88 88 84 82 78 82 80 80 81 83 83
76 81 82 84 87 88 83 86 85 90 92 99 101 99 99 98 99 101 102 105 106 106 106 106 103 93 92 98 97 97 95 92 90 88 85 84 85 85 86 88 87 83 85 83 85 85 83 83 86
77 80 83 85 85 86 87 80 82 86 94 100 101 99 96 96 97 99 101 101 102 101 102 103 102 95 90 88 95 94 95 95 93 92 88 87 87 84 86 87 89 87 87 85 86 88 86 86 86
81 81 81 84 84 85 81 81 82 86 92 94 95 96 97 98 98 98 98 96 98 100 101 103 102 95 91 88 87 91 91 95 95 95 93 86 87 85 88 85 87 89 89 90 87 87 86 87 86
78 72 77 80 82 81 83 74 74 85 90 90 92 95 95 96 97 97 99 97 99 99 99 98 99 97 89 88 89 90 94 94 95 95 92 89 85 85 84 87 86 88 88 86 87 86 87 84 85
69 71 65 76 79 80 78 68 79 86 85 86 89 92 94 95 97 98 98 97 98 98 97 98 100 98 90 89 90 92 95 95 96 95 95 90 86 85 85 87 86 88 87 88 86 85 84 83 83
66 59 65 70 80 79 76 70 80 85 84 84 87 90 92 93 96 97 99 99 98 97 95 94 94 95 94 91 92 91 90 93 96 96 95 91 88 85 84 86 87 85 87 87 85 84 81 80 82
60 63 66 65 75 79 74 73 79 83 83 81 84 88 91 92 94 98 99 99 97 95 93 92 93 93 93 93 91 92 94 94 94 94 94 91 88 85 82 86 84 85 86 85 85 80 81 81 83
65 63 62 69 78 75 72 74 77 82 81 80 83 87 89 90 96 98 99 98 97 94 91 90 89 88 90 91 90 91 92 92 92 92 91 90 87 83 80 84 84 84 83 82 81 80 78 81 81
62 59 60 66 72 72 69 69 76 80 81 81 81 84 87 89 92 94 95 95 93 92 90 89 88 87 88 91 88 92 94 95 93 92 89 87 86 84 83 81 84 81 82 80 79 78 80 79 78
60 57 57 58 66 69 67 63 68 78 81 83 83 84 87 87 88 90 92 92 93 92 90 88 88 87 88 87 89 89 90 90 90 89 86 85 84 83 79 79 83 81 81 81 79 78 77 74 77
54 63 62 59 57 51 66 52 64 71 74 78 81 83 83 85 88 88 88 89 90 92 93 91 89 88 88 87 86 85 85 85 88 87 86 81 81 79 78 77 80 77 82 80 79 81 76 76 76
57 64 61 60 57 56 57 54 61 71 70 74 78 82 84 85 85 86 89 91 93 94 92 91 90 88 87 85 85 88 84 88 88 87 79 75 75 76 77 77 78 79 82 82 79 77 77 78 78
65 60 60 59 56 46 54 55 57 64 69 75 81 84 85 87 88 89 90 92 92 94 94 92 88 86 86 86 84 84 83 86 85 82 73 72 73 75 77 78 80 80 80 79 78 79 78 77 78
60 53 43 41 42 42 56 52 56 68 74 77 79 83 86 88 89 89 90 90 90 91 92 91 89 85 86 85 85 84 85 85 82 75 74 74 74 76 76 78 80 80 80 81 81 78 77 76 77
53 53 44 33 36 42 55 46 56 71 77 81 81 82 84 86 88 88 89 90 92 91 90 89 88 85 85 84 84 84 85 87 85 81 83 81 79 79 80 80 81 81 81 81 79 78 79 78 76
53 48 55 44 46 39 45 51 63 71 74 77 78 81 82 84 86 87 89 90 91 92 90 89 87 86 85 85 84 83 83 85 85 83 82 79 80 82 80 81 81 82 81 80 77 79 77 77 73
56 57 38 46 35 33 45 49 52 63 67 75 77 78 79 82 83 85 87 89 90 91 87 86 87 85 85 85 84 82 83 84 82 81 81 81 80 83 81 81 81 80 80 80 78 78 76 73 71
50 45 52 44 43 38 38 44 64 66 71 72 77 77 79 81 79 81 85 87 85 86 87 84 85 84 80 80 80 77 79 80 80 82 82 81 81 81 82 81 81 81 80 79 77 76 76 74 71
58 50 49 38 34 44 45 46 64 63 78 76 75 76 81 82 76 74 74 76 84 87 87 85 84 83 83 78 78 77 78 82 81 81 81 82 81 83 83 82 81 81 81 78 76 76 77 72 69

GFSSGP_sfc_temp_042.txt.gz
Temp
79 87 92 91 75 76 72 78 90 89 93 101 102 96 94 94 84 78 103 104 97 88 83 82 79 80 80 79 79 78 78 78 79 79 78 78 78 78 78 78 78 79 80 80 80 80 80 80 79
90 92 91 85 70 67 72 86 86 93 99 101 98 96 94 91 98 99 99 101 94 87 81 82 79 79 79 79 78 78 78 78 78 78 78 78 78 78 78 78 78 79 80 80 80 80 80 79 79
85 92 83 77 72 67 73 89 92 97 100 97 94 100 97 94 99 99 102 99 93 87 83 82 79 79 79 79 78 78 78 78 78 78 78 78 78 78 78 78 78 79 80 80 80 80 79 79 78
89 89 85 71 70 79 81 88 95 95 97 99 98 92 101 103 102 101 103 100 92 89 89 80 78 79 79 79 78 78 78 78 78 78 78 78 78 77 77 77 78 79 80 80 80 79 78 78 78
86 83 73 71 73 80 87 93 96 92 94 95 97 92 94 103 105 102 102 100 96 93 91 81 78 78 79 79 78 78 78 77 77 78 78 78 77 77 77 77 78 78 79 79 79 78 78 78 78
77 79 66 66 74 82 88 93 94 93 94 95 95 94 96 106 101 102 104 101 101 96 92 84 79 78 78 78 78 78 77 77 77 77 78 77 77 77 77 77 77 78 78 79 78 78 77 77 77
75 73 68 72 73 76 85 96 92 92 92 92 99 91 98 101 104 104 103 104 104 102 93 85 82 79 78 78 77 77 77 76 76 76 76 77 76 76 76 76 77 77 77 78 78 77 77 76 76
81 76 68 71 71 75 88 92 95 93 91 102 102 90 91 99 105 105 105 105 105 103 97 89 84 83 81 81 77 77 76 76 76 76 76 76 76 76 76 75 76 77 77 77 77 77 76 76 76
86 71 67 70 72 76 88 86 95 100 94 97 100 100 99 105 104 103 103 105 105 104 99 93 88 83 83 85 81 77 77 77 76 76 76 75 76 76 78 77 77 76 76 76 76 76 76 76 76
72 68 70 79 82 81 86 88 90 90 91 92 96 102 102 102 99 99 100 101 103 102 101 99 86 85 85 91 83 78 79 78 77 77 76 75 75 75 79 78 77 76 76 76 76 76 76 76 76
74 67 76 80 85 87 85 87 92 87 84 92 92 96 99 100 96 100 101 103 103 103 101 100 88 85 86 88 84 81 81 79 78 77 76 75 76 76 78 78 77 75 76 75 76 75 75 75 76
71 77 78 80 84 84 82 88 86 87 87 95 97 100 99 98 97 99 100 102 103 101 93 86 90 87 86 90 88 84 84 81 80 78 76 75 75 75 75 79 77 74 76 74 75 75 75 75 77
73 77 80 83 84 83 84 82 83 84 90 93 96 98 96 96 96 96 96 96 96 97 96 95 90 86 84 85 87 86 86 84 82 80 78 78 77 75 77 77 79 76 77 75 75 76 76 76 77
77 77 79 82 82 83 80 81 83 86 90 89 91 92 95 93 93 96 96 95 94 94 96 97 89 85 85 84 83 84 82 83 83 82 81 78 78 77 78 77 77 77 78 78 76 77 77 77 78
75 68 73 76 79 79 83 75 77 86 88 87 89 91 93 92 94 94 94 92 94 93 94 92 93 87 83 82 82 81 83 85 83 85 82 80 78 78 77 78 78 79 77 76 76 76 77 76 78
66 67 61 73 76 79 77 66 79 85 84 82 85 87 90 93 96 97 95 92 92 92 92 91 96 87 83 81 81 82 83 83 85 85 85 82 79 79 78 79 78 79 77 77 77 76 75 75 75
64 55 60 66 77 76 75 68 78 84 82 80 82 84 87 89 91 92 95 94 90 87 86 87 89 89 83 82 82 82 82 83 84 85 87 84 81 80 79 80 79 77 78 77 76 75 74 73 73
57 60 64 62 71 74 72 71 78 82 81 80 82 83 85 87 89 93 92 93 92 89 87 86 87 87 86 82 80 82 82 83 84 85 84 84 83 81 79 80 78 78 78 76 75 73 74 73 72
64 62 60 66 72 69 68 72 76 81 80 79 81 82 82 84 89 93 93 92 91 86 84 82 82 82 83 82 80 80 81 81 83 83 84 84 82 81 78 78 78 78 76 75 74 74 72 71 72
61 58 57 63 68 67 65 65 72 78 80 81 81 80 82 85 87 88 89 90 87 84 82 81 81 80 81 82 79 80 81 84 85 84 83 84 82 81 79 77 77 76 76 74 75 73 70 70 72
60 57 57 57 63 66 62 59 66 74 78 80 81 84 84 82 82 85 88 88 88 85 82 82 80 79 80 79 80 79 80 81 82 82 81 81 82 80 78 76 77 76 76 75 73 72 70 69 70
53 64 62 59 55 48 62 47 60 67 71 75 77 80 83 83 84 84 86 86 86 87 88 85 81 79 80 80 80 76 79 78 80 81 81 80 80 80 78 76 77 76 77 74 73 73 71 70 67
57 64 60 59 55 53 54 49 56 65 65 71 76 80 82 83 84 84 84 84 86 86 83 81 81 80 80 79 79 79 78 80 82 81 78 77 77 77 78 75 76 74 75 74 73 72 71 70 67
62 57 57 57 54 43 51 51 52 59 64 70 76 81 82 84 85 86 87 84 82 85 87 83 80 78 79 81 79 78 78 78 80 78 75 74 73 72 73 74 74 74 75 75 73 73 71 69 68
57 51 39 39 40 40 55 51 55 64 69 72 74 79 82 83 85 85 86 86 84 85 85 85 81 78 80 79 79 78 78 78 79 74 73 71 70 71 72 73 73 74 74 75 73 71 71 70 69
51 39 33 29 34 41 54 44 52 66 69 74 76 77 82 82 85 86 86 86 89 86 84 83 81 79 79 78 78 79 79 79 77 75 74 73 71 73 74 74 75 76 75 74 73 71 72 71 70
52 48 47 40 45 37 47 53 62 67 67 70 73 76 78 80 82 85 87 85 86 86 83 82 82 79 79 80 79 78 79 80 76 76 75 75 75 76 75 76 75 75 76 75 73 70 70 70 69
53 59 44 41 28 30 41 45 49 59 64 68 71 74 77 82 83 84 85 85 85 86 85 82 82 82 82 81 81 81 80 81 78 78 76 76 75 76 76 75 75 75 75 74 72 70 71 69 67
52 49 48 43 40 33 33 42 61 53 51 50 64 74 77 79 81 83 84 86 87 86 84 82 83 82 81 80 80 79 80 79 79 77 76 76 76 76 76 77 75 75 73 73 71 72 71 68 67
58 53 46 40 37 42 42 42 58 52 48 50 49 68 75 80 78 80 81 80 84 84 84 83 82 79 78 80 78 77 77 77 76 75 75 77 76 77 78 77 76 76 76 73 72 71 71 69 67

GFSSGP_sfc_temp_045.txt.gz
Temp
70 76 76 74 59 56 52 62 74 75 78 87 87 85 81 81 79 68 91 87 84 79 78 79 80 80 79 79 79 78 78 78 78 78 78 78 78 78 78 78 78 79 80 80 80 80 80 79 79
75 82 76 69 54 46 53 70 71 79 86 87 88 86 84 77 91 86 86 86 83 80 78 78 80 80 79 79 78 78 78 78 78 78 78 78 78 78 78 78 78 79 80 80 80 80 80 79 78
77 82 64 59 56 54 56 71 75 83 90 87 84 90 87 83 91 88 89 85 81 78 78 78 79 79 79 79 78 78 78 78 78 78 78 78 78 77 77 78 78 79 80 80 80 80 79 78 78
77 72 68 55 53 65 69 75 79 82 89 88 89 84 90 93 92 90 87 85 81 79 80 79 79 79 79 78 78 78 78 78 78 78 78 78 78 77 77 77 78 79 80 80 80 79 78 78 78
75 69 58 52 57 68 76 81 82 81 87 84 88 82 84 92 94 90 87 87 81 79 79 78 78 79 79 79 78 78 77 77 77 78 78 77 77 77 77 77 78 78 79 79 79 78 77 77 77
67 66 54 54 62 71 78 80 81 82 85 87 87 84 83 92 93 90 89 86 85 81 76 77 78 78 78 78 78 77 77 77 77 77 77 77 77 76 77 77 77 78 78 79 78 78 77 76 76
65 60 54 58 62 69 76 84 80 80 80 86 88 82 83 87 94 93 91 89 87 84 77 77 76 78 78 78 77 77 77 76 76 76 76 76 76 76 76 76 77 77 77 77 77 77 76 76 76
70 64 58 60 61 64 78 82 80 78 83 93 94 80 78 86 94 94 92 91 88 81 78 76 75 76 75 75 77 77 77 76 76 76 76 76 76 76 76 75 76 77 77 77 77 76 76 76 75
72 57 56 60 63 68 79 77 86 90 84 88 92 89 92 94 94 91 89 89 87 82 79 77 75 74 73 73 76 76 77 76 76 76 76 75 71 72 73 75 75 76 76 76 76 76 76 75 76
62 55 59 71 73 72 77 79 82 84 81 83 87 94 93 94 92 90 87 88 87 81 80 79 76 75 75 81 75 72 73 73 72 72 71 70 68 67 73 74 76 76 76 76 76 76 76 76 70
64 58 67 70 75 77 77 78 84 81 75 80 81 85 90 89 89 92 90 90 89 87 84 81 78 77 78 81 75 73 73 71 70 69 69 69 70 68 72 68 73 69 75 72 74 72 72 70 69
60 69 69 71 75 75 72 78 76 79 78 85 85 86 85 84 85 85 85 88 80 85 85 81 79 78 79 81 77 75 73 72 71 72 70 70 69 69 66 70 69 68 70 67 67 67 69 68 71
63 67 72 75 75 75 77 74 75 76 83 87 89 87 83 85 85 83 78 76 78 81 82 81 82 81 81 80 77 76 76 75 74 73 73 73 71 70 71 67 69 70 69 69 68 68 70 69 71
63 66 68 71 73 75 74 76 78 79 84 85 85 81 83 83 83 84 77 73 79 81 82 86 76 79 82 81 78 78 79 77 75 76 74 74 73 72 70 72 70 70 71 71 70 70 70 71 72
64 57 63 66 69 69 74 68 71 80 82 82 83 82 82 81 85 84 82 75 78 76 76 82 79 79 82 83 78 77 78 78 78 78 75 75 74 72 73 72 73 71 72 70 71 71 68 72 74
55 56 46 57 66 69 67 57 72 77 78 78 81 84 84 80 82 83 83 83 84 84 81 85 87 81 76 75 76 76 76 76 78 79 77 75 74 74 73 73 73 70 69 73 69 71 70 71 71
50 42 47 54 65 65 63 60 71 76 76 74 78 81 82 83 79 79 82 80 81 81 80 80 81 80 79 76 75 74 75 74 75 76 77 78 75 75 74 74 71 73 70 70 72 68 72 66 67
44 46 53 53 60 64 61 62 70 75 75 74 75 77 80 81 83 83 82 81 80 79 79 77 76 77 75 76 73 73 72 73 74 77 75 75 76 76 75 73 71 73 74 68 67 67 67 67 67
57 54 52 57 63 58 57 58 63 69 69 72 74 76 77 80 84 85 83 79 79 76 75 76 75 75 76 71 71 69 71 70 71 73 75 75 76 76 75 75 72 70 73 69 68 67 66 65 66
55 51 50 57 62 59 56 55 62 65 66 69 70 74 76 74 77 82 85 86 77 76 75 74 76 75 76 76 72 72 71 71 73 74 76 75 76 76 75 74 70 71 68 68 67 67 64 64 65
53 50 50 51 58 59 55 51 56 63 66 70 72 70 71 72 75 79 79 78 78 74 73 75 76 77 77 76 70 69 69 69 70 70 77 73 75 74 75 73 73 69 70 67 67 66 66 62 62
47 57 56 53 49 40 53 38 50 57 60 64 68 69 67 70 73 79 78 76 76 75 73 74 73 72 75 74 70 71 76 72 73 71 72 71 74 73 72 72 71 70 71 68 67 67 65 64 62
48 57 53 51 46 45 46 39 47 54 55 59 63 69 71 69 70 71 73 75 75 76 73 72 72 73 75 75 76 73 68 69 69 70 70 70 70 72 73 71 70 69 70 72 69 66 65 65 63
54 50 50 48 43 33 43 42 44 49 55 60 65 68 72 75 74 73 74 76 73 73 74 72 70 73 75 74 72 70 68 69 69 69 68 67 67 69 71 74 72 71 70 71 67 67 66 65 65
49 38 30 25 27 30 47 43 46 54 60 62 62 65 70 72 69 73 77 73 78 71 71 73 70 71 73 73 73 72 70 69 70 69 68 67 66 66 67 71 71 70 71 70 67 67 66 65 64
43 39 27 22 27 29 41 37 45 58 63 60 63 65 67 69 71 70 71 78 78 79 76 71 72 69 70 72 72 70 72 70 70 70 69 67 66 66 68 70 71 71 71 69 68 67 65 65 64
44 35 45 30 35 29 36 44 52 53 50 51 52 55 53 52 68 73 75 70 74 77 78 78 78 74 71 73 71 69 69 70 69 68 68 67 67 68 69 71 68 69 70 69 68 66 65 64 64
46 48 30 33 24 24 34 37 38 43 43 48 49 51 51 54 64 74 71 72 71 72 72 72 71 71 70 69 71 71 70 71 70 69 68 67 67 69 68 69 69 68 69 67 66 64 65 64 63
46 36 36 34 32 28 24 31 48 42 44 45 48 53 52 53 60 64 69 71 70 72 70 69 69 71 70 71 70 70 71 72 71 70 69 69 69 69 69 69 69 69 69 69 64 64 64 64 62
51 44 36 30 29 32 31 32 48 45 48 48 49 52 52 55 56 59 61 70 70 70 70 71 71 73 73 74 72 70 70 72 71 70 71 70 69 70 70 71 72 73 69 69 66 65 65 63 62

GFSSGP_sfc_temp_048.txt.gz
Temp
70 73 71 71 58 52 47 56 65 68 71 75 82 80 80 80 77 68 83 86 81 78 77 78 79 80 80 79 79 78 78 78 78 78 78 78 78 78 78 78 78 79 79 80 80 79 79 79 79
72 78 72 64 51 43 49 60 65 69 76 83 84 80 77 76 84 80 83 84 83 77 76 77 80 80 79 79 78 78 78 78 78 78 78 78 78 78 78 78 78 79 80 80 80 80 79 79 78
77 78 63 56 48 46 51 62 67 74 80 81 80 85 81 80 83 84 84 83 82 77 76 77 79 79 79 79 78 78 78 78 78 78 78 78 78 77 77 78 78 79 80 80 80 80 79 78 78
74 70 66 52 50 57 61 67 74 76 80 86 83 80 83 88 88 84 82 83 80 78 77 78 79 79 79 79 78 78 78 78 78 78 78 77 77 77 77 77 78 79 79 80 80 79 78 78 78
71 63 52 52 55 60 69 72 73 73 76 81 84 80 79 86 86 83 81 83 79 77 77 77 79 79 79 79 78 78 78 77 78 78 77 77 77 76 76 77 78 78 79 79 79 78 77 77 77
64 62 48 48 59 67 71 73 72 73 76 81 84 80 78 84 83 83 83 81 82 78 76 76 79 78 78 78 78 77 77 77 77 77 77 77 77 76 76 77 77 78 78 78 78 77 77 76 76
61 56 49 53 59 64 70 76 74 73 74 78 84 79 77 81 86 85 84 82 81 80 77 76 76 77 78 78 77 77 77 77 77 76 76 76 76 76 76 76 77 77 77 77 77 77 76 76 76
66 60 52 54 58 59 72 74 73 76 79 86 90 79 72 83 86 85 82 79 78 76 77 75 74 75 74 75 77 77 76 76 76 76 76 76 76 76 76 75 76 76 76 76 76 76 76 76 75
67 53 53 57 59 64 73 71 78 83 79 83 87 87 87 87 86 83 80 77 75 76 74 73 72 72 72 72 75 76 77 76 76 76 76 74 72 72 73 74 75 76 76 76 76 76 76 75 75
58 47 55 65 68 67 72 73 76 77 75 77 80 88 90 88 85 83 81 78 75 75 73 73 72 71 71 77 73 71 73 73 72 72 72 70 68 68 71 73 75 76 76 76 76 76 75 76 69
59 55 63 66 70 71 70 71 77 73 70 75 75 81 86 84 80 82 83 83 80 79 76 76 74 73 74 76 71 70 70 70 70 69 69 68 68 67 70 66 70 68 74 71 73 72 71 69 68
55 64 65 67 71 70 68 73 72 75 74 80 82 82 83 79 77 78 75 77 82 79 78 75 73 72 73 75 71 71 71 69 69 69 68 67 66 65 65 66 66 65 67 66 66 67 68 67 68
55 62 65 68 69 70 72 69 71 73 80 83 84 84 82 80 76 73 76 76 80 79 78 75 75 73 74 74 73 72 72 71 70 69 69 69 68 66 66 66 65 65 65 66 65 66 67 67 67
58 59 60 63 64 65 66 68 72 75 81 80 82 82 80 83 76 75 73 75 76 77 78 78 75 73 75 76 75 75 72 71 69 70 70 70 70 68 67 66 67 66 67 67 67 67 66 66 66
58 52 57 60 61 63 68 63 65 74 77 77 78 82 82 82 80 77 76 73 74 78 78 79 79 81 79 78 76 75 74 73 72 72 71 71 70 69 68 68 68 68 68 67 67 65 65 64 67
51 49 41 52 60 65 64 55 68 74 73 74 75 79 82 78 80 77 78 76 77 78 81 80 83 78 78 81 79 77 75 75 74 74 73 72 71 70 69 69 69 68 67 68 68 66 64 65 66
43 37 41 48 57 59 58 54 65 69 70 71 74 72 78 80 76 76 76 76 75 74 78 80 83 80 80 81 80 77 75 76 76 75 74 72 72 71 70 70 69 67 68 68 68 66 65 63 63
40 41 46 46 55 55 53 54 60 64 65 64 67 71 74 78 77 78 77 76 78 78 75 80 80 85 80 80 80 78 73 76 72 74 74 73 72 72 71 70 68 69 69 67 66 66 65 64 65
50 48 46 51 58 54 52 53 58 60 61 60 62 66 68 73 80 80 80 77 74 73 74 70 77 81 80 77 74 75 76 76 70 73 74 74 74 72 70 72 69 70 70 69 67 65 63 62 64
50 46 44 51 57 55 52 53 59 59 59 60 62 63 65 69 74 79 79 78 73 74 73 77 73 79 77 79 79 79 79 70 77 74 73 73 74 73 72 72 70 71 71 66 66 66 62 62 63
47 44 45 45 52 53 50 48 53 60 60 62 63 63 64 64 68 72 75 73 74 73 71 71 76 77 78 79 76 68 69 67 67 68 68 69 72 73 72 71 72 70 71 68 66 64 65 62 61
41 51 50 48 43 34 47 33 47 53 56 58 61 60 61 63 66 67 71 71 71 73 73 71 74 75 77 75 76 75 71 68 68 69 68 69 71 72 72 71 71 70 68 66 65 66 64 65 61
46 51 48 47 42 37 42 34 44 49 50 55 59 63 62 64 64 66 71 74 75 73 70 69 69 69 72 72 75 75 68 67 65 65 69 67 68 71 72 71 68 68 67 66 66 67 65 66 63
53 47 44 40 37 28 39 37 40 46 50 56 58 56 60 60 65 67 68 71 70 70 71 68 68 69 69 69 69 69 68 67 64 65 65 66 67 68 69 70 69 69 69 67 66 67 66 64 65
45 35 25 24 24 26 42 36 41 50 50 47 50 52 55 56 55 57 61 67 70 69 68 69 71 73 74 73 72 71 72 71 66 67 66 65 65 65 68 69 68 70 68 67 67 67 66 64 63
40 36 23 19 24 28 40 31 38 47 51 53 55 53 56 54 55 56 58 64 69 71 70 70 69 73 72 73 73 72 72 72 68 69 68 69 69 68 68 68 67 70 70 69 67 65 65 65 65
40 33 40 26 31 29 31 39 47 50 49 51 52 54 53 55 54 56 59 61 67 71 74 71 72 73 72 72 71 69 70 68 69 67 68 67 66 67 67 68 67 70 70 68 65 65 65 65 64
45 46 29 28 22 22 31 34 35 42 44 47 49 50 52 54 55 57 58 60 62 66 70 73 70 72 70 71 70 70 68 69 68 67 66 66 66 67 67 66 66 67 68 66 65 65 65 64 61
38 35 35 33 31 26 24 28 42 42 45 43 46 50 51 51 54 55 57 60 63 62 67 68 68 66 65 67 67 67 68 68 67 67 67 67 66 67 67 67 67 68 68 67 66 63 63 62 61
44 38 35 27 28 31 30 29 50 45 46 46 47 51 52 53 53 53 55 56 60 62 64 66 63 65 66 67 68 67 68 67 67 66 67 67 67 68 68 69 69 70 68 67 64 63 64 62 60

GFSSGP_sfc_temp_051.txt.gz
Temp
69 70 69 69 56 50 44 52 58 62 68 71 74 72 74 78 74 66 77 82 78 77 76 78 79 79 79 79 79 78 78 78 78 78 78 78 78 78 78 78 78 79 79 79 79 79 79 79 79
71 75 69 61 49 42 46 55 57 65 71 75 76 75 74 74 83 76 78 79 80 78 76 77 79 79 79 79 78 78 78 78 78 78 78 78 78 78 78 78 78 79 79 80 79 79 79 79 78
74 75 63 55 45 47 50 58 60 68 74 73 73 80 79 78 81 79 84 80 81 77 76 77 79 79 79 79 78 78 78 78 78 78 78 78 77 77 77 77 78 79 80 80 80 79 79 78 78
73 67 62 51 50 57 58 61 65 70 76 76 76 74 82 85 81 84 82 81 79 77 77 78 79 79 79 79 78 78 78 78 78 78 78 78 77 77 77 77 78 79 80 80 80 79 78 78 77
71 61 50 47 53 59 66 69 67 68 69 74 78 75 77 83 81 80 81 82 79 76 77 78 78 78 79 79 79 78 78 78 78 78 78 77 77 77 77 77 77 78 79 79 79 78 77 77 77
63 61 48 46 58 64 67 69 67 67 71 74 74 78 77 80 78 79 82 81 80 76 75 77 79 78 78 78 78 77 77 77 77 77 77 77 77 77 77 77 77 78 78 79 78 77 77 76 76
61 56 49 53 58 61 67 72 69 68 69 72 77 72 77 76 80 80 78 78 78 78 76 76 76 77 78 78 77 77 77 77 77 77 76 76 76 76 76 76 77 77 77 77 77 77 76 76 76
64 57 50 53 59 58 69 71 73 71 72 81 81 72 74 79 80 78 75 73 71 73 75 74 74 75 75 75 77 77 77 76 76 76 76 76 76 76 76 75 76 77 77 77 76 76 76 75 75
67 53 50 55 59 61 70 67 73 77 74 77 79 79 82 80 81 76 73 71 70 73 70 70 72 72 71 72 75 76 77 76 76 76 76 75 73 72 73 74 75 76 76 76 76 76 75 75 75
56 48 55 64 66 64 69 67 71 71 71 72 76 82 85 83 79 76 74 71 70 71 69 69 71 71 70 75 72 72 73 74 73 73 73 72 69 69 71 73 75 76 76 76 76 75 75 75 68
54 53 61 65 67 69 67 68 73 70 67 70 70 75 81 79 80 78 79 74 73 75 74 71 71 69 70 72 69 68 68 70 70 70 70 70 68 68 70 66 69 67 74 68 71 70 69 68 67
52 60 62 63 68 67 66 71 69 70 70 77 77 77 80 80 76 78 76 78 77 72 73 72 71 69 68 69 68 68 68 68 68 68 68 67 65 65 65 65 64 65 65 65 65 66 66 66 67
52 57 62 64 64 64 68 66 67 69 75 78 79 80 77 77 77 73 76 75 76 74 74 71 72 70 70 68 67 67 67 68 67 66 67 66 65 64 64 64 63 63 63 64 63 64 65 65 66
53 54 57 59 61 62 63 66 67 72 76 77 76 76 77 77 77 71 72 72 73 79 75 74 72 71 73 73 69 70 70 69 66 66 67 67 66 65 63 63 63 62 63 63 64 64 64 64 64
55 49 53 57 61 62 66 59 62 72 74 73 75 77 76 77 76 73 74 72 72 77 78 75 75 74 72 72 76 76 75 72 69 69 68 68 68 66 66 64 64 64 64 63 63 63 62 62 64
47 46 39 52 57 62 60 52 64 69 68 69 72 74 76 75 77 75 74 74 72 72 74 76 80 77 75 76 77 76 75 73 72 71 69 69 69 68 67 66 65 64 63 64 64 62 61 61 62
42 36 38 47 54 55 55 49 60 64 64 64 65 66 70 72 75 75 74 73 73 73 73 73 77 79 78 77 77 77 74 73 74 73 72 71 70 69 68 68 66 64 64 64 65 62 63 60 61
38 37 42 43 52 52 50 52 58 61 61 61 62 64 66 68 69 75 73 75 73 73 73 72 72 74 77 80 78 74 75 73 76 75 74 72 71 70 68 68 64 66 64 63 63 63 62 61 63
46 43 41 47 54 48 48 50 55 58 58 58 59 62 62 65 71 73 75 73 71 71 72 73 73 75 73 71 71 73 75 76 75 74 74 72 71 70 68 68 65 66 66 66 65 62 62 61 62
45 41 40 47 53 51 48 49 55 55 56 57 59 59 61 63 68 72 72 73 71 72 71 73 74 77 72 73 75 76 78 77 77 75 71 72 71 70 68 69 66 66 67 64 64 63 60 61 62
43 40 41 42 48 49 46 46 49 53 55 59 59 60 60 60 62 67 70 69 70 67 69 72 74 76 77 75 72 66 67 66 67 67 67 70 70 70 70 68 68 67 68 66 65 64 63 60 60
39 48 47 45 40 32 46 32 46 51 51 54 56 56 57 59 61 62 65 66 66 70 68 71 72 72 76 78 79 75 77 76 73 76 74 67 69 70 70 69 69 67 69 66 64 64 64 65 61
44 49 45 44 38 34 37 31 43 47 48 52 56 55 53 54 55 56 59 62 64 68 68 66 68 71 75 74 78 75 76 71 65 64 66 65 66 69 70 70 69 67 67 67 65 64 64 65 63
51 44 41 37 34 24 36 34 37 40 45 50 50 53 55 54 56 57 58 60 60 64 64 65 63 66 70 71 72 75 76 69 64 63 63 63 64 66 68 68 68 68 67 66 66 67 66 65 64
44 33 24 23 23 25 38 33 37 47 51 49 49 51 53 54 53 54 55 57 59 60 64 64 63 63 65 68 71 72 74 73 71 67 65 63 64 64 67 67 67 67 67 67 67 66 65 65 64
37 34 22 16 21 27 38 27 35 47 50 51 52 52 53 53 52 52 55 56 57 60 62 63 62 65 65 68 70 72 73 74 72 68 65 65 65 66 67 68 68 68 68 68 66 66 65 65 64
37 31 37 24 28 23 29 36 44 48 49 50 50 52 51 52 54 54 55 56 56 57 59 61 62 65 69 68 71 70 67 65 65 64 66 65 65 66 68 68 67 68 68 67 67 65 65 65 65
42 44 27 26 20 20 28 31 34 42 45 48 49 49 50 52 54 56 56 57 57 56 59 60 61 63 68 69 69 68 67 65 64 65 65 65 65 67 66 66 66 67 69 68 66 65 65 64 62
36 32 32 32 29 22 24 29 41 42 45 45 48 49 47 51 53 54 55 57 55 55 58 60 61 61 64 67 65 64 63 64 65 66 65 65 66 66 67 66 66 66 66 67 65 63 64 64 62
41 37 36 27 25 28 27 30 50 50 47 45 47 50 50 52 52 53 54 54 55 56 57 59 61 60 63 66 65 63 64 65 65 65 65 65 66 66 67 67 67 68 67 67 66 65 64 61 60

GFSSGP_sfc_temp_054.txt.gz
Temp
72 70 68 67 56 49 42 51 54 59 64 67 70 70 71 72 69 63 75 81 78 76 76 78 79 79 79 79 79 78 78 78 78 78 78 78 78 78 78 78 78 79 79 80 79 79 79 79 79
72 75 69 59 49 42 45 52 56 60 67 72 71 69 67 71 80 80 73 78 80 77 76 77 79 79 79 79 78 78 78 78 78 78 78 78 78 78 78 78 78 79 79 80 80 80 79 79 79
74 74 64 56 44 44 48 55 59 65 70 68 69 76 74 74 78 78 78 77 79 77 77 76 79 79 79 79 78 78 78 78 78 78 78 78 78 78 78 78 78 79 80 80 80 80 79 79 78
72 69 60 51 52 55 58 58 62 65 70 71 72 69 78 83 81 80 78 78 78 76 77 77 78 79 79 79 78 78 78 78 78 78 78 78 78 77 77 77 78 79 80 80 80 79 78 78 78
69 63 50 47 52 58 63 64 64 64 65 70 71 70 71 78 78 78 78 80 78 75 76 77 78 79 79 79 78 78 78 77 78 78 78 78 77 77 77 77 78 78 79 79 79 78 77 77 77
61 61 47 47 56 62 65 66 64 63 65 71 71 71 72 76 76 76 78 76 78 75 74 76 79 78 78 78 78 78 78 77 77 77 77 77 77 77 77 77 77 78 78 79 78 77 76 76 76
58 56 49 53 56 59 66 69 65 63 65 69 72 68 72 81 75 76 75 74 74 75 74 75 76 78 78 78 78 77 77 77 77 77 77 77 77 76 76 77 77 77 77 78 77 77 76 76 76
63 58 48 53 58 57 67 69 68 66 69 77 77 67 70 72 75 74 72 70 69 70 72 71 73 75 75 76 77 77 77 76 76 76 76 76 76 76 76 75 76 77 77 77 76 76 76 75 75
66 52 45 55 58 59 68 65 71 73 70 72 75 73 78 76 77 73 70 69 68 71 69 69 71 72 73 73 76 77 77 77 76 76 76 75 74 74 75 74 76 76 76 76 76 76 75 75 75
57 47 54 63 64 62 67 66 68 68 68 67 71 77 80 78 75 72 72 68 68 69 68 68 69 69 70 75 74 74 74 75 75 75 75 74 73 71 72 74 75 76 76 76 76 75 75 76 71
51 49 59 63 65 67 65 66 70 67 66 67 67 71 76 77 76 75 76 76 68 71 72 70 69 69 71 72 70 71 70 74 74 73 73 73 70 70 71 69 71 70 75 71 74 73 72 70 70
49 57 60 61 66 65 64 68 66 68 69 72 73 74 74 75 72 74 76 77 76 75 72 72 70 69 68 68 69 69 69 68 69 69 69 68 66 66 67 67 67 67 68 68 68 68 69 69 69
48 52 58 61 61 62 66 64 65 66 73 75 74 75 73 73 73 72 72 73 79 76 73 73 69 69 70 67 68 68 68 69 68 67 68 67 66 65 65 65 65 66 66 66 66 66 67 67 68
50 51 54 58 60 61 62 64 66 69 72 74 73 73 74 74 74 72 71 69 71 78 75 75 71 71 72 70 70 70 69 68 68 68 69 68 67 65 65 64 64 64 65 65 65 66 66 66 67
51 46 51 54 54 56 61 56 59 68 71 69 70 71 71 72 74 73 72 70 71 74 77 73 74 73 69 70 69 70 70 71 70 70 69 69 67 66 66 65 64 65 65 65 65 65 65 65 66
44 43 38 47 53 58 57 48 61 65 65 66 67 67 68 69 70 71 72 70 71 71 74 74 78 73 70 71 72 74 72 71 72 71 70 70 69 68 66 65 65 65 64 65 65 64 64 64 64
40 34 35 44 50 51 50 47 59 63 63 62 64 65 67 66 68 69 71 71 70 69 70 71 73 72 71 70 70 72 71 72 72 71 71 70 69 69 68 67 66 64 64 65 65 64 65 63 63
35 35 39 40 48 49 46 48 54 59 60 59 60 63 64 66 67 70 70 71 69 69 68 68 73 74 73 71 70 69 74 72 72 73 73 72 70 69 68 66 65 65 64 64 64 64 64 65 65
42 40 39 44 50 47 45 47 52 55 56 56 58 58 61 63 68 70 71 71 69 67 67 67 67 68 70 69 70 69 71 73 75 74 74 71 71 69 68 68 66 66 65 65 64 64 64 63 65
43 39 38 44 50 47 45 46 52 53 54 56 57 58 58 60 63 67 67 68 67 65 64 65 67 67 69 75 72 70 71 72 72 72 71 71 71 70 69 68 66 66 66 64 64 64 62 64 64
40 38 38 39 45 46 44 42 44 50 53 56 57 58 58 57 58 59 63 63 63 63 63 64 64 67 67 68 68 67 67 67 68 69 69 71 71 70 70 68 68 66 67 65 65 64 64 62 62
36 46 45 43 38 29 44 27 40 45 47 51 54 54 54 56 56 56 58 58 59 63 63 63 63 64 67 67 70 70 75 75 78 79 72 68 70 70 70 69 69 67 67 66 65 65 64 64 62
43 47 43 42 35 31 35 28 34 45 43 45 50 53 53 54 54 55 56 57 59 59 58 60 60 61 66 67 70 74 73 78 77 66 68 66 68 70 70 69 68 67 67 68 66 65 64 65 64
48 42 38 34 31 24 32 31 29 38 42 46 52 52 54 54 55 55 56 56 56 57 57 58 58 59 62 64 66 70 71 72 65 63 66 65 65 67 69 69 68 68 67 67 66 66 65 65 65
41 32 23 23 23 24 35 31 36 44 50 49 49 51 53 52 52 52 53 55 56 56 57 58 59 58 60 62 64 68 71 71 67 68 69 64 64 65 66 67 67 67 68 67 67 66 66 65 65
35 33 21 16 20 23 36 27 34 46 50 50 51 50 51 52 51 51 53 54 55 58 58 57 57 57 59 61 63 66 69 72 72 71 71 69 68 67 67 68 68 68 68 68 68 67 67 65 65
35 29 34 22 24 22 28 33 42 49 47 48 49 50 49 51 52 54 54 53 54 57 57 56 57 58 58 60 62 64 67 67 69 66 67 66 66 67 67 68 68 68 69 69 68 67 66 66 65
40 42 26 24 18 18 26 28 32 40 44 46 47 47 49 51 52 56 56 54 56 57 57 56 56 58 59 60 62 66 66 67 67 64 65 66 66 67 67 67 68 69 69 69 68 67 66 65 65
35 31 31 28 26 23 23 29 39 41 44 43 45 49 50 53 53 55 56 56 56 57 56 56 57 58 59 60 60 62 62 64 64 65 65 66 66 67 67 68 68 69 69 68 67 66 66 65 64
40 35 32 23 21 28 20 29 47 46 44 45 45 48 51 52 53 52 53 55 55 57 56 56 57 58 60 62 61 60 62 63 64 65 65 66 67 67 68 69 69 69 68 67 67 65 66 65 63

GFSSGP_sfc_temp_057.txt.gz
Temp
78 79 80 81 72 70 64 67 70 72 75 82 84 82 83 87 83 79 90 89 92 88 86 83 79 79 80 80 79 79 79 79 79 79 79 79 79 79 78 78 78 79 80 80 80 80 80 80 79
80 79 80 75 68 62 65 68 69 76 81 83 84 82 81 81 90 95 92 89 90 87 85 85 79 79 80 80 79 79 79 79 79 78 78 78 78 78 78 78 79 79 80 80 80 80 80 80 79
79 79 75 70 64 60 65 68 74 78 80 78 80 85 83 82 90 93 91 89 89 86 86 85 79 79 80 80 79 78 78 78 78 79 79 78 78 78 78 78 78 79 80 80 80 80 79 79 78
80 78 72 64 62 62 68 72 76 75 82 82 82 79 88 89 88 90 90 90 87 87 88 82 79 79 79 79 79 78 78 78 78 78 78 78 78 78 77 78 78 79 80 80 80 79 79 78 78
80 76 65 61 61 63 69 75 77 76 77 81 81 79 81 91 90 87 88 89 88 88 88 85 79 79 79 79 79 78 78 78 78 78 78 78 78 77 77 78 78 79 79 80 79 78 77 77 77
73 74 61 58 62 66 71 75 76 75 78 81 81 79 82 92 85 85 87 90 92 88 87 87 80 79 79 79 79 78 78 78 78 78 78 78 77 77 77 77 78 78 79 79 79 77 77 77 77
70 67 63 64 61 65 70 76 74 75 77 78 84 77 83 88 84 85 85 90 90 90 88 87 86 82 79 78 78 78 77 77 77 77 77 77 77 77 77 77 77 78 78 78 78 77 77 76 76
73 69 64 64 61 63 72 73 77 77 77 85 85 76 77 85 83 85 86 86 89 89 90 89 86 86 85 85 78 77 77 77 77 77 77 77 77 77 77 76 76 77 77 77 77 76 76 76 76
74 63 61 63 62 67 73 71 77 80 77 80 83 83 86 88 85 85 84 85 85 85 86 87 86 85 86 88 84 78 77 77 76 77 76 76 84 83 82 79 77 77 77 77 76 76 76 76 76
69 63 63 69 70 69 72 70 74 73 74 76 79 85 87 90 87 83 84 85 83 84 83 85 83 83 84 86 85 83 84 83 83 83 82 83 83 83 83 81 76 76 77 76 76 76 76 77 85
65 62 67 70 70 71 70 72 74 71 69 75 74 79 85 86 87 83 83 86 84 84 83 81 80 81 82 84 84 83 84 83 82 81 80 81 80 79 82 83 82 81 78 83 81 81 83 83 83
61 65 66 70 70 69 67 71 69 71 72 78 80 82 82 84 85 85 85 85 84 83 82 81 78 79 78 83 82 83 83 83 82 79 77 78 75 79 80 82 83 80 83 82 81 83 81 80 81
62 63 65 68 68 68 68 68 70 70 75 79 82 82 81 84 86 88 85 85 84 82 83 80 77 77 79 77 81 80 80 81 82 80 78 79 79 78 79 80 81 81 82 82 80 80 79 79 79
63 63 64 67 68 69 65 67 69 72 76 76 78 79 82 83 83 84 86 84 79 81 83 81 81 78 79 77 77 79 80 79 80 80 78 78 80 78 80 79 80 80 81 82 81 79 79 78 80
61 58 62 64 65 64 67 59 62 69 72 72 74 77 79 80 83 80 80 81 83 82 78 79 80 79 78 78 75 78 79 79 80 79 78 76 77 77 77 80 79 80 79 77 77 76 77 77 78
57 56 54 61 62 64 64 56 64 67 67 68 72 74 76 79 79 81 81 80 80 81 78 79 83 79 77 78 78 78 79 79 77 80 80 77 75 75 72 76 78 80 78 78 78 77 76 76 78
54 51 51 55 61 61 60 55 64 66 64 63 66 71 74 76 79 80 81 80 78 76 76 78 76 75 77 75 77 76 77 77 80 80 80 75 75 76 73 74 75 76 78 76 78 77 76 76 77
47 49 50 50 58 60 58 58 62 64 63 63 64 67 71 73 76 79 79 79 79 78 77 77 77 78 76 73 72 77 79 80 80 80 78 73 75 74 72 74 74 76 77 76 77 75 76 77 78
53 50 49 54 58 56 56 56 60 64 63 64 64 64 66 70 76 77 77 77 76 76 74 75 77 78 78 78 76 75 74 77 80 81 79 73 76 76 74 75 69 73 74 77 75 75 73 75 76
52 50 49 53 57 55 55 54 59 62 63 64 65 65 65 66 70 73 74 74 73 71 72 72 74 76 77 80 80 81 80 81 83 84 81 79 76 76 76 73 73 73 76 74 74 73 75 76 74
52 49 48 48 52 56 52 53 55 63 62 65 66 67 67 66 64 67 69 70 71 71 70 71 71 72 75 77 79 80 80 81 81 82 81 77 76 76 76 77 75 74 77 77 74 74 73 76 74
47 55 51 49 48 43 52 42 51 56 59 61 64 65 66 68 68 66 66 67 68 70 70 70 70 70 73 75 77 77 79 79 85 86 87 85 77 76 78 78 77 75 77 77 76 76 76 75 73
51 54 51 50 47 44 48 43 50 54 55 58 62 64 66 66 67 67 68 66 68 69 68 68 68 69 71 71 74 77 77 83 85 86 83 80 77 77 80 79 77 75 77 77 76 74 73 76 75
54 52 49 46 46 39 43 43 47 52 55 58 63 65 65 67 67 68 69 70 70 70 69 69 67 68 70 71 72 72 74 77 81 81 82 83 80 79 79 80 78 77 77 77 76 75 73 73 74
52 47 40 38 38 38 45 42 47 55 58 61 62 65 66 66 66 67 69 70 69 70 70 69 69 67 69 69 70 72 72 73 75 77 79 78 75 76 78 77 77 78 77 77 76 74 73 73 73
49 47 39 27 33 39 45 38 50 57 60 62 63 64 65 65 67 67 67 67 69 69 69 70 69 67 68 69 70 72 73 76 77 77 78 76 77 81 80 77 78 78 77 77 75 76 76 74 74
46 42 47 37 39 34 42 47 54 59 59 60 61 62 62 63 64 66 67 67 68 68 68 68 68 68 69 70 70 70 72 74 77 78 77 79 77 83 79 78 77 78 77 76 74 77 75 74 73
51 52 37 39 28 28 39 41 44 52 54 59 59 60 60 63 65 65 66 65 66 67 68 67 66 66 67 69 70 72 73 74 76 78 76 77 78 79 78 78 77 77 77 77 76 76 77 74 70
45 43 41 41 39 32 32 41 53 53 56 55 58 59 60 61 63 64 66 67 67 68 69 68 68 67 67 69 70 70 72 75 76 76 77 77 77 77 79 79 78 78 77 77 76 73 75 72 69
49 46 45 35 32 36 34 37 58 57 56 57 59 61 62 61 63 64 65 66 67 67 68 69 68 68 68 70 70 70 72 73 73 74 76 77 77 78 80 79 79 79 78 77 75 74 73 69 68

GFSSGP_sfc_temp_060.txt.gz
Temp
85 92 94 92 79 81 77 78 85 83 84 90 92 89 91 95 90 86 102 103 104 102 94 88 80 80 80 80 80 80 79 79 80 80 79 79 79 79 79 79 79 79 80 80 80 80 80 80 80
93 90 92 89 74 72 77 82 80 86 88 91 92 92 90 89 96 98 105 101 104 100 93 92 80 80 80 80 79 79 79 79 79 79 79 79 79 79 79 79 79 80 80 81 81 81 80 80 80
88 90 85 81 75 69 74 80 84 87 89 88 88 93 90 88 95 96 104 100 102 97 94 92 80 80 80 80 79 79 79 79 79 79 79 79 79 78 78 78 79 80 81 81 81 80 80 80 79
90 90 87 73 69 70 72 82 85 86 89 90 90 86 94 97 94 97 101 101 100 98 97 86 79 79 80 80 79 79 79 79 79 79 79 79 78 78 78 78 79 80 81 81 80 80 79 79 78
90 87 74 71 70 71 76 83 86 84 86 89 88 85 88 97 99 97 96 100 100 99 98 90 79 79 79 80 79 79 79 78 78 79 79 79 78 78 78 78 79 79 80 80 80 79 78 78 78
81 83 70 68 72 74 76 82 84 84 86 88 87 86 89 99 96 96 97 100 103 101 98 92 81 79 79 79 79 79 78 78 78 78 78 78 78 78 78 78 78 79 79 79 79 78 78 77 77
78 77 70 73 73 71 75 83 81 83 85 86 90 83 91 95 97 98 95 100 103 103 99 95 90 84 79 78 78 78 78 77 77 77 77 77 77 77 77 77 78 78 78 78 78 77 77 77 77
84 80 71 74 72 72 81 79 84 83 82 93 91 83 84 92 99 100 97 99 103 103 101 98 93 92 90 89 78 78 77 77 77 77 77 77 77 77 77 76 77 78 78 78 77 77 77 77 77
85 72 69 72 74 76 85 77 83 88 83 86 89 89 93 96 100 99 95 93 99 100 99 99 96 93 93 95 88 78 78 77 77 78 77 77 89 87 85 83 78 77 77 77 77 77 76 76 77
77 72 73 82 82 79 83 81 79 79 80 82 85 92 94 96 97 95 95 94 93 95 98 100 94 94 94 97 93 88 89 88 87 88 86 88 90 91 91 86 77 77 77 77 77 76 76 77 91
77 71 80 82 83 82 80 79 81 78 75 81 81 85 90 92 93 94 93 93 96 95 96 97 92 91 93 96 95 92 92 91 90 89 88 88 90 90 90 91 88 86 80 88 83 84 86 88 90
70 77 78 80 82 78 77 81 78 78 79 83 85 86 89 89 91 93 94 92 91 93 94 91 92 89 88 95 93 94 94 92 92 91 88 88 88 87 88 91 92 88 91 88 90 91 88 88 88
70 76 75 78 79 78 79 76 77 75 80 82 84 86 87 88 90 94 94 92 92 90 92 92 89 86 85 87 93 92 93 92 92 92 89 88 89 86 89 89 91 91 92 91 89 89 89 87 86
73 74 74 76 77 78 74 76 77 78 81 80 82 83 86 87 89 90 92 91 88 88 88 92 90 84 85 85 87 87 88 88 90 91 90 86 88 87 89 87 89 90 91 92 91 89 88 87 88
71 65 71 73 75 74 76 69 71 79 78 76 79 82 85 86 88 86 87 86 88 88 86 86 86 86 82 82 84 86 89 88 88 91 87 86 85 86 85 87 88 91 90 86 86 85 86 86 88
66 66 63 73 71 74 70 65 71 74 74 73 74 78 81 84 86 87 86 85 86 84 84 81 88 87 82 82 84 86 89 87 90 90 89 85 84 85 83 86 85 89 88 88 87 86 86 86 87
64 60 61 64 70 69 69 66 72 74 72 70 71 76 78 81 83 86 86 85 83 84 82 83 82 84 80 83 85 85 83 84 88 87 86 84 81 82 83 85 82 82 86 86 86 86 86 86 84
59 59 60 61 67 67 66 66 71 74 73 71 71 74 75 78 81 85 86 85 85 83 81 79 82 79 79 81 79 82 84 85 87 86 89 89 85 83 82 81 77 79 83 83 81 82 86 85 85
61 59 58 63 67 63 64 66 69 73 73 72 73 73 74 75 80 83 85 85 84 83 79 76 77 80 80 73 76 76 82 80 80 88 84 83 84 85 80 79 77 80 83 80 77 82 80 83 83
60 58 58 62 65 62 62 62 67 71 72 73 72 74 74 74 76 78 80 80 80 80 79 79 79 79 80 84 81 82 81 81 82 86 84 85 81 84 79 82 81 78 71 79 81 80 83 83 82
60 57 57 56 61 64 61 60 64 69 71 71 73 74 74 72 72 73 74 75 78 77 76 77 77 77 79 80 84 84 84 85 84 84 83 84 83 80 82 82 83 80 79 87 82 81 79 82 81
55 62 58 56 55 52 60 51 61 66 66 68 70 70 72 73 74 74 73 73 74 76 78 77 77 76 81 79 81 80 84 82 82 88 83 89 86 83 85 83 82 82 87 85 84 83 81 80 83
57 61 58 57 55 55 56 51 61 65 62 66 69 71 74 75 73 74 74 75 77 78 76 77 76 76 78 77 77 81 80 87 90 92 87 86 88 85 86 85 84 84 85 85 84 82 79 85 85
63 59 59 59 56 47 56 53 59 61 63 66 69 71 73 74 75 75 76 77 78 79 79 77 75 74 76 77 77 76 75 79 85 88 89 90 91 87 83 86 84 84 84 84 84 83 81 81 83
60 55 47 46 46 48 54 50 59 63 65 67 67 70 73 73 73 73 76 76 76 77 77 76 77 74 76 76 77 77 77 76 77 80 86 86 91 91 86 83 84 86 83 85 84 81 81 80 81
57 54 45 34 42 49 55 47 56 65 67 68 69 71 72 72 74 73 75 76 77 77 77 77 76 74 74 75 76 77 77 81 82 81 84 87 90 90 84 83 85 85 86 84 83 84 83 81 80
53 49 57 45 48 44 51 56 63 66 65 66 68 68 70 70 72 74 75 76 76 75 75 76 76 76 76 76 74 74 74 75 78 81 81 83 84 86 82 83 84 85 85 83 82 84 80 81 79
56 60 45 48 34 37 49 51 55 59 61 64 65 66 68 70 72 73 74 75 75 75 76 76 76 76 77 76 76 77 77 78 76 76 77 81 83 83 84 85 84 83 83 83 81 83 81 80 81
49 51 50 49 48 39 40 50 61 59 62 61 64 67 69 70 73 73 74 75 75 77 77 76 76 77 77 77 77 76 77 79 80 80 81 81 82 83 82 85 84 84 83 83 81 83 83 81 81
57 53 53 41 39 43 41 44 65 63 65 63 65 67 69 70 71 73 73 74 74 76 77 76 76 76 77 78 77 77 77 77 77 79 81 83 83 84 85 86 86 86 85 83 82 83 84 82 80

GFSSGP_sfc_temp_063.txt.gz
Temp
85 99 102 96 82 83 79 85 93 88 88 97 99 95 95 99 93 85 110 109 110 103 94 88 80 80 80 80 80 80 80 79 80 80 79 79 79 79 79 79 79 80 81 81 81 81 81 80 80
94 98 97 91 77 74 79 91 85 91 95 96 96 97 95 92 102 100 105 105 108 101 93 92 80 80 80 80 80 79 79 79 79 79 79 79 79 79 79 79 79 80 81 81 81 81 81 80 80
92 97 87 83 78 73 79 88 89 93 94 93 93 97 96 93 100 99 104 106 106 101 94 93 80 79 80 80 79 79 79 79 79 79 79 79 79 79 78 79 79 80 81 81 81 81 80 80 79
94 93 88 75 74 80 81 86 90 90 93 95 95 89 98 102 99 102 104 104 104 103 99 85 79 79 80 80 79 79 79 79 79 79 79 79 79 78 78 79 79 80 81 81 81 80 80 79 79
94 88 76 74 76 84 86 88 89 88 91 92 94 90 91 100 103 103 103 104 105 105 101 89 79 79 79 80 79 79 79 79 79 79 79 79 78 78 78 78 79 80 80 81 80 79 79 79 78
84 86 72 70 76 84 84 87 88 88 92 92 90 90 93 103 101 102 103 105 108 106 101 93 81 79 79 79 79 78 78 78 78 78 78 78 78 78 78 78 79 79 80 80 80 79 78 78 78
81 79 72 75 76 81 82 87 84 87 89 89 95 85 95 98 102 105 104 104 108 108 104 95 91 84 79 79 78 78 78 77 77 77 77 78 78 78 78 78 78 79 79 79 78 78 78 77 77
86 82 74 77 75 77 86 86 86 85 87 98 95 85 88 95 102 106 105 104 107 108 106 99 93 91 89 88 78 78 78 77 77 77 77 77 77 77 77 77 77 78 78 78 78 77 77 77 77
92 75 72 76 77 81 90 85 88 89 88 91 93 92 96 99 102 103 103 99 104 106 104 101 96 93 93 95 87 78 78 78 77 78 77 77 88 86 84 82 78 78 78 78 77 77 77 77 77
81 74 74 84 86 85 88 88 86 82 83 86 89 95 98 97 98 97 99 98 98 102 103 104 95 95 95 99 92 88 89 88 86 87 85 86 89 90 92 87 78 78 78 78 77 77 77 77 89
82 73 82 85 88 90 88 86 90 84 77 83 85 91 92 93 93 95 98 98 96 100 102 103 95 94 95 99 95 92 92 90 89 88 88 87 90 92 91 91 87 85 79 86 82 83 84 86 89
76 82 83 85 88 88 85 88 85 85 84 87 89 92 91 89 91 94 95 97 97 96 98 99 97 94 93 99 98 95 95 93 92 91 89 89 89 90 90 92 92 88 90 87 90 90 88 88 89
77 80 83 86 85 86 87 82 82 84 89 90 88 90 89 90 90 94 96 98 94 94 96 96 96 92 91 90 97 96 95 95 94 94 91 91 91 89 90 91 93 94 94 93 90 91 91 89 88
81 80 80 84 81 83 81 80 82 84 89 88 86 85 88 89 90 91 92 94 92 93 91 93 92 90 88 88 90 91 92 95 95 95 94 90 91 89 90 89 90 91 94 95 94 91 90 89 89
78 72 76 78 79 78 82 74 76 85 88 85 84 85 87 89 91 90 91 90 91 92 90 88 90 85 85 85 87 90 93 94 94 94 92 90 87 88 87 90 89 92 91 90 90 89 89 88 90
70 72 65 77 79 79 78 66 79 86 85 81 81 83 84 86 89 91 89 89 88 86 83 82 88 89 82 81 86 83 89 91 92 93 93 90 87 86 86 89 90 92 91 91 89 88 87 88 88
70 62 67 71 78 76 75 68 79 81 79 77 80 80 83 84 86 88 90 87 86 85 83 84 80 83 82 81 84 84 86 88 91 92 89 88 88 88 86 88 90 88 89 89 85 87 87 86 86
65 65 67 67 73 73 71 70 78 79 78 77 78 80 80 81 83 86 88 88 84 83 81 80 84 81 79 83 82 85 87 86 88 90 90 88 89 87 85 86 87 86 85 85 86 84 87 86 88
68 65 65 70 75 68 68 69 74 79 79 77 78 79 79 80 83 86 86 86 84 83 81 80 79 80 78 75 78 82 82 83 85 85 83 86 87 83 82 85 85 83 82 81 84 82 77 83 86
65 63 63 69 73 68 66 66 73 76 77 78 78 79 79 80 81 81 83 83 82 81 77 78 79 80 81 79 75 76 77 80 86 84 84 84 86 86 85 81 83 80 81 81 78 77 81 84 87
63 62 63 63 68 68 65 62 67 74 77 79 80 81 81 80 78 78 79 81 80 81 79 78 78 77 79 80 79 79 77 77 81 79 80 82 82 84 84 79 79 80 80 86 77 77 81 84 88
58 69 66 61 59 54 66 52 65 70 71 74 75 76 78 79 79 80 79 79 80 80 81 80 79 77 80 81 76 79 80 74 82 83 86 86 82 84 83 81 77 77 81 82 82 85 85 82 84
61 66 63 62 59 58 59 56 62 72 67 70 73 76 77 78 78 78 78 79 79 80 81 79 79 79 78 79 77 79 79 80 87 88 85 85 82 83 81 79 78 79 83 84 84 85 83 87 83
68 63 62 62 59 49 58 58 60 66 68 71 74 76 77 78 78 78 79 79 80 82 81 80 79 78 78 78 79 77 76 78 81 84 86 87 85 85 81 83 85 83 81 83 86 82 82 81 85
63 57 48 47 48 48 62 58 62 68 72 72 72 74 76 78 77 77 77 78 78 79 80 79 79 77 79 78 78 78 78 78 77 78 82 84 91 91 86 83 83 83 83 85 84 83 83 82 82
56 53 45 35 42 47 59 51 61 72 74 73 74 75 76 77 78 78 77 78 79 79 79 79 78 77 78 78 78 78 78 81 82 83 84 86 88 91 91 84 83 84 86 85 82 84 85 83 82
57 50 59 47 53 49 55 60 66 70 69 70 72 73 73 76 77 76 78 79 78 78 77 78 78 78 78 79 79 77 77 77 78 78 79 85 83 86 86 88 83 84 85 86 84 84 83 83 81
60 61 45 49 37 37 49 52 53 62 65 69 69 70 72 74 76 77 78 78 79 79 78 78 77 77 78 79 79 80 80 79 79 79 78 79 81 84 84 86 85 85 85 86 83 83 82 79 82
54 53 53 53 50 38 39 48 61 62 66 67 68 71 72 74 75 77 79 80 80 80 80 78 79 79 78 79 79 79 79 79 79 79 80 80 80 81 83 85 85 83 83 84 82 81 82 81 81
61 53 53 38 41 48 45 48 66 66 69 68 68 72 75 75 75 76 77 78 78 79 79 79 78 79 80 80 80 79 79 79 78 79 79 80 81 82 82 82 80 83 83 82 82 81 85 83 82

GFSSGP_sfc_temp_069.txt.gz
Temp
75 83 82 78 62 59 56 66 75 77 77 81 85 85 81 81 77 66 84 86 83 78 78 80 80 80 80 80 79 79 79 79 79 79 79 79 79 79 79 79 79 79 80 80 80 80 80 80 80
76 84 81 72 57 50 58 76 74 76 80 84 86 85 82 77 88 87 83 86 84 79 77 78 80 80 80 79 79 79 79 79 79 79 79 79 78 78 78 79 79 79 80 80 80 80 80 80 80
80 83 69 61 56 54 61 74 74 81 85 85 84 89 84 80 88 87 87 86 83 79 79 78 79 80 80 79 79 78 78 79 79 79 79 78 78 78 78 78 79 80 80 81 81 80 79 79 79
80 75 70 56 55 64 70 78 78 79 83 86 85 82 86 90 88 91 92 88 84 81 81 79 79 79 79 80 79 78 78 79 79 79 78 78 78 78 78 78 79 79 80 80 80 79 79 79 78
76 68 55 52 58 69 76 79 79 75 79 82 85 80 79 88 92 92 93 88 83 82 79 78 79 79 79 79 79 79 78 78 78 78 78 78 78 77 77 78 78 79 79 80 79 78 78 77 78
65 67 53 49 59 72 77 80 77 77 80 82 81 82 77 86 88 89 90 91 87 84 78 78 79 79 79 79 79 78 78 78 78 78 78 78 77 77 77 78 78 79 79 79 79 78 77 77 77
61 58 54 57 62 67 75 80 77 80 81 80 80 77 76 84 88 89 89 88 88 86 80 78 77 78 79 78 78 78 77 77 77 77 77 77 77 77 77 77 77 78 78 78 78 77 77 77 77
69 63 58 61 61 63 77 79 78 78 80 90 91 76 70 79 88 88 88 91 87 82 80 77 76 76 76 79 78 77 77 77 77 77 77 77 77 77 77 76 77 77 77 77 77 77 77 76 76
73 59 56 60 63 68 77 75 80 84 81 84 90 88 86 87 88 86 85 86 83 83 79 78 76 75 75 77 79 77 78 77 77 77 77 75 72 73 75 75 77 77 77 77 77 76 76 76 76
63 57 60 70 72 71 76 77 79 77 76 77 81 86 91 87 85 84 83 81 78 81 80 80 77 76 77 81 78 74 77 75 74 74 74 72 71 71 76 76 77 77 77 77 76 76 76 76 70
65 59 67 72 76 78 76 77 82 78 70 74 76 81 85 84 80 83 83 80 78 78 82 81 79 78 79 80 75 74 74 74 74 73 73 71 73 72 74 71 74 70 76 72 74 72 71 70 70
61 70 72 74 78 77 75 79 77 79 76 83 84 82 81 80 79 81 81 80 82 79 80 82 81 80 81 77 76 75 75 73 73 73 72 72 70 70 72 71 71 70 70 70 69 69 70 70 72
63 68 74 76 76 76 77 76 76 76 81 86 83 83 80 79 79 79 83 82 79 80 79 81 81 80 82 77 78 78 77 75 74 74 74 73 70 71 72 73 72 72 72 71 70 70 72 71 73
67 68 69 73 72 72 71 74 73 77 80 83 82 79 81 80 79 76 79 80 77 80 77 82 80 80 78 78 80 78 75 78 77 77 76 74 74 73 73 73 74 73 74 74 73 72 73 72 74
68 61 65 68 67 68 70 66 69 74 79 77 78 77 79 79 80 79 79 77 75 74 76 78 79 79 83 80 79 79 81 79 79 78 77 78 75 75 74 74 74 74 74 74 73 74 73 72 73
59 59 49 61 68 70 65 57 70 74 74 72 76 77 77 75 77 77 76 74 74 75 75 74 80 78 78 78 77 80 78 80 81 79 79 79 78 76 75 74 74 74 74 74 73 72 71 70 70
52 47 50 57 68 68 65 61 69 74 73 69 71 71 75 73 74 74 75 71 71 72 73 74 74 76 76 76 76 75 77 77 79 78 77 79 78 78 75 74 73 74 73 73 73 72 71 70 69
47 49 55 56 65 67 64 63 70 71 71 69 66 69 70 71 72 74 72 71 69 70 72 72 72 72 74 74 73 74 74 76 76 76 76 77 79 78 76 73 73 74 72 72 72 71 70 70 70
59 56 55 61 67 65 61 60 64 67 66 65 67 68 68 70 73 72 71 70 69 69 71 71 70 71 71 71 70 69 72 73 73 74 76 77 76 77 78 75 72 72 72 72 71 70 70 70 70
60 56 52 59 65 65 61 59 63 65 64 64 65 65 67 67 70 72 68 68 68 67 69 69 70 69 70 72 71 72 72 72 73 74 74 74 76 75 76 75 73 75 71 70 70 69 68 68 69
57 53 53 54 61 64 60 55 58 63 66 70 71 67 67 66 66 69 70 66 65 65 66 68 68 69 67 68 69 69 69 71 71 73 73 74 75 75 75 75 76 73 74 76 72 72 70 72 67
50 61 61 58 53 41 56 38 51 58 60 66 70 71 65 67 68 69 66 64 64 65 66 66 67 67 68 67 65 68 69 70 73 73 74 73 75 75 76 75 76 76 77 77 75 74 73 70 66
55 63 56 56 51 45 49 39 46 57 58 62 67 70 65 66 65 65 66 67 66 67 65 65 65 66 66 67 67 68 65 65 67 68 70 72 74 75 76 75 74 75 76 75 74 73 73 70 68
65 56 52 50 44 34 46 43 46 51 58 63 63 65 67 67 66 65 65 67 67 67 66 65 65 65 65 65 65 66 65 68 67 67 65 67 68 71 72 74 73 75 75 74 74 74 71 74 73
53 46 30 28 29 32 49 45 47 56 64 66 65 63 65 65 65 65 64 64 64 64 65 64 64 63 65 66 65 66 66 66 67 67 68 66 65 67 68 69 68 71 74 75 75 74 75 75 72
42 43 33 25 25 33 47 36 46 60 65 65 67 64 63 63 65 64 64 65 65 66 64 65 64 64 64 65 65 66 64 65 66 67 67 67 66 67 68 67 66 66 69 70 70 72 74 77 76
47 37 46 37 38 30 37 45 56 61 62 65 65 63 61 62 62 63 63 64 65 65 64 66 65 65 65 65 65 64 65 64 64 65 65 66 66 69 69 67 66 67 68 70 70 70 73 71 75
50 53 37 33 28 24 36 41 41 51 56 62 62 61 60 62 64 62 64 64 65 66 65 63 64 65 66 65 65 66 65 65 65 65 65 65 65 66 68 67 68 70 72 71 68 70 72 72 71
43 41 41 38 35 27 26 34 49 51 54 56 58 61 58 60 63 63 63 64 65 64 63 62 62 63 63 64 64 64 65 65 65 64 66 66 65 67 69 70 68 68 71 73 71 73 76 74 74
46 41 37 31 29 33 30 32 57 54 56 59 58 62 60 63 60 62 63 64 65 64 64 64 64 64 64 64 63 63 65 65 65 65 65 65 65 66 67 69 72 72 72 71 74 74 76 74 72

GFSSGP_sfc_temp_072.txt.gz
Temp
73 79 76 75 62 57 54 63 69 71 73 76 80 77 74 77 75 65 78 84 79 77 78 79 79 80 80 79 79 79 79 79 79 79 79 79 79 79 78 78 79 79 80 80 80 80 80 80 80
75 81 77 68 55 48 56 70 69 72 77 78 78 79 78 74 83 78 77 81 80 78 77 78 79 80 79 79 79 78 79 79 78 78 78 78 78 78 78 78 79 79 80 80 80 80 80 80 80
79 79 66 59 52 52 57 70 71 76 82 80 77 82 79 77 84 81 81 81 79 76 77 78 79 79 79 79 78 78 78 78 78 78 78 78 78 78 78 78 79 80 80 80 80 80 79 79 79
76 70 66 54 52 61 66 72 73 75 80 81 78 76 82 85 84 84 84 82 78 77 78 79 79 79 79 79 79 78 78 78 78 78 78 78 78 77 77 78 78 79 80 80 80 79 78 78 78
71 62 53 47 53 62 71 75 77 77 78 78 79 73 76 84 86 84 82 83 78 77 77 78 79 79 79 79 79 78 78 78 78 78 78 78 77 77 77 78 78 79 79 80 79 78 77 77 77
63 61 48 45 54 66 71 75 76 78 80 80 78 75 74 83 84 82 84 82 82 78 76 77 79 79 79 79 78 78 78 77 77 77 77 77 77 77 77 77 78 78 78 79 78 78 77 77 77
60 55 48 51 55 62 69 73 72 76 81 79 83 73 75 80 80 84 83 82 82 80 77 76 77 78 79 78 78 77 77 77 77 77 77 77 77 77 77 77 77 77 77 77 77 77 77 76 76
64 58 52 53 55 58 71 73 74 73 79 87 87 72 70 80 84 84 81 82 80 77 77 75 76 77 79 79 78 77 77 77 76 76 76 76 77 77 77 75 76 77 77 77 77 77 76 76 76
65 52 50 55 57 62 72 69 75 81 77 84 86 81 84 84 85 83 79 78 77 77 73 73 75 75 77 80 79 77 78 77 77 76 76 75 72 73 74 75 76 77 77 77 76 76 76 76 76
58 47 53 63 65 64 70 72 72 74 75 76 79 84 83 83 84 80 76 73 74 75 75 72 73 75 76 80 79 77 77 76 75 75 74 72 71 70 74 74 76 77 77 77 76 76 76 76 69
58 55 61 64 67 70 71 73 77 72 68 72 75 79 80 77 78 79 79 77 76 76 78 76 73 73 75 77 76 76 77 75 74 73 72 71 71 70 70 68 70 70 75 70 73 71 70 69 68
55 63 66 68 71 70 69 75 73 73 73 78 80 81 79 78 77 78 79 76 75 75 77 78 76 74 73 74 75 76 75 73 72 73 71 70 69 68 67 68 68 68 69 69 68 68 68 68 69
55 61 66 70 71 71 73 70 71 73 78 82 81 80 76 74 75 76 79 80 76 75 75 77 75 74 73 72 74 73 73 72 72 71 72 71 69 69 69 70 69 68 68 68 68 69 69 68 69
61 62 63 65 66 66 68 70 68 74 78 79 78 79 79 76 76 74 75 76 75 76 75 77 77 72 74 73 72 74 74 74 73 73 73 72 72 70 70 68 70 68 69 71 70 70 69 68 69
63 56 60 61 61 63 66 61 65 71 76 75 76 76 77 76 77 76 77 75 73 72 73 76 77 73 75 76 75 74 75 75 73 75 73 73 70 70 70 70 70 72 71 71 69 70 70 69 70
54 52 44 55 62 65 62 55 67 69 70 70 72 74 75 75 75 75 75 72 70 72 73 73 80 78 78 79 78 79 76 76 77 76 75 75 74 72 70 72 72 72 71 71 70 70 69 69 68
46 41 46 52 61 61 59 57 66 69 69 67 68 68 71 71 71 73 73 70 70 69 71 72 73 74 78 77 76 77 79 77 78 77 77 76 76 75 74 75 72 72 72 71 71 70 70 69 70
42 43 48 49 60 58 57 57 66 70 66 67 64 66 68 68 70 71 69 69 67 67 68 69 71 72 72 71 72 73 74 75 72 78 78 77 76 76 75 73 71 71 71 70 69 70 70 69 68
53 50 49 56 63 55 55 55 59 66 64 62 61 64 65 67 71 69 68 67 66 66 66 66 68 69 70 70 68 67 73 71 72 73 74 77 77 75 77 74 71 70 70 71 70 69 69 68 68
54 50 50 55 60 57 55 55 59 62 62 62 63 62 62 60 65 64 64 65 65 64 65 64 66 66 69 69 69 68 67 69 71 70 71 71 74 76 76 76 73 70 69 69 69 68 67 67 68
55 51 49 50 55 56 53 50 53 60 62 64 63 64 64 63 62 62 65 63 62 63 64 65 64 65 65 67 68 67 67 68 67 68 69 71 72 73 75 73 72 71 72 74 69 69 67 68 67
48 58 57 54 46 38 54 36 47 54 57 60 62 60 61 64 64 65 65 60 63 63 63 64 64 64 65 64 64 65 64 62 65 68 70 71 72 71 73 73 74 73 72 73 73 71 70 67 71
51 59 56 53 44 39 45 38 45 52 53 55 60 62 63 64 66 64 62 63 62 62 61 62 63 63 64 63 63 62 62 63 64 65 66 70 71 73 73 73 74 74 74 75 73 70 69 69 71
58 52 48 45 40 31 44 40 42 47 51 54 60 65 67 63 61 62 63 62 61 61 61 61 62 62 62 62 62 61 61 62 62 63 63 65 67 68 71 73 72 72 72 71 71 70 68 67 70
51 43 32 28 28 32 45 40 46 50 57 57 59 61 62 60 60 62 63 63 60 60 60 60 61 61 61 62 61 61 61 61 62 62 63 64 64 64 66 68 69 70 72 73 71 70 70 70 71
42 38 28 27 22 33 42 34 41 56 60 61 63 59 60 59 62 63 64 64 62 63 61 61 59 60 61 61 61 61 61 60 61 62 62 62 62 64 66 67 68 69 69 69 69 68 70 71 72
44 35 41 34 35 30 35 42 50 55 56 60 62 61 55 57 60 62 60 59 61 60 60 61 62 62 61 62 61 61 61 60 61 63 62 62 62 66 66 67 67 66 66 67 68 67 70 71 71
48 48 31 35 27 25 32 35 36 45 50 55 57 57 59 61 60 59 59 59 60 60 62 62 63 62 62 61 61 62 61 62 62 61 62 62 62 63 64 65 67 66 67 66 67 68 69 66 67
41 37 36 36 34 28 25 31 45 46 49 52 56 61 56 57 57 58 58 58 60 60 60 60 60 61 61 61 61 60 60 61 61 61 62 63 63 64 64 65 66 66 66 67 68 68 68 68 67
45 38 37 30 29 32 30 30 48 48 51 55 57 61 61 57 55 55 58 57 59 58 58 61 59 59 60 61 60 60 60 61 59 60 61 62 63 64 64 65 66 66 67 67 68 68 69 68 68

GFSSGP_sfc_temp_075.txt.gz
Temp
72 76 74 74 62 57 51 58 65 68 70 76 76 72 72 71 70 64 75 80 78 77 77 79 79 79 79 79 79 78 78 78 78 78 79 79 79 79 78 78 78 79 80 80 80 80 80 80 80
74 79 74 65 54 51 56 63 65 66 72 76 78 74 74 72 80 75 74 78 79 77 77 78 79 79 79 79 78 78 78 78 78 78 79 78 78 78 78 78 79 79 80 80 80 80 80 80 80
78 77 66 58 50 51 58 70 67 73 74 75 73 79 76 74 80 79 78 79 77 76 77 77 79 79 79 79 78 78 78 78 78 78 78 78 78 78 78 78 78 79 80 80 80 80 79 79 79
74 70 63 52 53 60 64 69 73 73 76 77 74 74 79 81 80 82 80 79 76 77 77 78 78 78 78 79 78 78 78 78 78 78 78 78 78 77 77 78 78 79 80 80 80 79 78 78 78
68 62 52 46 52 61 67 72 75 73 73 74 75 71 73 82 81 80 78 79 75 76 76 78 78 78 78 79 78 78 78 78 78 78 78 78 77 77 77 77 78 79 79 79 79 78 77 77 78
61 58 46 44 53 64 66 70 74 74 77 76 73 74 72 79 78 78 80 76 78 75 76 79 79 78 78 78 78 78 77 77 77 77 77 77 77 77 77 77 78 78 78 78 78 77 77 77 77
59 51 47 47 53 58 66 70 68 72 74 74 78 72 73 76 80 79 80 78 78 77 77 79 78 78 78 78 77 77 77 77 76 76 76 76 77 76 76 77 77 77 77 77 77 77 77 76 76
63 54 47 51 53 55 67 68 67 70 74 84 82 70 69 75 79 79 80 77 74 74 77 79 78 77 75 76 77 77 77 77 76 76 76 76 76 76 76 75 76 77 77 77 76 76 76 76 76
65 50 45 52 54 61 67 63 69 77 74 78 80 77 81 81 76 76 74 73 72 74 74 78 78 76 75 75 77 77 78 77 76 76 76 75 73 73 74 74 76 77 77 76 76 76 76 76 76
56 46 51 60 63 61 66 65 65 69 71 72 74 81 81 80 76 73 72 71 71 72 71 76 78 75 74 78 76 75 75 75 74 74 74 72 71 70 73 74 76 76 76 76 76 76 76 76 68
56 51 56 60 64 66 66 68 70 66 64 68 70 76 79 76 74 71 72 73 73 73 73 73 76 77 73 76 76 77 76 76 75 73 72 70 70 70 70 68 70 69 74 69 72 71 69 68 67
52 60 62 63 65 65 63 69 69 69 71 74 77 76 79 76 73 72 70 70 72 72 75 73 74 76 72 74 78 78 77 76 75 74 71 69 68 67 67 66 66 67 67 67 67 67 67 67 68
54 59 63 65 65 63 67 65 65 69 74 78 78 79 76 74 73 73 74 72 73 72 74 74 73 74 73 74 77 77 77 75 75 73 71 70 67 67 66 65 65 66 66 66 66 67 67 67 68
56 59 60 61 62 61 62 66 64 70 74 75 75 74 73 73 74 72 72 72 70 72 73 75 74 73 73 74 75 76 76 74 72 72 72 70 68 65 65 66 66 66 67 67 68 68 67 67 68
58 53 56 57 57 58 61 58 62 68 72 71 73 75 73 73 75 75 75 72 73 72 73 73 74 73 73 74 72 72 73 73 72 72 72 72 69 67 67 66 66 68 67 68 68 68 68 67 68
51 49 42 51 57 61 60 51 63 67 68 68 70 71 72 73 73 74 74 72 71 70 71 72 76 73 74 75 74 74 73 73 73 73 73 73 72 71 68 69 70 69 69 69 68 68 68 67 67
43 38 42 48 57 58 56 52 61 65 64 63 64 67 69 70 69 70 73 70 70 70 70 71 72 73 73 74 75 76 73 71 73 73 73 73 74 72 71 71 71 69 68 69 69 68 68 68 67
39 40 45 45 54 54 53 54 59 62 62 62 65 64 65 67 70 69 69 68 67 68 68 69 73 72 71 70 70 70 69 69 70 72 75 74 74 73 72 71 70 69 68 69 68 68 67 68 68
49 46 45 52 59 51 53 54 56 59 59 60 60 59 62 64 69 67 67 66 64 64 65 66 67 68 71 69 68 68 68 68 69 69 72 73 74 73 72 74 71 70 71 70 70 69 68 67 67
49 46 46 52 57 52 51 51 57 57 59 60 59 58 60 59 60 62 63 63 63 63 63 64 66 67 68 69 68 67 67 67 69 69 71 73 74 72 71 71 70 70 69 69 69 68 66 66 67
49 45 47 47 53 53 49 46 50 55 58 62 61 58 60 61 61 60 61 61 61 61 61 62 63 64 64 66 66 65 65 66 65 66 66 68 71 73 71 71 70 71 70 70 68 68 67 67 66
43 53 52 51 45 38 50 37 48 50 53 56 59 58 60 61 61 60 60 59 60 62 61 61 62 62 62 63 65 65 64 63 64 65 66 66 69 69 72 72 71 70 69 70 69 70 69 67 67
48 54 51 49 43 37 41 34 42 48 49 54 56 59 58 59 61 61 60 64 63 60 59 59 60 60 60 60 61 61 62 63 63 64 65 64 66 68 68 72 74 73 70 70 69 67 67 67 67
56 49 45 41 38 30 41 38 41 48 49 52 57 59 60 61 61 61 64 63 59 59 59 58 59 59 59 59 59 60 60 59 60 61 62 63 64 65 67 68 68 73 75 76 77 72 68 66 65
47 40 27 27 27 32 43 38 44 49 55 55 55 56 57 59 62 56 56 60 59 58 57 58 59 59 58 59 59 58 59 58 59 59 60 61 62 62 64 65 66 66 67 70 74 73 72 69 67
40 39 28 25 25 30 38 32 41 53 56 56 55 54 54 52 53 56 60 63 62 59 58 59 58 59 58 60 60 59 59 58 58 59 59 59 59 61 63 64 65 66 68 68 68 67 67 67 68
40 33 43 32 33 28 31 39 50 53 52 54 54 55 53 53 55 54 56 56 58 58 58 58 58 59 60 61 59 58 58 57 58 59 58 59 60 63 63 63 63 65 65 67 66 65 66 67 69
42 44 33 33 25 23 29 32 35 45 48 51 51 49 52 53 54 55 56 58 56 56 59 58 59 60 60 59 59 60 59 59 58 58 59 58 59 60 61 62 62 63 64 64 63 65 66 65 67
38 38 38 36 33 23 21 30 44 44 47 49 50 54 52 53 54 54 55 56 56 57 56 56 58 59 58 58 58 58 59 59 58 58 58 58 58 59 60 62 63 63 63 63 64 65 67 67 67
45 40 39 29 29 33 30 29 47 47 51 49 50 55 58 54 56 54 56 55 56 55 56 57 56 54 58 60 58 58 57 57 57 58 59 59 59 60 61 62 63 64 64 63 62 63 66 67 65

GFSSGP_sfc_temp_078.txt.gz
Temp
72 75 73 73 61 57 49 56 62 64 66 70 72 69 68 70 70 63 73 78 77 75 76 78 79 79 79 79 79 79 79 79 79 79 79 79 79 79 78 78 78 79 80 80 80 80 80 80 80
72 78 73 63 55 50 55 62 61 62 70 72 70 72 71 69 77 73 73 77 77 76 76 77 79 79 79 79 78 78 78 78 79 79 79 79 79 78 78 78 79 79 80 80 80 80 80 80 80
76 74 65 56 49 51 56 67 66 67 75 71 69 75 73 73 79 77 77 77 76 75 79 77 79 79 79 79 78 78 78 78 78 79 79 78 78 78 78 78 79 79 80 80 80 80 79 79 79
72 69 61 53 50 59 62 66 71 71 74 73 74 70 75 79 77 77 78 77 75 76 79 79 79 79 79 79 78 78 78 78 78 78 78 78 78 77 77 78 78 79 80 80 80 79 78 78 78
68 61 50 46 51 60 67 69 72 71 72 72 72 70 70 78 77 77 76 78 74 75 78 78 78 78 79 79 78 78 78 78 78 78 78 78 77 77 77 77 78 79 79 79 79 78 77 77 78
61 57 45 44 53 63 65 68 71 71 71 75 73 70 70 77 75 75 77 75 76 75 75 79 79 78 78 78 78 77 77 77 77 77 77 77 77 77 77 77 77 78 78 79 78 77 77 77 77
59 51 45 47 53 58 64 68 66 68 69 73 76 69 72 77 75 75 76 74 75 77 75 78 79 77 78 77 77 77 77 77 77 77 77 77 77 77 77 77 77 77 77 77 77 77 77 76 76
59 54 45 47 52 55 65 67 66 68 70 79 77 67 67 76 77 76 74 72 72 74 75 79 79 77 75 75 77 77 77 77 76 76 76 76 77 76 76 75 76 77 77 77 77 76 76 76 76
62 48 44 49 53 58 64 61 64 73 71 72 77 74 77 79 74 72 70 70 71 74 76 79 79 78 75 74 76 77 77 77 76 76 76 75 74 74 75 75 76 77 77 76 76 76 76 76 76
55 44 51 57 60 60 61 61 61 64 66 68 71 78 77 75 71 71 70 68 69 72 75 78 78 77 75 77 75 74 75 75 74 74 74 73 71 71 73 75 76 76 76 76 76 76 76 76 71
51 47 54 59 63 64 61 61 68 63 61 65 68 73 74 74 72 69 71 72 71 72 75 77 78 77 73 75 74 74 74 75 73 73 72 71 70 71 72 70 72 71 75 72 74 73 72 71 70
50 57 59 60 63 62 61 65 64 65 65 71 72 73 75 73 72 69 69 70 71 70 73 76 77 76 73 74 75 74 73 74 75 75 74 69 68 68 69 69 68 69 69 69 69 69 70 70 71
51 56 59 63 60 59 62 61 63 66 70 72 73 75 71 71 71 70 70 71 71 70 72 74 74 75 74 73 75 75 75 77 77 76 75 71 69 68 68 67 67 67 68 68 68 69 69 69 70
56 55 57 58 60 59 59 62 59 63 70 70 71 70 71 72 71 70 69 68 69 71 72 73 73 73 74 74 75 75 76 77 76 76 75 71 70 68 67 67 67 67 67 68 69 69 69 69 70
55 50 55 55 57 59 60 57 58 65 68 66 68 69 70 71 72 73 73 70 71 72 72 72 72 73 73 74 74 75 76 77 76 75 73 72 70 68 68 68 67 68 68 69 69 69 69 69 70
48 46 41 51 55 61 55 51 61 64 63 64 67 68 69 67 71 71 72 72 71 71 70 72 75 72 72 73 73 74 75 75 75 73 72 72 72 70 68 69 69 69 69 69 69 69 68 69 69
41 35 36 47 53 54 52 49 59 64 61 60 62 64 66 70 67 69 69 70 69 70 71 71 72 72 71 73 72 72 72 72 72 71 71 72 72 72 70 70 70 69 69 69 70 70 70 69 69
37 37 41 42 52 52 50 50 56 59 59 59 58 59 62 65 69 70 70 69 68 68 68 71 71 71 71 72 70 69 69 70 72 73 72 72 72 72 70 70 69 70 69 68 69 70 69 69 69
45 42 42 47 55 48 48 51 53 56 56 56 59 57 57 59 68 66 65 65 65 64 64 66 68 68 69 68 68 67 67 68 68 69 72 73 72 72 71 72 69 69 70 70 70 70 70 69 69
46 43 42 47 53 49 48 48 52 53 56 57 57 57 56 56 59 63 63 62 62 66 64 64 68 67 69 70 70 68 68 67 68 68 70 71 72 72 71 71 71 70 70 70 70 70 69 69 69
45 42 43 44 50 50 47 46 48 53 56 59 60 58 57 57 57 59 60 59 59 61 62 64 66 67 68 67 66 65 66 66 66 68 68 70 71 72 71 70 70 71 70 69 68 68 67 68 68
41 50 50 48 42 35 47 36 47 49 51 55 58 56 56 57 59 59 60 59 58 60 60 62 63 64 66 67 66 66 64 63 66 67 68 68 70 70 72 71 70 70 69 68 68 69 69 67 67
46 52 48 47 41 35 39 33 43 46 46 50 55 59 57 57 58 61 61 61 61 60 59 59 61 61 62 64 66 66 63 64 64 65 65 66 67 68 69 71 71 70 69 69 69 68 67 66 66
53 46 43 39 36 30 40 38 42 48 47 49 53 56 57 57 57 57 62 61 59 57 58 57 58 58 59 60 60 61 62 61 61 62 63 64 65 66 67 68 68 69 68 69 70 69 69 68 68
46 38 31 25 25 31 40 35 43 49 53 52 52 53 53 53 52 55 55 58 59 56 58 57 57 57 57 58 59 60 61 60 60 61 61 61 63 64 66 67 67 68 69 69 68 69 70 70 70
39 38 28 22 25 31 37 33 39 51 54 53 53 52 52 51 51 52 52 55 60 60 60 60 57 57 57 58 58 58 59 59 59 59 60 61 62 63 65 65 66 68 69 69 70 70 69 68 68
37 32 37 26 30 28 30 36 46 49 51 52 52 53 51 51 51 52 54 52 55 57 58 59 57 57 57 58 57 57 58 58 58 59 59 60 60 63 64 66 66 68 69 69 68 68 67 67 67
41 43 28 32 24 24 29 30 33 41 43 47 49 49 51 52 52 53 53 53 55 57 56 56 56 58 59 59 58 59 58 58 59 58 58 59 61 62 63 63 64 65 66 67 66 66 66 66 67
35 33 35 35 32 26 25 29 41 40 42 47 47 49 49 50 52 53 54 54 55 56 57 57 56 55 56 57 57 58 59 59 59 59 59 59 60 61 62 63 64 64 65 65 64 65 66 66 67
40 36 34 25 24 30 30 31 46 45 46 47 49 50 50 51 52 55 58 57 55 55 57 57 57 58 57 57 58 58 59 58 58 58 59 59 60 61 63 64 64 65 66 64 64 64 66 66 66

GFSSGP_sfc_temp_081.txt.gz
Temp
82 86 87 88 75 74 68 71 77 77 78 84 84 81 80 81 81 78 84 88 86 86 86 84 79 80 80 80 79 80 80 80 80 79 79 79 79 79 79 79 79 79 80 80 80 81 81 80 80
84 86 86 79 70 64 69 74 74 77 82 84 83 83 81 80 85 82 83 85 87 85 85 86 79 80 80 79 79 79 79 79 79 79 79 79 79 79 79 78 79 80 80 80 80 81 81 80 80
84 83 81 72 66 62 66 74 75 80 84 84 83 86 84 83 88 87 88 86 86 84 85 84 79 79 79 79 79 78 79 79 79 79 79 79 79 78 78 78 79 80 80 80 81 80 80 80 79
83 84 76 68 63 66 68 73 77 80 85 86 83 80 87 90 87 87 88 87 86 85 86 82 79 79 79 79 79 78 78 79 79 79 79 79 78 78 78 78 78 79 80 80 80 79 79 79 79
81 77 67 63 63 67 71 76 79 79 81 83 84 78 83 90 85 85 84 85 86 87 87 85 79 78 79 79 79 78 78 78 78 79 79 78 78 77 77 78 78 79 80 80 79 79 78 78 78
74 74 62 59 62 68 72 76 78 78 79 82 82 81 84 89 85 84 86 86 88 87 86 86 80 78 78 78 78 78 77 77 78 78 78 78 77 77 77 78 78 79 79 79 79 78 77 77 77
70 66 63 62 62 65 70 77 75 75 76 79 86 78 85 91 87 85 86 86 87 88 86 86 85 82 78 78 77 77 77 77 77 77 77 77 77 77 77 77 77 78 78 78 78 77 77 77 77
72 69 58 61 61 62 72 75 76 77 76 86 86 77 79 88 86 86 84 86 86 86 88 87 85 86 84 84 77 77 77 77 76 77 77 77 77 77 77 76 76 77 77 77 77 77 77 77 76
71 63 58 61 61 65 70 70 77 81 78 81 83 83 87 90 85 83 82 82 84 84 85 86 85 84 85 86 83 78 77 77 76 77 77 77 85 83 82 80 77 77 77 77 77 77 76 76 77
68 60 60 66 68 67 71 72 73 73 74 75 78 86 87 90 83 84 82 81 81 82 84 86 83 83 83 85 84 83 84 84 83 83 82 83 83 84 84 81 76 77 77 77 77 76 76 77 88
63 61 64 66 71 72 70 71 76 72 69 74 73 81 85 86 87 83 84 86 84 84 84 85 82 81 82 83 83 84 84 83 82 82 81 82 82 82 83 84 83 83 79 84 82 83 85 84 85
62 66 67 69 71 70 68 73 70 72 73 80 81 81 82 83 82 87 85 84 84 82 83 83 83 81 79 84 82 83 83 83 82 82 80 79 80 80 81 83 84 81 84 83 83 85 82 82 82
63 65 67 71 70 70 71 68 71 73 78 81 82 81 80 82 83 83 86 87 84 81 81 82 82 81 79 79 82 82 82 82 83 83 81 77 79 79 81 81 82 82 83 83 82 82 81 81 81
66 65 67 69 70 70 68 71 69 74 78 78 79 80 82 82 83 85 84 83 81 82 81 82 81 81 79 79 80 80 81 82 82 83 82 78 78 78 79 79 80 81 81 82 81 81 81 81 82
66 62 64 67 68 67 70 65 66 75 75 75 76 79 81 82 83 82 83 82 83 82 82 80 80 80 79 78 81 82 83 83 82 82 79 77 77 77 77 79 80 77 79 78 78 79 79 80 81
62 60 57 65 64 68 66 59 70 73 72 72 74 77 79 81 80 84 83 79 81 82 80 80 81 80 78 79 81 82 83 83 83 80 82 78 77 78 77 79 79 80 79 79 80 81 80 81 82
57 55 54 59 66 64 64 60 68 74 72 70 71 73 76 79 81 81 82 83 79 77 79 78 79 79 78 78 80 81 81 82 83 81 80 79 79 79 79 79 79 78 80 80 81 81 79 81 81
51 52 53 54 63 64 61 60 66 70 70 69 71 72 73 74 77 80 81 81 82 79 78 76 77 78 77 78 78 79 78 80 82 80 80 78 79 78 76 79 77 78 80 80 80 77 81 81 82
56 53 52 58 64 58 60 61 64 69 68 69 72 74 72 72 77 76 76 76 77 77 77 77 76 76 76 74 72 73 75 75 77 79 79 79 77 79 78 80 79 78 78 78 77 76 77 79 79
55 53 54 58 62 58 60 59 65 66 68 71 71 72 74 74 76 77 75 75 74 75 75 76 77 77 76 77 78 77 77 75 77 76 75 77 79 78 78 80 80 77 79 77 76 76 78 79 79
56 53 54 54 59 61 59 57 62 67 67 70 72 73 74 73 73 74 75 75 74 73 75 76 76 76 75 76 77 75 75 75 75 75 76 75 77 78 77 76 75 76 76 78 76 77 74 73 73
52 59 57 54 53 48 57 44 57 63 64 67 69 71 73 74 74 74 75 75 75 75 75 75 76 76 75 76 75 73 74 73 77 79 80 77 76 75 76 75 76 75 75 75 74 73 73 71 71
56 59 56 55 52 50 52 46 54 61 58 63 67 70 73 74 71 72 73 75 76 75 74 74 74 75 77 75 77 76 75 77 79 79 77 77 77 77 76 76 75 72 72 72 71 66 65 63 64
58 56 55 52 51 41 50 48 49 56 59 62 67 69 70 69 69 70 72 71 72 75 75 73 72 73 75 75 76 75 74 75 75 76 77 78 79 78 76 76 71 68 68 68 70 66 66 65 63
55 50 42 41 41 39 50 45 50 59 62 63 63 65 66 66 67 68 69 70 70 72 73 74 73 72 72 73 75 75 75 75 74 75 77 76 77 77 76 75 74 71 71 72 70 67 64 64 64
50 49 40 30 35 39 48 40 50 59 61 62 63 63 65 65 67 68 68 67 69 69 72 72 73 73 71 71 72 73 73 76 76 75 77 77 77 77 77 76 76 75 75 75 71 71 69 68 70
47 44 48 38 42 37 44 49 56 59 58 59 60 61 62 64 66 66 69 69 68 68 69 70 72 72 70 71 71 71 72 73 74 73 73 75 75 77 75 75 75 76 76 75 74 73 71 72 72
51 53 39 41 26 28 41 41 44 51 52 57 59 58 59 62 64 66 68 68 68 68 69 67 69 70 70 70 71 71 71 72 72 72 72 72 73 73 74 74 75 75 76 76 75 75 75 74 74
46 44 44 41 34 30 31 41 52 50 53 54 57 58 59 60 62 64 66 69 71 72 70 69 68 66 66 69 71 71 72 73 72 72 72 72 72 73 74 74 74 75 75 75 74 75 76 75 75
50 47 46 36 34 37 36 38 59 55 55 57 57 59 60 60 62 64 66 68 69 68 70 72 69 71 70 69 68 70 72 71 71 72 72 73 72 73 75 75 75 76 76 75 75 75 77 75 75

GFSSGP_sfc_temp_084.txt.gz
Temp
90 101 101 95 82 83 78 80 88 84 86 92 92 91 90 92 89 84 96 98 100 98 93 88 80 80 80 80 80 80 80 80 80 80 79 79 79 79 79 79 79 80 81 81 81 81 81 81 81
97 97 98 92 77 74 78 85 83 86 89 93 92 92 90 88 94 93 95 96 98 96 92 92 79 80 80 80 79 79 80 80 79 79 79 79 79 79 79 79 79 80 81 81 81 81 81 81 80
95 95 88 84 79 74 80 83 85 87 91 92 90 93 91 89 95 96 98 97 98 94 93 91 80 79 80 80 79 79 79 79 79 79 79 79 79 79 79 79 79 80 81 81 81 81 81 80 80
94 93 89 76 74 79 79 83 86 86 90 93 92 87 95 97 94 97 98 98 96 95 95 83 79 79 79 79 79 79 79 79 79 79 79 79 79 78 78 79 79 80 81 81 81 80 79 79 79
95 89 76 74 76 77 81 85 86 85 87 89 92 86 89 94 95 95 96 97 96 97 96 89 79 79 79 79 79 79 79 79 79 79 79 79 78 78 78 78 79 80 80 80 80 79 79 79 79
83 85 72 70 74 76 81 85 86 86 87 89 89 88 90 99 97 94 97 98 100 98 96 92 81 79 79 79 78 78 78 78 78 78 79 78 78 78 78 78 79 79 79 79 79 78 78 78 78
79 77 71 75 75 72 80 85 84 85 85 86 92 85 92 96 99 97 96 98 100 100 97 94 91 85 78 78 78 78 77 78 77 77 77 77 78 77 77 77 78 78 79 78 78 78 78 77 78
83 80 72 74 71 70 80 81 86 85 84 92 92 85 86 94 97 99 98 98 100 100 99 97 93 92 90 90 78 77 77 77 77 77 77 77 77 77 77 76 77 78 78 78 78 78 78 77 77
84 72 70 71 67 73 78 79 86 87 84 88 90 90 93 97 97 96 95 96 98 98 97 98 95 92 92 95 88 78 78 77 77 78 77 77 89 87 85 83 77 77 78 77 77 77 77 77 77
77 71 72 78 78 75 79 81 83 81 82 84 87 92 96 96 95 94 94 95 94 95 97 98 93 93 93 95 91 88 89 88 87 88 86 88 89 91 91 86 77 77 77 77 77 77 77 78 94
77 71 78 76 78 81 79 79 83 79 76 83 83 88 92 93 93 92 95 97 97 95 96 97 92 89 91 93 92 90 91 89 88 88 88 87 90 90 90 91 88 86 80 89 85 86 88 91 94
70 76 77 78 80 78 76 80 79 80 80 87 88 90 91 90 92 94 94 97 97 96 95 95 94 89 88 93 92 92 91 89 90 89 87 88 88 87 88 91 92 88 92 89 91 92 90 89 89
72 74 76 79 79 79 80 76 77 80 85 88 89 89 89 90 92 94 95 96 96 94 94 93 93 89 87 86 91 91 91 90 90 90 88 88 88 86 88 89 91 91 93 92 90 90 89 89 88
75 74 76 77 78 79 75 77 79 80 84 85 86 86 89 90 92 93 93 93 92 94 94 93 92 88 87 86 87 86 88 90 89 90 89 86 87 86 88 86 87 89 91 92 91 90 89 89 91
75 69 74 76 77 76 78 72 74 82 84 81 82 85 87 88 92 91 93 91 91 91 90 90 89 89 85 83 84 87 88 88 88 89 87 85 83 84 84 85 88 89 89 86 86 86 88 89 91
70 70 66 76 74 76 73 67 78 81 81 79 82 83 85 87 90 92 92 91 92 92 92 89 88 87 85 85 85 87 87 86 89 89 89 85 84 85 84 86 84 87 88 88 88 88 88 89 90
68 64 65 67 76 74 72 68 76 80 79 78 80 82 84 85 88 89 91 92 91 90 88 90 88 88 84 83 84 86 87 89 91 91 91 86 83 84 86 88 88 85 88 87 88 88 87 88 88
63 63 64 63 71 72 70 70 76 80 79 78 79 81 83 84 86 89 89 90 90 88 85 85 89 86 85 84 83 86 87 88 89 90 90 88 86 85 84 89 87 85 87 88 87 83 87 87 89
65 63 62 66 72 68 67 68 72 77 78 78 80 81 82 83 87 88 89 89 87 85 84 84 83 81 83 82 82 83 84 86 88 89 87 87 86 85 84 86 86 84 86 86 84 83 81 85 86
64 62 62 67 70 68 67 66 72 75 76 77 78 79 81 83 85 87 88 89 86 84 82 83 84 84 82 83 81 83 83 85 86 88 86 85 85 85 84 82 84 84 87 84 83 81 84 84 87
64 61 62 61 67 69 66 63 68 76 78 78 79 80 82 81 82 84 86 86 87 85 83 82 82 84 84 85 85 82 84 84 81 84 84 83 83 83 82 82 83 84 82 85 81 81 80 83 84
59 68 64 62 60 56 67 52 64 70 72 75 77 79 80 81 83 84 85 84 85 85 86 85 82 82 85 83 84 79 80 79 83 84 86 84 82 82 83 81 81 79 82 79 81 82 83 80 78
62 66 64 63 60 59 60 57 63 70 67 71 74 76 78 81 81 80 81 81 83 83 83 83 81 81 82 83 82 83 79 84 86 87 85 82 82 82 83 81 80 79 81 79 78 77 74 74 70
67 64 64 64 61 50 58 57 60 63 65 68 71 74 76 76 76 78 80 81 81 83 84 84 81 79 81 82 80 81 81 82 86 84 86 86 86 84 82 83 80 79 77 78 77 74 74 71 70
64 59 50 49 51 50 61 55 58 65 66 67 67 70 72 74 75 76 77 78 79 79 80 80 81 79 81 81 81 80 80 81 81 83 85 85 87 86 83 81 81 82 79 78 76 75 74 72 69
60 58 48 36 43 49 57 48 59 67 67 68 68 70 71 72 74 75 76 76 78 78 78 78 78 79 82 82 78 78 79 81 84 83 87 87 89 88 85 82 83 82 82 80 79 78 78 71 71
58 52 59 47 49 45 53 58 65 65 65 66 67 68 69 70 72 73 75 76 76 77 77 76 76 77 80 82 80 77 79 80 83 83 82 85 85 88 85 83 82 83 83 82 80 81 78 77 73
59 62 46 52 32 35 49 51 54 60 60 64 65 66 68 70 71 73 74 74 75 77 78 77 75 74 78 80 79 79 79 80 81 80 79 82 82 83 83 81 81 82 82 80 78 77 78 75 76
55 53 52 50 45 35 37 49 61 60 63 61 65 67 68 68 70 72 73 74 76 77 77 76 76 76 76 77 78 78 78 79 80 79 80 80 80 80 81 82 81 81 80 80 77 77 77 75 75
59 55 55 42 41 44 43 45 65 64 65 65 66 68 69 69 70 72 73 73 74 75 76 75 74 76 77 76 75 74 76 78 78 78 79 80 79 80 81 81 81 82 81 80 79 79 81 79 78

GFSSGP_sfc_temp_087.txt.gz
Temp
88 104 106 99 82 84 80 86 94 89 90 97 98 96 95 98 91 80 103 104 106 100 93 88 80 81 81 81 80 80 79 79 79 79 79 79 79 79 79 79 80 80 81 81 81 81 81 81 81
98 101 101 93 79 75 78 91 88 92 94 97 97 97 96 92 100 100 101 101 105 99 93 93 80 80 80 80 80 80 79 79 79 79 79 79 79 79 79 79 80 80 81 81 81 81 81 81 81
95 101 90 85 80 76 77 86 92 94 95 95 94 98 96 91 99 100 102 102 104 98 95 91 80 80 80 80 80 79 79 79 79 79 79 79 79 79 79 79 80 80 81 81 81 81 81 80 80
96 96 92 79 77 85 85 90 93 91 95 97 96 91 98 98 97 101 102 104 101 99 98 82 79 79 80 80 79 79 79 79 79 79 79 79 79 79 79 79 79 80 81 81 81 80 80 80 80
97 91 80 78 78 87 90 92 91 90 91 94 95 91 91 99 100 102 101 103 101 101 100 89 79 79 80 80 79 79 79 79 79 79 79 79 79 78 78 79 79 80 81 81 80 80 79 79 80
85 88 75 73 79 86 88 92 91 91 93 94 93 91 93 102 100 101 103 103 105 102 101 92 81 79 79 79 79 79 79 79 79 79 79 79 78 78 78 79 79 80 80 80 80 79 79 79 79
81 80 75 78 79 83 86 93 89 90 92 91 96 88 96 99 102 103 102 104 106 104 102 95 90 84 79 78 78 78 78 78 78 78 78 78 78 78 78 78 79 79 79 79 79 79 79 79 79
86 81 75 79 77 79 89 89 92 90 89 98 95 87 90 97 101 105 105 105 106 105 103 99 93 91 89 88 78 78 78 78 77 78 78 77 78 78 78 77 78 79 79 79 78 78 78 78 78
91 75 70 74 78 82 88 85 89 95 89 92 95 95 98 100 102 102 101 102 104 104 102 101 97 93 93 95 87 78 78 78 77 79 78 77 88 86 84 82 78 78 78 78 78 78 78 78 78
81 74 75 83 85 84 84 86 88 89 87 88 91 96 99 100 99 97 99 99 100 101 102 103 96 95 94 98 92 88 89 87 86 87 85 88 89 91 91 86 78 78 78 78 78 78 78 78 90
82 75 84 85 84 84 84 84 90 86 81 87 87 92 97 97 97 97 98 100 102 102 102 103 96 94 94 96 95 92 92 90 89 88 89 87 90 91 91 90 87 85 80 87 83 83 86 89 92
77 83 84 85 84 82 79 85 82 84 86 92 93 93 94 94 95 97 99 101 102 102 100 100 100 93 92 97 96 94 93 92 91 90 89 89 89 89 90 92 91 88 90 88 91 91 89 90 92
79 82 84 86 85 84 84 80 81 83 89 92 92 92 92 92 94 97 99 100 100 99 100 97 97 93 91 90 95 94 93 93 92 92 90 90 89 88 89 90 93 91 93 91 91 92 91 90 90
82 81 82 83 84 84 80 80 82 84 88 87 88 88 91 92 94 94 95 96 97 98 99 99 97 93 90 88 89 91 92 93 92 92 90 89 90 88 89 89 90 93 93 95 92 92 91 89 91
81 75 78 80 82 80 83 75 77 86 88 85 86 87 89 91 94 94 96 95 97 95 95 96 95 94 89 87 88 91 92 93 91 92 89 88 87 87 86 86 89 91 91 91 91 90 89 89 92
75 75 70 81 81 82 77 69 83 88 84 83 85 87 87 88 92 95 96 96 95 94 93 93 95 94 89 86 86 88 90 90 91 87 91 87 84 86 86 88 88 90 89 88 88 87 88 89 91
73 67 70 75 82 79 77 72 82 85 83 81 83 86 87 88 90 91 93 94 94 93 92 91 92 91 89 86 86 85 87 89 90 90 91 86 83 83 84 87 89 87 90 88 88 86 87 88 89
68 68 72 70 78 77 74 74 81 85 84 82 83 85 86 87 88 92 93 92 92 91 89 89 89 91 88 88 85 84 86 88 90 90 89 88 85 84 83 87 82 86 88 88 88 84 88 89 89
72 70 69 74 78 73 72 73 77 81 82 81 83 84 85 87 91 93 93 93 92 91 89 85 83 80 89 89 87 83 84 87 89 90 90 90 87 86 82 86 87 86 85 85 85 86 83 86 86
70 67 67 73 76 73 71 70 76 79 80 82 81 82 84 86 88 90 91 92 91 89 89 88 86 85 84 86 84 85 84 89 90 91 89 90 89 88 85 84 86 84 86 83 84 82 84 84 86
68 66 67 67 72 74 70 67 72 79 82 83 84 84 85 84 84 86 88 89 90 89 87 87 87 86 84 85 88 85 85 85 85 86 87 86 86 86 84 84 85 85 84 85 83 83 80 82 84
63 73 70 66 64 59 72 56 68 75 77 80 82 83 84 84 85 86 86 87 86 86 88 87 86 84 86 83 85 81 83 82 86 86 88 88 86 85 85 83 83 82 86 82 83 83 82 79 81
66 73 68 67 64 63 64 61 67 75 72 75 77 79 80 82 83 82 83 84 85 85 85 85 84 83 84 83 83 85 79 84 88 89 84 84 83 83 84 84 83 82 84 83 82 80 78 81 80
73 68 67 68 65 54 63 62 64 70 69 71 74 76 77 79 80 81 83 84 83 85 85 83 82 81 84 83 82 80 80 78 86 85 86 87 86 84 82 85 83 82 82 82 82 80 80 78 78
69 62 53 52 52 50 66 61 64 71 71 70 70 73 76 77 78 79 80 81 79 82 82 82 81 79 81 83 82 82 79 79 78 78 78 84 87 86 80 82 82 83 82 83 82 79 78 77 75
66 63 53 41 46 54 64 54 65 72 73 72 73 72 75 74 75 75 77 78 80 80 80 81 79 78 79 81 83 83 80 78 77 77 83 87 86 88 84 82 84 83 83 81 78 77 78 78 73
62 58 65 53 55 50 57 63 71 72 70 70 72 72 72 74 75 76 77 78 79 78 79 79 79 78 78 79 81 82 80 77 76 79 78 86 85 88 82 82 83 83 80 80 79 80 78 80 78
63 68 51 56 38 39 53 55 59 64 65 69 70 70 73 75 76 76 77 78 78 78 79 79 78 78 79 78 80 83 81 78 78 78 75 75 81 86 83 82 82 82 83 83 80 81 80 77 79
58 57 58 57 51 38 40 52 67 64 66 67 70 72 73 74 75 75 77 78 79 79 80 78 78 77 78 79 79 79 81 82 76 71 69 73 78 84 86 85 84 84 84 83 80 80 81 79 76
64 59 59 46 45 51 49 50 70 67 70 70 71 73 75 74 74 76 76 77 77 78 79 77 76 77 78 79 77 78 77 80 79 75 66 71 81 82 84 84 84 84 84 83 81 80 82 78 75

GFSSGP_sfc_temp_093.txt.gz
Temp
76 86 87 79 61 59 56 65 77 78 83 84 89 85 81 82 78 65 83 86 83 79 79 81 80 80 80 79 79 79 79 79 79 79 79 79 79 79 79 79 79 80 80 81 81 81 81 81 81
80 85 80 72 57 50 59 74 75 77 85 89 90 87 84 79 89 85 82 85 83 79 78 79 80 80 80 79 79 78 79 79 79 79 79 79 79 79 79 79 79 80 81 81 81 81 81 80 80
82 85 66 62 56 55 60 75 80 82 87 88 85 89 85 82 89 87 86 85 82 80 79 79 80 80 80 79 79 78 78 79 79 79 79 79 78 78 78 79 79 80 81 81 81 80 80 79 79
81 77 69 56 55 65 71 78 84 84 87 91 88 81 87 91 91 90 89 88 83 82 80 79 79 79 80 79 79 79 79 79 79 79 79 78 78 78 78 79 79 80 81 81 80 79 79 79 79
75 71 57 53 59 71 78 85 85 82 86 86 87 79 80 90 93 93 89 88 84 82 78 78 79 79 80 80 79 79 79 78 78 79 79 78 78 78 78 78 79 79 80 80 79 79 78 78 78
63 66 52 52 61 73 81 85 85 84 87 88 84 81 79 90 91 91 92 89 88 79 78 78 79 79 79 79 79 78 78 78 78 78 78 78 78 78 78 78 78 79 79 79 79 78 78 78 78
61 56 53 59 64 71 79 86 80 81 83 84 88 77 76 86 89 92 92 92 86 83 79 78 78 79 79 78 78 78 78 78 77 77 77 77 77 77 77 77 78 78 78 78 78 78 78 77 78
67 60 56 63 64 68 80 86 86 79 83 93 92 75 70 80 90 90 90 86 85 84 80 77 76 76 76 77 78 78 77 77 77 77 77 77 77 77 77 76 77 78 77 77 77 77 77 77 77
76 58 55 60 66 71 79 76 84 88 83 87 86 84 86 90 91 89 84 84 85 85 81 80 77 76 76 76 78 77 78 77 77 77 77 76 74 75 76 76 77 77 77 77 77 77 77 77 77
65 59 60 70 74 73 77 78 81 82 79 81 82 89 92 90 87 84 81 77 78 83 81 82 80 79 79 83 77 75 78 79 76 76 75 74 74 74 77 76 77 77 77 77 77 77 77 77 70
65 60 67 73 78 80 79 76 79 76 71 77 80 82 85 85 82 81 81 81 82 82 85 83 81 81 81 84 76 76 76 75 75 75 75 74 76 76 77 74 76 72 76 72 74 73 71 70 69
59 70 73 73 79 79 74 79 78 76 76 83 84 85 86 83 81 81 82 86 81 81 83 84 80 81 78 76 78 78 77 76 76 77 75 75 74 73 76 73 72 71 72 69 69 68 69 69 72
65 69 75 76 76 73 78 73 74 76 82 85 86 85 82 81 79 82 81 83 82 80 82 79 78 75 77 80 81 80 80 78 78 78 77 76 76 74 74 74 74 73 72 71 69 70 71 71 72
70 71 72 74 74 72 72 73 74 76 81 82 81 78 79 81 81 79 81 82 81 78 77 77 76 75 81 85 82 82 82 80 79 79 79 79 78 77 78 75 76 75 74 74 73 73 72 72 73
74 64 70 71 69 70 72 66 69 77 80 78 78 77 79 81 82 81 79 80 81 76 77 75 74 73 75 83 80 80 81 81 81 81 79 79 79 78 78 77 77 77 77 75 74 74 74 75 76
65 61 53 65 71 73 70 57 72 77 77 74 77 78 79 78 81 81 81 77 79 77 75 76 82 79 79 81 83 79 79 79 79 82 79 80 79 76 78 79 79 78 79 78 77 76 76 75 75
56 48 52 60 70 70 65 59 73 75 75 72 74 75 77 76 77 78 81 78 76 76 76 77 76 73 76 75 76 77 76 76 77 78 80 79 80 79 79 78 79 74 77 78 77 77 79 76 71
51 52 57 58 69 70 62 62 70 73 73 72 72 73 74 76 76 78 77 79 78 75 74 75 75 76 69 69 74 75 74 74 76 77 77 76 75 78 79 79 76 77 76 77 73 74 73 75 76
63 59 58 63 70 66 63 62 66 68 67 68 68 69 70 72 77 77 77 77 76 73 72 73 74 73 72 69 70 72 70 72 72 73 76 76 75 76 78 79 76 75 78 76 71 71 70 70 71
63 58 56 63 70 63 61 60 63 66 67 68 69 69 69 69 72 75 74 72 71 69 69 71 71 71 70 68 68 70 71 73 74 74 74 76 77 78 74 78 77 77 76 77 72 75 74 74 72
58 56 57 57 64 64 60 54 60 68 69 72 71 71 70 69 67 69 70 68 69 69 69 69 68 69 69 69 69 67 68 70 70 72 72 75 76 78 78 77 78 77 78 76 76 75 76 73 73
54 66 66 63 55 45 59 40 54 61 63 70 68 65 65 66 68 68 68 67 68 69 69 68 68 67 69 68 66 64 63 66 73 70 72 73 76 76 76 74 74 72 78 76 73 74 76 77 73
60 66 62 60 52 49 52 43 51 60 61 61 62 65 64 65 67 67 68 70 68 69 67 67 67 67 67 66 65 63 63 67 70 68 70 71 73 75 76 75 72 72 70 76 78 75 74 77 76
69 61 58 54 49 37 50 47 49 57 59 60 63 65 67 66 67 67 68 69 67 68 67 66 66 65 67 66 66 63 63 65 68 71 67 70 71 75 77 76 75 72 71 73 76 76 74 76 77
61 49 36 34 34 36 54 48 51 62 63 63 62 63 64 65 65 64 62 65 64 63 65 67 66 65 66 66 66 66 65 63 65 69 71 71 70 70 75 74 74 74 72 73 76 71 75 77 76
57 53 40 29 31 39 55 43 53 63 64 65 65 63 65 61 64 63 62 66 65 65 66 65 65 64 64 64 64 63 64 64 68 67 68 67 70 70 73 73 73 75 76 73 72 71 72 72 72
55 49 55 43 45 37 43 52 62 64 61 63 62 63 61 63 64 65 65 65 65 65 65 65 65 64 64 64 64 63 63 63 63 64 65 66 68 71 70 67 67 69 73 75 67 61 61 69 71
56 61 42 42 31 29 43 47 48 53 55 60 58 57 58 61 62 62 64 65 65 65 66 65 64 64 64 63 63 65 63 63 62 61 63 65 67 65 60 62 62 64 64 64 65 63 61 60 66
51 48 50 48 41 28 28 41 58 54 57 56 57 61 61 61 60 63 64 65 65 64 63 64 63 63 63 63 63 62 62 63 61 59 61 64 62 58 59 62 62 62 62 63 60 60 62 61 60
59 51 50 35 37 39 36 40 60 58 59 59 59 61 60 59 62 61 61 62 62 62 62 60 59 60 60 61 62 62 61 61 60 60 60 60 59 58 59 61 62 63 63 62 60 60 61 60 60

GFSSGP_sfc_temp_096.txt.gz
Temp
75 78 78 74 59 54 51 59 68 71 74 80 84 80 78 77 75 66 79 85 80 77 78 79 79 80 80 79 79 78 78 79 79 79 78 78 79 79 78 78 79 79 80 80 81 80 80 80 80
75 81 74 66 54 46 52 68 67 74 81 82 84 82 79 76 82 77 76 82 80 78 77 78 79 79 79 79 78 78 78 79 78 78 78 78 78 78 78 78 79 80 80 80 81 80 80 80 80
79 80 63 57 51 50 55 71 72 78 84 82 80 85 81 78 80 81 81 81 79 77 77 78 79 79 79 79 78 78 78 78 78 78 78 78 78 78 78 78 79 80 80 81 81 80 80 80 79
75 69 64 53 51 62 67 74 75 79 84 87 82 78 83 88 86 83 83 81 79 77 78 79 79 79 79 79 78 78 78 78 78 78 78 78 78 78 78 78 79 80 80 81 80 79 79 79 78
69 61 51 47 55 65 74 78 79 77 83 79 81 76 76 84 85 84 82 83 78 76 77 78 79 79 79 79 79 78 78 78 78 78 78 78 78 77 78 78 78 79 80 80 79 78 78 78 78
60 58 46 48 57 69 74 80 78 81 81 80 78 77 76 84 84 83 84 82 80 76 76 78 79 79 78 79 78 78 78 78 78 78 78 78 77 77 77 78 78 78 79 79 78 78 78 77 77
56 50 46 51 57 65 72 83 78 79 81 79 81 74 75 81 84 86 84 83 80 78 76 77 77 78 79 78 78 78 77 77 77 77 77 77 77 77 77 77 77 78 78 77 77 77 77 77 77
60 54 48 52 57 61 73 81 79 79 82 88 87 74 70 79 87 86 85 82 79 77 78 76 76 77 76 76 78 78 77 77 77 77 77 77 77 77 77 76 76 77 77 77 77 77 77 77 77
64 49 48 51 56 63 76 74 83 86 84 84 82 81 85 88 86 81 77 77 78 78 76 76 76 75 75 76 77 77 78 77 77 77 77 75 74 75 76 76 76 77 77 77 77 76 76 76 77
55 50 52 60 64 68 72 75 79 79 78 76 81 84 84 83 83 78 77 74 76 76 76 76 75 75 75 79 76 76 76 76 75 75 75 74 73 73 76 76 76 77 77 77 76 76 76 76 69
55 52 61 67 69 74 74 72 78 75 71 75 75 80 80 79 78 79 74 78 76 77 79 78 76 75 76 78 75 76 76 78 76 75 74 73 73 73 74 72 74 73 76 72 74 72 70 69 67
50 62 65 68 70 74 73 76 76 76 77 81 80 80 80 78 75 76 80 79 78 77 79 79 78 77 77 79 75 75 75 75 76 75 74 72 72 71 72 72 71 70 71 69 69 69 68 67 68
54 62 66 70 71 68 76 74 75 78 83 83 83 81 77 76 76 76 78 81 78 75 78 78 76 77 79 76 77 76 75 75 75 75 74 74 74 73 73 73 72 71 71 69 68 68 68 68 69
62 64 67 67 69 66 67 69 73 76 80 80 80 77 77 76 78 76 76 78 76 74 78 78 78 76 77 77 76 76 76 76 75 76 75 75 75 75 74 73 73 73 72 72 71 69 69 70 70
66 59 63 67 66 66 69 62 65 76 78 77 77 75 77 79 79 77 78 75 74 72 72 75 76 72 71 74 76 78 78 77 76 76 76 76 75 75 75 73 74 75 74 72 70 70 69 68 71
60 57 53 63 66 69 67 55 70 76 74 73 75 75 76 76 78 78 79 76 75 73 70 71 79 75 70 73 75 76 76 75 77 78 77 77 77 76 75 76 75 75 74 72 71 71 71 71 70
51 46 49 56 65 66 62 56 69 74 72 70 72 72 75 75 74 75 77 75 74 74 71 71 73 74 74 73 74 76 75 73 72 72 76 76 77 77 76 76 77 74 75 73 72 69 68 71 73
47 48 51 53 62 60 57 60 65 70 69 68 69 71 72 73 75 77 76 75 72 70 70 69 68 67 66 64 68 72 71 73 71 72 71 72 72 74 73 74 73 75 73 74 71 73 71 73 74
56 55 53 57 66 62 61 61 64 65 65 63 65 65 67 71 73 71 71 71 69 67 68 68 68 67 67 67 65 68 69 70 71 71 72 72 71 73 71 73 76 71 76 76 73 74 73 72 68
58 53 53 59 64 58 56 57 62 64 64 65 66 66 67 64 66 67 67 67 67 66 66 66 68 68 67 67 65 66 65 68 70 72 73 72 71 71 71 70 72 76 76 73 73 73 69 71 69
57 54 54 55 60 60 56 52 56 64 65 67 66 63 64 64 63 64 66 65 66 65 65 66 66 66 66 67 66 65 62 62 63 66 68 71 72 73 72 73 71 75 76 70 74 74 75 74 67
50 62 61 58 51 44 55 39 49 57 60 61 60 59 61 62 63 64 64 63 65 64 65 65 65 65 66 65 63 62 61 60 63 61 64 66 70 72 74 73 72 71 72 74 70 73 71 72 74
56 63 59 56 48 44 48 41 48 53 53 55 57 59 60 62 63 63 63 65 65 65 64 64 64 64 64 63 63 61 60 60 62 61 62 62 64 69 72 73 73 71 70 71 72 71 69 68 68
65 57 52 48 44 36 45 44 43 49 54 55 57 60 62 61 62 64 64 65 64 63 63 63 64 64 64 64 63 62 61 60 58 60 60 64 69 68 70 71 71 72 71 71 71 70 70 68 68
57 46 34 33 33 34 48 44 46 54 58 59 57 59 61 63 62 63 63 64 61 61 63 64 64 64 64 63 64 64 63 61 60 60 60 61 64 67 70 69 69 70 72 71 71 69 69 68 67
51 48 35 30 30 35 48 40 49 58 60 62 64 62 61 61 62 63 64 64 63 64 63 62 62 62 62 62 62 61 61 59 60 60 60 60 60 65 68 67 69 70 71 71 71 69 69 69 67
51 44 51 41 41 35 40 48 55 60 60 61 60 60 59 59 60 61 61 61 61 61 63 62 61 61 61 61 60 59 60 59 58 59 59 59 60 63 64 66 67 67 68 69 69 67 68 66 62
55 59 41 39 31 28 40 46 46 50 54 58 57 57 58 59 59 58 60 60 59 57 57 57 57 56 56 57 57 59 59 60 59 57 57 58 59 60 61 62 63 64 65 65 64 64 64 64 63
48 46 48 44 39 27 26 39 54 54 53 55 57 60 56 54 55 56 56 56 55 54 54 53 54 54 54 55 55 56 57 58 57 56 57 57 58 59 58 60 60 62 63 62 60 60 61 60 60
51 47 45 33 35 37 34 37 58 59 58 56 55 56 54 54 53 53 52 53 53 52 52 52 52 52 53 53 55 55 56 56 56 56 55 55 57 59 58 59 60 61 63 61 59 59 61 58 58

GFSSGP_sfc_temp_102.txt.gz
Temp
70 72 71 70 57 52 47 55 61 65 68 72 75 72 72 70 72 64 73 78 77 76 77 78 79 79 79 79 79 79 79 79 79 79 79 79 79 79 79 78 79 79 80 81 81 81 81 81 80
70 74 70 61 50 43 49 59 61 66 71 76 77 75 73 70 77 73 73 77 78 79 77 77 79 79 79 79 78 78 78 78 78 79 79 79 78 78 78 78 79 80 80 81 81 81 81 80 80
71 72 63 55 46 46 50 63 66 68 75 74 74 78 76 73 77 75 76 78 77 78 77 77 79 79 79 79 78 78 78 78 78 79 79 78 78 78 78 78 79 80 80 81 81 81 80 80 79
68 65 59 49 47 54 61 69 66 70 74 75 75 74 78 80 79 78 78 78 77 78 77 78 78 78 79 79 78 78 78 78 78 78 78 78 78 78 77 78 78 79 80 81 80 79 79 79 79
62 56 47 41 48 56 66 72 69 69 74 71 74 72 72 76 78 77 77 78 75 77 76 77 78 78 79 79 79 78 78 78 78 78 78 78 77 77 77 78 78 79 80 80 79 79 78 78 78
55 53 41 42 48 59 65 70 73 72 74 75 73 72 71 76 75 76 77 76 76 75 77 76 78 78 78 78 78 78 78 77 78 78 78 78 77 77 77 77 78 78 79 79 79 78 77 77 77
52 46 41 43 49 57 63 70 68 72 75 73 74 69 71 73 77 78 76 75 75 76 77 77 77 77 78 78 77 77 77 77 77 77 77 77 77 77 77 77 77 77 77 77 77 77 77 77 77
53 50 41 45 50 54 63 68 70 72 75 81 79 69 68 72 78 77 75 73 73 75 77 77 76 75 75 76 77 77 77 77 77 77 77 77 77 77 77 76 76 77 77 77 77 77 77 77 77
55 43 37 44 50 52 61 62 71 74 75 77 77 75 79 78 77 73 71 71 73 73 72 75 75 74 74 75 76 77 78 77 77 77 77 75 74 75 76 76 76 77 77 77 77 77 76 76 77
50 40 45 53 55 55 60 61 67 68 68 73 75 78 75 77 75 72 70 70 71 72 72 73 74 73 73 77 74 74 75 76 75 75 75 74 73 73 75 75 76 76 77 77 76 76 76 77 72
46 43 52 54 59 61 59 62 67 64 63 71 72 75 76 73 72 72 72 73 72 73 74 73 74 73 73 74 72 72 73 74 74 74 73 73 73 73 74 72 73 73 75 73 74 73 73 71 70
44 53 57 57 62 60 56 63 64 65 69 76 78 74 75 73 70 70 71 72 72 72 73 73 73 74 73 73 73 72 73 74 75 75 74 73 72 71 71 71 71 71 71 71 70 70 70 69 69
47 54 56 60 61 58 62 63 62 66 73 78 77 78 72 73 71 71 72 73 73 72 74 74 74 73 73 72 73 72 73 75 77 76 77 76 72 71 72 71 71 71 71 71 70 69 69 68 69
54 55 58 58 56 54 57 59 62 68 73 73 73 72 73 72 73 70 72 72 71 75 73 75 73 73 73 73 72 72 73 74 74 73 75 76 74 72 71 71 72 71 72 72 71 70 70 69 69
56 50 51 55 59 55 59 55 60 69 74 72 72 75 76 76 75 74 74 73 72 72 75 73 73 72 72 72 72 72 72 73 74 75 75 75 74 72 71 70 70 72 71 71 70 70 70 68 69
50 49 40 54 55 58 60 49 62 68 71 69 69 74 75 75 74 74 75 73 72 70 70 71 75 70 69 69 72 72 73 72 73 73 73 74 74 73 71 70 70 72 72 71 70 70 68 68 68
44 40 42 49 56 57 58 51 63 69 69 67 72 73 75 75 79 81 73 68 67 68 68 70 71 70 70 70 70 72 72 71 72 72 72 73 73 74 72 71 71 71 70 69 70 69 68 70 69
41 41 45 46 53 55 53 55 64 70 66 68 71 72 73 75 78 78 72 69 66 65 66 66 67 68 69 68 69 71 71 71 70 70 70 71 72 73 72 72 72 72 71 71 69 69 68 70 71
50 47 46 52 58 53 51 52 59 61 60 59 65 68 69 69 69 68 68 68 67 65 65 66 66 64 66 65 65 65 65 66 68 70 72 72 71 71 71 71 71 71 70 70 71 70 69 68 69
50 46 46 53 56 53 51 52 55 56 60 60 63 64 63 61 64 64 64 64 66 64 64 65 65 65 64 63 63 62 63 63 66 66 69 71 71 71 70 69 69 69 70 70 70 69 68 69 70
49 46 47 50 54 53 49 47 48 56 58 61 59 61 62 62 61 61 63 61 61 62 63 63 63 63 63 63 62 61 60 61 61 62 64 67 69 70 69 69 68 68 68 68 69 69 68 67 69
45 54 54 52 47 41 48 38 46 50 52 55 56 56 59 61 61 61 61 60 61 61 62 63 63 64 65 64 64 63 62 61 61 60 61 63 65 66 67 67 67 67 68 68 68 69 69 68 67
51 56 52 49 43 40 45 40 45 47 48 50 52 54 54 56 58 59 61 61 61 61 61 62 62 62 63 62 62 62 60 60 60 60 61 60 61 63 66 66 65 64 66 67 68 68 68 68 67
58 51 47 42 39 35 40 41 41 46 49 49 51 54 56 57 59 60 61 61 61 61 60 59 59 56 57 58 58 57 56 56 57 57 57 58 59 61 63 64 64 64 64 66 67 67 68 67 67
51 43 32 32 32 33 42 39 44 48 54 54 52 54 56 57 56 58 59 59 59 57 56 58 55 53 54 54 54 54 54 54 55 55 55 55 57 59 61 61 61 62 64 65 65 66 66 66 66
47 45 33 29 29 33 42 36 45 52 54 56 56 55 55 55 55 55 56 56 55 54 53 53 53 52 53 53 53 53 54 54 54 55 55 55 56 58 60 61 61 62 63 64 64 64 65 65 65
47 41 46 35 34 31 35 42 50 53 52 54 54 55 54 52 54 55 52 51 51 51 51 52 53 53 54 54 53 53 53 53 52 52 52 54 55 59 59 59 59 60 61 61 61 61 62 63 64
52 53 38 35 28 27 34 37 40 46 49 52 51 50 53 52 50 49 50 50 51 51 51 52 52 53 53 52 51 53 52 52 51 50 51 51 53 55 56 56 57 58 59 60 59 60 62 62 63
49 44 41 39 33 27 25 35 47 49 49 49 52 50 48 46 47 48 49 50 51 51 51 51 51 51 50 51 50 50 51 51 52 50 49 50 50 52 53 54 55 56 57 58 58 59 60 61 61
47 44 41 33 34 33 31 35 53 53 53 50 48 48 46 47 47 48 49 50 50 50 50 50 50 50 50 50 50 50 49 50 50 50 51 50 49 51 51 52 53 55 55 56 57 58 60 60 60

GFSSGP_sfc_temp_105.txt.gz
Temp
78 83 86 86 73 71 65 69 74 76 78 84 86 83 83 83 81 79 84 87 88 87 86 84 79 80 80 80 79 79 79 79 79 79 79 79 79 79 79 79 79 80 80 81 81 81 81 81 81
81 83 85 79 68 62 67 71 72 77 82 87 88 86 83 82 84 80 82 85 87 86 85 85 79 79 80 79 79 79 79 79 79 79 79 79 79 79 79 79 79 80 80 81 81 81 81 81 80
80 82 80 73 67 63 66 73 77 79 84 84 84 89 86 83 83 84 87 85 87 85 85 84 79 79 79 79 78 78 78 78 79 79 79 79 78 78 78 78 79 80 80 81 81 81 80 80 80
81 82 76 66 63 67 70 75 76 80 85 86 86 82 86 85 85 87 87 87 86 85 86 81 79 79 79 79 79 78 78 78 78 79 78 78 78 78 78 78 79 80 80 81 81 80 79 79 79
80 77 66 62 64 68 72 75 78 78 82 84 84 81 82 82 84 85 85 86 87 86 87 85 78 78 79 79 79 78 78 78 78 78 78 78 78 78 78 78 79 79 80 80 80 79 78 78 78
72 73 61 60 63 67 73 79 78 77 83 84 82 81 82 83 82 84 87 87 90 87 87 86 79 78 78 78 78 78 78 78 78 78 78 78 78 77 78 78 78 79 79 79 79 78 78 78 78
69 66 63 64 63 66 71 79 78 79 80 82 85 79 84 81 84 85 86 88 88 88 87 87 87 82 78 78 78 78 77 77 77 77 77 77 77 77 77 77 78 78 78 78 78 78 77 77 77
72 69 62 62 62 64 74 77 80 80 80 88 88 78 80 83 84 85 85 86 87 88 88 88 86 87 86 85 78 78 77 77 77 77 77 77 77 77 77 76 77 77 77 77 77 77 77 77 77
68 62 60 61 61 66 74 73 80 83 80 84 84 84 86 85 84 83 82 82 84 85 85 86 85 85 86 88 84 78 78 78 77 78 77 77 86 84 83 81 78 77 77 77 77 77 77 77 77
67 60 61 66 70 68 74 74 77 76 78 79 83 83 82 83 84 83 82 81 81 82 83 85 82 84 84 86 85 85 85 86 84 84 83 85 84 84 85 82 76 77 77 77 77 77 76 78 88
62 60 63 66 70 73 73 71 75 75 73 80 77 84 84 83 82 83 86 86 84 85 85 84 81 82 84 85 84 85 85 84 84 83 83 83 83 83 84 85 84 84 80 85 84 84 85 85 84
59 63 66 68 71 70 69 74 72 74 77 84 83 84 85 82 83 84 84 85 85 84 85 85 84 82 81 85 84 85 85 84 84 84 82 82 82 82 82 84 85 82 85 84 84 85 83 82 82
61 64 66 69 71 71 73 69 69 72 80 84 84 82 81 83 82 84 84 85 85 83 84 84 83 82 82 81 84 83 84 84 84 84 83 84 83 81 83 83 84 84 85 84 83 84 83 83 83
65 66 67 69 69 69 67 68 70 73 79 80 81 82 80 83 83 84 82 82 82 84 84 85 83 82 82 81 81 82 82 84 84 83 84 82 81 78 82 82 82 83 83 83 82 81 81 82 83
64 60 65 65 66 65 69 62 64 73 77 76 77 82 82 84 86 85 85 82 82 83 83 82 82 82 80 80 81 82 83 85 84 83 82 83 81 78 77 80 80 83 83 80 81 81 82 82 83
60 59 57 69 66 66 66 57 70 76 76 75 77 78 76 83 84 85 85 85 82 80 79 80 83 81 79 79 80 82 83 83 83 84 84 82 82 80 77 79 80 82 82 83 82 81 81 81 82
57 55 55 61 68 67 64 60 70 76 75 74 75 80 81 84 87 87 87 84 82 76 76 79 79 77 77 77 78 78 79 78 79 81 82 82 82 82 77 79 82 80 81 80 80 79 75 78 79
53 53 57 57 65 65 63 63 70 75 74 75 78 78 79 83 83 87 82 78 78 76 76 77 76 75 75 74 75 76 77 78 80 81 81 81 80 81 78 79 77 78 79 79 79 76 80 78 80
58 57 56 63 67 63 62 63 68 73 73 74 77 77 77 79 86 86 78 76 77 74 73 75 73 73 73 73 74 76 78 77 80 81 80 80 80 80 80 81 80 79 76 78 78 77 75 77 79
57 55 57 63 66 62 62 61 68 69 71 75 72 74 75 78 80 80 77 74 75 72 71 72 72 72 75 73 73 74 74 75 77 77 78 80 81 81 80 79 80 79 80 77 77 76 76 77 76
57 56 57 58 63 64 60 59 62 69 69 73 73 77 77 77 74 73 76 73 70 71 71 70 70 72 75 74 73 73 74 73 75 75 77 78 79 80 79 79 78 78 78 79 76 77 75 73 77
54 63 61 60 58 55 60 54 60 62 66 67 71 73 76 76 74 71 72 71 69 70 71 72 72 74 75 75 76 75 78 77 78 77 78 78 77 78 78 77 77 76 79 76 77 78 76 75 73
59 64 62 61 59 56 57 57 60 62 62 66 67 70 72 72 71 70 72 69 72 70 71 71 71 68 69 69 70 74 73 74 73 74 71 71 73 73 74 74 75 74 77 76 75 75 74 77 75
64 60 58 57 57 50 55 56 59 62 64 66 66 66 67 70 71 72 73 72 72 70 71 68 68 66 67 68 68 67 67 67 70 70 69 72 72 73 73 73 73 73 73 73 75 75 74 74 75
61 57 49 47 47 48 53 54 60 62 64 66 69 66 68 70 71 72 72 71 71 69 68 67 66 64 65 66 66 66 65 65 66 66 68 65 69 71 70 69 69 72 72 72 72 72 72 73 74
57 58 51 39 43 49 52 50 60 63 65 66 68 68 69 68 69 70 70 70 69 66 66 67 65 64 66 65 65 65 65 68 67 66 66 67 68 69 67 67 68 68 69 70 70 71 72 72 73
55 53 59 49 47 49 53 55 63 63 62 64 64 66 66 67 68 67 66 66 66 65 64 65 65 65 64 64 64 63 64 63 63 62 62 65 64 66 65 65 64 64 65 66 66 68 68 69 70
60 61 50 53 40 39 47 48 56 58 59 62 63 64 64 64 64 63 63 63 64 64 64 64 63 62 62 63 64 64 62 62 61 61 60 60 61 61 60 61 61 62 62 63 63 65 67 66 69
56 55 52 53 49 42 42 49 60 62 63 63 64 66 65 64 64 63 63 64 64 64 64 62 63 63 63 63 62 61 61 61 60 60 60 59 59 59 59 60 60 60 60 60 60 61 63 63 65
58 55 55 48 45 48 49 50 60 61 64 65 65 63 62 62 62 63 64 63 64 63 63 63 62 62 62 61 60 60 59 59 58 58 58 58 57 58 58 58 58 59 59 59 58 58 60 61 63

GFSSGP_sfc_temp_108.txt.gz
Temp
81 96 99 94 80 81 78 80 88 85 86 92 95 92 91 94 89 82 96 97 101 99 93 88 80 80 80 80 80 80 80 80 80 80 79 79 79 79 79 79 80 80 81 81 81 81 81 81 81
95 94 95 92 76 73 78 87 82 87 90 94 95 94 92 89 95 92 94 94 98 96 92 92 80 80 80 80 79 79 80 80 79 79 79 79 79 79 79 79 80 81 81 81 81 81 81 81 81
90 93 87 82 77 73 78 84 87 87 92 92 90 96 94 90 94 95 97 96 98 94 93 91 80 80 80 80 79 79 79 79 79 79 79 79 79 79 79 79 80 80 81 81 81 81 81 81 80
90 90 88 75 74 81 83 84 86 87 92 94 93 88 96 94 94 97 97 98 95 95 96 82 79 79 79 79 79 79 79 79 79 79 79 79 79 78 78 79 79 80 81 81 81 81 80 80 80
91 89 76 73 75 82 80 85 87 86 88 91 92 88 91 93 94 96 96 97 96 96 96 89 79 79 79 79 79 79 79 78 79 79 79 79 78 78 78 79 79 80 81 81 81 80 79 80 80
82 85 73 71 76 84 85 86 86 84 88 91 91 90 92 94 93 96 98 99 100 98 96 92 80 79 79 79 79 78 78 78 78 78 79 78 78 78 78 78 79 80 80 80 80 79 79 79 79
78 77 73 76 78 80 81 88 86 87 87 89 94 86 93 94 95 98 98 100 101 100 98 94 91 85 78 78 78 78 78 78 78 77 78 78 78 78 78 78 78 79 79 79 79 79 78 78 78
83 80 73 77 75 76 85 85 90 89 87 97 94 87 88 91 94 97 98 100 100 100 100 98 94 93 91 89 78 78 78 77 77 77 77 77 78 78 78 77 78 78 78 78 78 78 78 78 78
84 71 70 74 74 77 85 81 90 92 87 92 92 91 95 94 95 95 94 96 98 98 98 99 96 94 94 96 87 78 78 78 77 79 77 78 90 88 86 84 78 78 78 78 78 78 78 78 78
76 71 73 81 80 78 84 83 85 85 85 87 90 92 92 94 94 93 92 93 94 95 97 99 93 94 95 97 91 90 90 90 89 89 86 90 91 91 92 86 78 78 78 78 78 78 78 78 94
76 71 79 75 79 81 80 82 85 82 80 87 86 90 92 92 93 94 95 96 95 95 96 98 91 91 93 94 93 93 93 92 91 89 89 89 91 90 91 92 90 88 81 90 86 88 89 92 94
69 75 78 78 80 78 77 82 80 82 84 92 91 91 91 90 92 93 94 96 96 95 95 94 92 89 89 95 93 94 94 93 92 91 88 89 89 89 89 92 93 90 93 91 92 94 91 91 91
70 76 77 79 80 79 80 77 78 80 86 90 91 91 89 91 90 91 91 94 95 93 93 93 91 89 88 89 92 93 93 92 93 93 90 91 91 89 90 90 91 92 93 93 91 91 91 90 90
75 76 76 77 78 78 75 77 79 81 85 84 85 86 89 90 91 90 92 92 92 92 92 93 91 87 89 88 89 89 90 93 92 92 92 89 90 89 90 89 89 90 92 92 91 90 89 90 90
73 68 74 76 77 75 78 70 72 82 84 80 84 86 89 90 92 92 92 91 92 92 91 90 90 89 86 86 87 89 91 92 92 92 89 89 88 87 85 89 89 91 91 88 87 87 89 89 91
70 70 66 77 78 77 74 65 78 83 82 79 83 85 86 86 91 95 92 93 92 91 92 89 90 90 85 84 86 88 91 91 92 92 92 89 88 88 85 86 89 90 90 90 89 89 89 89 90
68 64 66 69 78 75 72 68 79 84 82 79 82 85 85 85 89 92 94 93 91 90 88 88 87 87 85 85 86 85 87 89 91 91 91 90 88 88 83 85 87 84 86 88 86 85 84 84 85
63 63 66 65 73 73 71 70 78 82 80 80 82 84 85 86 87 92 93 92 90 88 87 86 88 83 82 84 83 86 85 86 87 85 88 85 86 84 84 85 83 82 82 83 81 79 85 82 85
67 64 63 70 75 71 70 72 76 80 80 79 81 83 85 86 90 91 93 94 90 89 83 80 83 83 84 82 84 82 82 86 84 85 85 85 84 84 82 87 88 86 85 85 84 85 82 83 85
66 63 64 70 73 70 71 70 76 79 79 80 81 84 85 87 89 87 82 83 85 81 84 83 82 80 80 82 81 82 84 83 87 87 85 85 85 87 87 86 87 86 87 83 82 80 82 84 86
64 63 64 65 70 73 70 67 72 77 80 81 83 86 87 86 87 87 87 85 88 82 81 79 79 80 81 82 79 76 78 80 81 80 82 85 85 85 84 84 83 84 83 85 82 81 79 80 83
59 70 67 65 64 60 71 59 69 74 75 78 81 83 85 87 87 87 86 84 82 82 83 80 80 78 80 80 80 76 81 81 84 83 87 84 83 83 84 82 83 82 85 82 83 83 80 80 78
63 71 68 67 65 64 66 61 68 73 71 76 78 82 86 88 88 82 82 81 82 82 81 79 78 76 75 77 80 83 83 84 85 85 78 79 80 80 81 80 80 79 82 81 80 78 78 81 80
72 67 67 68 66 55 63 63 66 70 71 74 78 79 79 81 83 83 80 78 79 82 81 78 74 72 73 75 76 75 73 75 79 80 79 82 83 83 81 80 78 77 77 77 78 78 77 77 78
68 62 53 51 53 52 65 61 65 71 75 77 78 78 79 80 81 81 80 79 77 79 79 78 76 73 73 73 71 71 71 71 73 73 78 74 79 80 79 76 74 77 76 76 76 76 75 76 77
63 62 55 45 49 55 63 56 67 75 75 77 78 79 78 78 80 80 80 80 80 78 77 75 75 73 74 73 72 71 70 75 74 75 73 74 76 76 75 73 72 72 73 73 73 74 76 76 76
64 58 68 58 59 55 60 65 70 73 72 74 75 75 75 77 78 78 78 79 78 75 74 75 74 73 72 72 72 71 71 70 69 69 69 73 72 74 73 72 69 69 69 69 69 71 71 72 73
67 71 55 59 44 45 56 59 63 67 69 73 72 74 75 76 75 75 75 74 74 74 73 72 71 71 71 71 72 73 70 70 70 69 68 67 68 68 67 67 67 67 68 67 66 67 68 68 70
62 61 62 61 58 47 47 53 71 69 72 72 74 75 74 75 75 75 74 73 74 74 74 71 73 71 72 71 71 70 70 69 69 68 68 67 67 66 66 66 66 66 66 66 65 64 65 65 65
68 64 63 53 50 57 55 53 69 70 73 75 75 75 76 77 76 75 74 74 74 73 73 73 71 71 72 71 70 69 68 68 67 67 66 66 65 66 66 65 65 66 66 66 65 64 64 63 62

GFSSGP_sfc_temp_111.txt.gz
Temp
82 96 101 97 82 84 80 85 97 90 91 98 98 96 95 98 94 75 103 104 106 100 93 89 80 81 81 81 81 80 80 79 80 79 79 79 79 80 79 80 80 81 81 82 82 81 81 81 81
96 99 98 91 78 75 80 91 90 92 97 98 99 99 97 94 102 99 101 103 105 98 93 92 80 80 80 80 80 80 80 79 79 79 79 79 79 79 80 80 80 81 81 82 82 82 82 81 81
89 99 89 84 79 75 80 91 94 95 96 96 94 100 98 95 100 101 103 103 104 97 94 90 80 80 80 80 79 79 79 79 79 79 79 79 79 79 79 80 80 81 82 82 82 81 81 81 81
93 93 90 78 76 84 87 92 93 91 97 98 97 92 101 102 100 103 102 104 100 98 99 82 79 79 80 80 79 79 79 79 79 79 79 79 79 79 79 79 80 81 81 82 81 81 81 80 80
94 91 78 76 78 86 93 96 93 90 94 95 97 92 95 99 102 103 102 103 101 101 99 89 79 79 79 80 79 79 79 79 79 79 79 79 79 78 79 79 80 81 81 81 81 80 80 80 80
84 87 75 73 79 86 90 93 93 91 93 95 94 95 96 101 100 102 104 103 105 102 99 92 81 79 79 79 79 79 78 79 79 79 79 79 78 78 79 79 80 80 81 81 80 80 79 79 79
81 81 75 79 81 84 90 98 89 88 91 93 100 90 95 100 103 104 104 106 105 105 101 94 91 85 79 78 78 78 78 78 78 78 78 78 78 78 78 78 79 79 80 80 80 79 79 79 79
86 84 78 80 79 82 94 96 94 92 92 101 99 88 90 91 102 105 105 106 106 105 103 98 94 93 90 88 78 78 78 78 77 78 78 78 78 78 78 78 78 79 79 79 79 79 79 78 78
91 76 73 78 80 84 95 90 94 98 95 95 98 97 100 101 100 102 102 103 104 103 102 100 97 94 94 95 86 79 78 78 78 79 78 78 89 86 85 84 79 79 79 79 79 79 78 78 78
80 74 76 86 89 87 90 90 91 90 90 90 94 98 100 100 99 99 98 99 100 100 102 103 96 96 96 98 89 89 89 89 87 88 85 88 90 91 93 87 79 79 79 79 78 78 78 78 91
81 74 84 86 88 89 86 87 91 87 85 91 91 96 98 98 98 99 100 101 101 101 102 103 96 94 96 99 92 93 92 91 90 90 88 89 92 92 92 92 89 87 80 89 84 85 86 90 93
76 82 83 86 85 84 81 86 84 87 87 95 96 98 95 95 97 98 97 101 101 100 100 100 96 93 93 99 96 95 95 93 93 92 90 90 91 90 91 93 94 90 94 91 93 95 93 93 93
78 80 84 85 85 85 85 82 83 85 91 94 96 96 94 94 96 94 89 78 92 96 97 97 95 92 91 93 95 96 96 95 95 94 92 92 92 90 92 92 94 95 96 95 93 93 93 92 92
82 81 81 85 83 84 81 82 83 85 91 89 90 91 93 93 95 96 95 92 83 82 93 96 95 91 90 90 93 93 94 95 95 96 94 91 92 91 93 91 92 93 94 95 95 94 93 93 93
82 74 78 80 82 80 83 76 77 86 89 87 87 88 90 92 95 94 96 94 94 93 75 83 92 91 89 88 90 92 94 95 94 95 93 92 89 89 89 91 92 92 93 91 90 89 90 90 91
73 74 68 80 81 82 80 69 82 88 86 84 86 87 89 91 94 97 96 94 93 93 93 90 92 89 85 88 90 91 90 87 93 95 94 91 89 90 87 89 90 88 87 81 80 81 87 88 92
71 65 69 75 83 81 77 71 82 88 86 84 85 85 87 90 92 94 96 90 90 89 91 90 86 92 85 81 82 75 81 75 79 88 85 83 88 87 89 89 85 86 81 83 82 86 84 85 86
65 64 70 71 79 78 76 74 80 85 85 83 84 85 86 89 90 92 94 94 93 91 88 89 89 90 89 90 87 81 80 82 91 89 92 91 86 86 85 84 82 84 77 84 88 85 85 86 87
75 73 70 75 80 75 74 74 79 84 85 83 83 84 85 88 93 93 94 87 93 92 88 88 85 86 87 88 88 87 82 83 81 88 87 84 80 82 82 84 83 85 85 87 85 85 84 85 87
72 69 69 74 78 75 73 73 79 83 83 84 83 84 85 88 91 91 90 90 91 89 89 88 85 84 84 90 87 90 82 91 87 86 85 85 85 83 84 85 87 86 85 84 83 81 80 82 84
69 67 68 68 75 76 73 69 74 82 84 85 85 86 88 88 88 90 90 88 88 88 87 87 87 87 85 84 86 85 85 82 80 83 84 85 87 87 86 86 85 84 84 84 82 82 79 76 78
63 73 71 69 67 61 75 60 73 77 78 81 83 85 87 89 91 92 92 88 89 85 85 85 83 84 84 85 84 80 83 82 84 83 87 86 84 84 86 84 83 82 82 78 79 80 76 78 77
67 75 71 70 66 66 67 64 71 78 74 78 82 85 87 89 91 91 91 89 89 89 89 83 82 78 78 79 81 81 83 85 87 87 81 82 82 82 82 82 82 78 79 81 81 80 78 80 80
75 71 69 69 66 56 65 65 67 71 75 79 83 85 87 89 91 92 91 90 87 85 85 82 78 76 78 79 79 79 77 79 81 79 82 83 86 81 77 82 80 79 78 78 79 78 78 77 78
71 64 54 52 53 53 68 65 67 73 78 81 80 85 86 86 86 86 83 84 84 81 80 78 76 74 76 76 76 75 74 74 75 74 81 77 79 82 82 79 77 78 77 76 76 75 76 76 76
67 65 57 46 49 57 68 58 67 79 82 82 84 84 85 84 86 84 83 82 84 82 80 80 78 76 76 76 74 75 75 80 78 77 76 77 78 79 78 75 75 74 73 74 73 74 74 73 75
67 62 71 60 61 55 55 66 74 76 78 80 81 81 81 83 83 84 83 82 82 79 78 79 78 76 76 76 75 75 75 74 74 73 72 75 75 76 75 73 71 71 71 71 70 71 70 71 70
71 74 58 62 46 43 51 55 58 69 74 78 78 79 80 82 82 82 82 81 79 79 78 77 77 75 75 76 76 77 74 74 73 73 71 71 72 71 71 70 70 69 69 69 69 69 69 69 69
67 65 65 64 60 48 47 55 70 67 75 75 78 79 79 80 80 79 79 78 78 79 77 76 77 77 76 77 76 74 74 74 73 72 71 71 70 70 69 69 69 69 68 68 66 65 66 66 66
72 67 66 56 48 57 56 51 73 70 75 79 80 80 80 80 80 80 79 79 79 79 79 77 75 77 78 77 75 73 73 72 71 71 70 70 69 69 69 69 68 69 67 66 66 65 67 66 65

GFSSGP_sfc_temp_114.txt.gz
Temp
80 91 94 90 75 77 73 80 92 90 90 99 98 95 93 96 87 75 101 102 96 90 85 84 80 81 81 81 80 79 79 79 79 79 79 79 79 79 79 79 80 81 81 81 81 81 81 81 81
89 94 93 86 71 67 73 87 87 93 94 98 97 97 95 90 97 94 94 101 95 90 85 84 80 80 81 80 80 79 79 79 79 79 79 79 79 79 79 80 80 81 81 81 82 81 81 81 81
84 91 83 77 72 68 73 88 92 97 98 95 94 100 97 91 99 97 100 100 96 90 89 83 80 80 80 80 79 79 79 79 79 79 79 79 79 79 79 80 80 81 82 82 81 81 81 81 81
88 86 85 72 70 79 81 88 93 94 95 98 97 91 101 103 101 101 102 101 95 92 92 80 79 80 80 80 79 79 79 79 79 79 79 79 79 79 79 79 80 81 81 81 81 81 80 80 80
89 86 72 71 73 80 88 92 94 92 93 95 97 91 94 100 104 101 101 101 96 94 88 83 79 79 79 80 79 79 79 79 79 79 79 79 79 79 79 79 80 80 81 81 81 80 80 80 80
79 81 69 67 74 83 88 93 93 92 93 94 94 93 95 100 100 100 103 101 100 96 88 83 80 79 79 79 79 79 78 78 79 79 79 79 78 78 79 79 79 80 80 80 80 80 79 79 79
77 75 69 72 75 80 86 94 90 91 91 92 98 90 94 98 101 102 102 103 102 98 91 86 84 81 79 79 78 78 78 78 78 78 78 78 78 78 78 79 79 79 79 80 79 79 79 79 79
82 78 72 75 75 77 90 94 96 93 89 99 100 88 89 89 81 76 85 101 102 99 93 89 86 83 82 81 78 78 78 78 77 78 78 78 78 78 78 78 78 79 79 79 79 79 78 78 78
88 71 68 72 76 81 91 89 98 99 93 95 98 97 100 91 81 74 67 83 97 99 94 92 89 86 86 85 81 78 78 78 78 78 77 77 80 79 80 79 79 78 78 78 78 78 78 78 78
79 71 71 81 84 84 89 90 93 91 89 90 94 100 102 100 80 74 72 87 95 96 95 95 87 88 88 91 81 82 82 81 80 80 78 80 81 80 85 83 78 78 78 78 78 78 77 77 79
79 71 79 82 86 89 88 88 92 88 84 90 89 94 99 99 97 84 82 96 98 99 97 96 87 86 89 89 82 84 83 82 82 82 80 79 83 83 83 81 80 78 78 79 78 77 78 79 80
74 80 80 83 87 87 84 87 84 87 88 95 96 98 99 96 95 97 97 99 90 90 96 89 90 86 86 86 86 86 86 84 84 84 82 80 82 82 81 83 82 79 81 79 80 80 80 80 82
76 79 82 85 85 85 86 82 82 83 90 94 95 95 95 94 95 96 97 90 77 75 71 68 82 86 85 83 86 86 86 86 86 85 84 84 83 81 82 82 83 83 84 82 82 82 83 82 83
81 81 81 83 83 84 80 81 82 84 90 90 90 90 92 94 94 94 95 91 79 71 71 69 70 77 84 82 82 84 83 85 86 86 86 85 84 82 84 82 83 83 84 85 84 82 82 82 83
81 75 79 80 81 80 83 75 77 86 88 86 87 88 89 91 94 93 94 90 80 72 71 70 70 70 74 80 82 83 84 86 84 84 84 85 84 83 83 83 82 83 83 84 84 83 82 81 83
74 74 66 77 79 81 80 67 80 87 85 83 86 88 87 89 91 92 93 89 78 81 73 70 70 70 72 77 80 81 75 78 72 73 75 86 84 84 82 83 83 81 78 77 76 77 77 77 73
70 61 65 69 80 79 77 70 80 86 85 83 84 86 87 87 88 89 92 88 87 79 75 71 70 70 70 71 70 74 77 73 70 70 69 70 81 79 75 75 77 80 78 78 77 75 77 76 77
61 62 66 67 76 80 75 73 79 84 84 83 84 85 85 86 86 90 92 88 84 85 77 73 73 74 70 66 68 73 76 76 69 65 69 73 73 70 68 71 72 74 73 73 73 76 79 77 77
70 68 66 71 77 76 73 73 77 82 82 82 83 83 84 85 88 90 90 88 84 83 82 82 80 78 75 75 73 73 76 78 72 66 68 70 73 75 71 68 70 75 76 76 78 77 73 73 74
69 66 68 74 79 75 73 71 77 80 81 83 83 83 83 84 86 88 87 85 83 81 82 81 80 80 82 80 80 77 75 77 77 78 80 78 78 79 78 78 78 78 76 76 76 75 73 72 73
67 65 67 69 75 77 72 67 71 79 83 85 85 85 86 84 83 85 85 83 84 80 79 81 80 80 82 82 79 79 78 77 77 77 77 81 83 83 79 79 77 76 75 74 75 75 73 69 71
62 73 72 70 67 59 72 55 69 75 77 80 82 82 84 85 86 86 86 83 83 82 82 82 80 80 80 81 81 77 75 75 77 75 79 78 79 80 80 77 77 76 75 73 73 74 73 71 67
67 75 71 70 66 64 65 60 67 76 73 76 80 82 84 86 86 87 87 84 85 84 83 82 79 80 81 80 80 77 76 78 76 76 75 76 77 78 80 78 76 74 74 73 72 71 70 71 70
76 71 70 69 65 53 61 61 63 68 74 77 81 83 85 87 88 89 87 86 86 87 86 82 78 75 76 75 76 73 71 73 73 73 73 74 75 75 77 78 75 75 73 72 71 71 70 70 70
71 63 53 50 51 50 65 61 65 71 77 80 81 82 85 86 83 86 83 84 82 83 81 77 75 74 74 73 72 71 70 69 70 70 71 70 71 72 72 71 71 71 71 70 69 68 67 68 68
66 63 54 43 46 53 65 57 65 77 80 83 84 85 85 83 84 82 83 83 82 78 77 76 74 72 72 71 71 71 71 71 72 67 67 67 68 70 70 71 70 70 70 69 67 67 66 65 66
65 60 69 57 59 51 59 66 69 77 77 79 80 81 80 82 81 80 81 81 80 77 76 75 74 73 73 72 71 70 68 69 68 69 68 69 71 70 69 67 67 67 67 66 65 65 64 65 64
69 73 57 60 45 43 54 58 56 66 71 76 76 77 79 81 80 78 79 78 77 77 77 74 74 73 73 71 73 72 71 72 70 70 68 68 68 68 67 67 66 66 66 66 64 64 64 63 63
64 61 63 62 59 46 43 48 58 62 65 61 77 78 78 79 79 79 77 76 76 75 74 73 73 73 73 73 72 71 71 71 71 69 68 68 68 67 66 66 66 65 65 64 63 63 63 62 61
70 64 62 50 50 59 52 48 56 61 67 64 63 78 79 79 78 78 76 76 76 75 75 74 74 75 75 75 73 72 71 71 69 68 67 67 66 66 66 66 66 66 66 64 63 62 63 61 61

GFSSGP_sfc_temp_117.txt.gz
Temp
72 79 77 74 60 57 54 64 76 78 81 87 88 85 80 81 80 66 80 88 84 80 79 81 80 80 80 80 79 79 78 79 79 79 78 78 79 79 79 79 79 80 80 81 81 81 81 80 80
78 83 76 69 55 48 55 72 73 81 84 87 90 86 85 80 89 83 82 86 84 80 79 80 80 80 80 80 79 79 79 79 79 78 79 78 78 78 79 79 79 80 81 81 81 81 81 80 80
78 81 65 60 54 52 56 73 78 86 90 89 85 91 88 83 90 88 88 86 83 80 80 79 80 80 80 80 79 78 78 79 79 79 79 78 78 78 78 79 79 80 81 81 81 81 80 80 80
75 70 67 55 54 64 68 75 80 83 90 88 87 84 91 95 92 90 89 87 83 82 81 79 79 80 80 80 79 79 78 78 79 79 79 78 78 78 78 79 79 80 81 81 80 80 79 79 79
71 65 54 51 57 68 75 80 82 82 85 87 88 83 83 91 96 91 89 88 83 83 79 78 79 79 80 80 79 79 79 78 78 79 78 78 78 78 78 79 79 80 80 80 80 79 78 78 79
61 63 49 52 59 71 77 82 83 82 86 85 85 84 80 91 89 89 91 88 87 80 78 78 79 79 79 79 79 78 78 78 78 78 78 78 78 78 78 78 79 79 79 79 79 78 78 78 78
58 56 51 56 62 70 77 85 83 84 80 83 85 80 79 77 78 79 76 74 85 82 79 78 78 78 79 78 78 78 78 78 78 77 77 78 78 78 78 78 78 78 78 78 78 78 78 77 78
67 59 54 60 61 64 78 84 86 83 86 91 93 78 72 76 78 77 77 74 74 83 80 76 76 76 77 77 78 78 78 78 77 77 77 77 78 77 77 77 77 78 78 78 78 77 77 77 77
72 59 54 58 62 66 78 77 89 93 89 87 90 87 84 81 81 78 76 77 78 84 81 79 77 76 76 76 78 78 78 78 77 77 77 76 74 75 77 77 77 77 77 77 77 77 77 77 77
63 55 59 67 69 69 74 77 79 83 83 80 84 91 83 81 81 74 76 78 78 82 82 81 79 77 78 82 78 75 77 76 75 75 75 73 72 73 78 77 78 77 77 77 77 77 77 77 71
62 59 66 71 75 77 76 77 80 76 72 78 80 87 79 80 76 80 80 79 73 80 84 83 77 80 78 79 74 74 74 74 74 74 73 72 74 73 76 74 76 73 76 73 75 74 73 72 71
59 69 71 73 77 75 72 76 74 73 74 81 85 86 86 79 76 74 76 72 73 74 74 72 71 69 71 77 77 75 74 74 73 74 74 72 71 73 74 73 73 72 73 71 72 72 73 72 74
65 68 73 76 76 74 76 72 74 74 81 83 85 85 82 80 78 78 79 76 72 71 72 70 69 69 70 74 77 78 78 77 77 77 77 75 74 73 77 74 75 75 75 74 74 74 74 74 75
67 70 72 72 72 74 70 72 72 76 81 81 81 78 80 78 78 83 81 72 72 72 71 68 68 69 68 69 71 72 81 80 80 80 79 79 77 76 75 75 76 77 77 77 76 77 74 75 76
71 65 69 73 70 70 73 66 70 76 80 77 78 79 79 79 80 76 81 74 72 71 71 68 68 69 68 67 67 76 79 82 79 80 80 81 80 76 77 76 77 75 80 79 76 80 78 72 72
64 65 56 65 70 71 69 60 70 76 75 74 76 78 81 78 78 76 79 75 71 69 68 70 73 69 67 66 68 72 72 71 70 69 72 72 73 71 74 71 69 70 73 72 71 71 71 70 69
56 50 53 59 68 69 67 63 70 75 74 74 76 78 77 76 77 76 81 74 71 69 68 69 69 67 67 67 68 71 71 68 68 68 69 71 71 70 68 68 67 67 67 65 66 65 68 70 69
48 51 57 57 67 69 65 64 71 74 75 74 71 76 75 75 75 78 79 75 72 71 69 66 69 68 67 65 66 67 66 69 67 67 68 70 71 69 68 67 68 65 67 64 65 64 65 71 69
60 58 57 62 70 67 65 65 69 73 72 70 70 71 71 72 76 76 76 74 73 71 67 67 65 67 65 65 64 64 63 66 67 65 69 70 68 70 68 67 66 65 67 65 68 67 67 66 69
60 57 57 64 71 67 64 63 68 71 71 71 71 69 71 70 72 76 71 73 74 70 69 68 68 70 66 65 66 65 65 67 71 66 68 68 68 70 67 67 66 67 70 69 69 69 68 68 69
58 56 57 58 67 71 63 57 62 72 72 74 73 71 71 71 70 73 72 72 72 73 74 72 73 69 69 71 71 70 70 70 70 69 67 68 70 72 69 68 69 69 69 66 68 68 68 65 66
53 65 65 63 61 50 63 43 58 66 67 72 71 70 72 72 71 72 73 72 73 75 76 76 77 76 77 76 72 75 73 70 72 70 70 68 71 73 71 70 69 68 68 67 67 68 66 64 62
59 68 65 63 58 53 56 47 54 63 66 69 67 70 70 71 71 70 74 74 76 74 72 72 72 71 71 71 71 69 69 65 65 68 68 68 67 71 73 71 69 67 66 65 65 65 64 63 62
69 65 64 60 51 40 50 49 49 56 63 66 69 71 73 72 72 72 76 75 74 73 69 68 67 65 65 67 65 65 65 65 67 64 64 65 67 67 68 69 67 66 65 64 63 63 62 61 61
64 56 43 40 39 38 55 50 51 61 69 73 71 70 71 68 71 69 72 71 70 68 69 68 66 63 63 63 63 64 63 63 62 62 63 64 64 63 63 64 63 63 63 63 61 60 60 59 59
59 53 42 32 35 41 57 46 55 66 70 76 77 73 69 70 72 70 70 69 68 67 66 66 64 62 62 62 62 61 62 61 60 61 60 61 62 62 63 62 62 62 62 61 60 59 59 59 58
57 53 59 48 47 42 47 54 61 66 67 69 72 71 65 67 70 69 69 68 67 65 65 64 62 61 62 62 61 60 60 60 60 60 61 59 60 64 62 62 62 61 61 61 60 58 57 58 58
64 65 50 49 35 34 45 50 46 55 59 65 61 65 66 68 68 68 67 66 65 66 65 63 63 62 62 61 61 61 60 61 60 60 59 59 59 60 60 60 60 59 60 60 58 57 58 57 56
58 56 54 50 42 34 33 39 54 50 57 59 59 58 61 66 66 66 65 64 66 65 64 62 63 63 62 62 61 61 60 61 60 59 58 58 58 59 60 60 59 59 59 58 57 56 57 57 55
57 56 55 38 41 46 40 39 56 54 60 59 56 54 57 56 64 65 66 63 63 62 62 62 62 62 62 62 61 60 60 59 58 58 58 58 57 57 58 59 59 59 59 58 57 56 58 56 55

GFSSGP_sfc_temp_123.txt.gz
Temp
70 72 70 70 58 52 47 56 62 65 69 76 77 82 79 78 76 67 76 83 78 77 78 79 79 79 79 79 79 79 78 79 79 79 79 79 79 79 79 79 79 79 80 80 81 80 80 80 80
70 74 69 61 51 44 49 58 63 68 73 77 80 77 79 81 84 75 75 81 80 78 77 78 79 79 79 79 78 78 78 78 78 79 79 79 78 78 79 79 79 80 80 80 81 81 80 80 80
69 72 62 56 47 48 50 60 64 72 77 75 76 83 80 78 81 79 80 81 79 77 78 78 79 79 79 79 78 78 78 78 78 79 79 78 78 78 78 78 79 80 80 81 81 80 80 80 80
66 63 59 50 48 57 61 63 67 71 77 77 78 76 83 83 82 82 81 81 78 77 78 79 79 79 79 79 79 78 78 78 78 78 78 78 78 77 77 78 78 79 80 81 80 79 79 79 79
61 54 46 42 49 58 65 67 67 68 70 75 77 75 75 79 82 81 80 81 76 75 76 78 79 79 79 79 79 78 78 78 78 78 78 78 77 77 77 78 78 79 80 80 80 79 78 78 78
54 52 40 40 50 65 66 72 68 70 71 75 75 75 72 78 79 79 81 78 78 75 77 77 79 78 78 78 78 78 77 77 78 78 78 77 77 77 77 78 78 79 79 79 79 78 77 77 77
51 45 41 42 55 61 64 74 69 70 68 74 75 71 71 75 77 81 79 78 77 76 77 77 76 78 78 78 77 77 77 77 77 77 77 77 77 77 77 77 78 78 78 77 77 77 77 77 77
57 49 41 47 50 54 66 71 73 71 73 81 82 67 67 73 76 77 78 75 74 75 77 76 75 76 75 75 77 77 77 77 76 77 77 77 77 77 77 76 77 77 77 77 77 77 77 77 77
60 45 39 47 51 55 65 63 73 80 74 77 79 75 80 78 76 75 73 73 73 75 74 75 75 75 75 75 77 77 78 77 77 77 77 75 73 74 75 76 76 77 77 77 77 77 76 76 76
52 42 47 57 59 57 64 64 69 71 71 73 75 78 77 76 75 74 72 71 72 73 75 75 76 75 74 78 75 74 76 75 74 74 74 72 72 72 75 75 77 77 77 77 77 76 76 76 71
52 49 57 60 65 66 65 65 71 66 65 70 71 72 75 75 75 73 72 73 72 73 75 75 75 74 74 76 73 75 74 73 73 74 73 72 72 72 72 71 72 71 74 72 73 72 71 70 69
50 57 61 60 65 63 63 69 68 68 70 75 77 75 75 73 70 69 69 70 71 73 72 73 73 72 73 74 73 75 73 73 72 74 73 71 70 70 70 70 70 70 70 69 69 69 69 69 69
48 54 60 66 64 63 65 64 64 67 73 77 76 75 74 73 71 70 70 69 70 69 70 71 72 72 72 72 72 72 72 73 74 72 73 73 71 70 69 69 68 69 69 69 69 68 69 69 70
55 58 60 60 59 59 62 65 65 69 73 74 74 73 74 74 71 69 69 67 68 68 69 71 71 72 72 71 72 72 74 74 74 74 74 74 72 70 70 68 69 68 69 68 68 69 68 69 69
57 53 56 58 63 58 61 59 62 70 73 71 72 72 72 73 71 71 70 68 68 69 70 70 71 71 71 71 71 70 75 75 74 74 74 73 71 70 69 67 68 67 67 66 66 66 66 66 67
52 52 46 52 59 61 62 54 66 69 68 68 71 72 72 72 73 71 70 70 69 69 69 70 72 70 68 67 68 68 69 70 69 70 71 71 70 70 67 66 67 67 66 66 66 66 64 65 66
45 38 43 49 58 60 59 53 66 68 66 66 67 70 72 68 70 69 72 70 70 69 69 68 68 67 66 65 66 67 68 68 68 70 70 70 70 70 67 66 66 67 66 66 66 66 66 64 65
39 39 45 48 55 57 57 55 61 65 66 65 65 67 68 69 68 70 69 70 70 69 70 68 67 66 64 64 67 68 65 66 67 68 70 70 70 70 68 67 67 66 66 65 66 65 65 65 65
51 47 47 51 59 57 53 53 58 63 62 62 62 62 64 66 69 68 68 68 70 71 69 67 64 64 64 63 64 67 65 65 65 66 67 68 70 70 69 68 67 66 65 66 66 65 64 63 64
49 46 46 52 59 54 54 54 58 61 62 62 66 63 63 63 62 63 65 65 68 68 68 65 65 64 65 66 63 64 63 63 64 65 66 67 69 69 68 68 68 66 65 65 64 64 63 63 65
49 47 47 49 55 56 53 50 54 61 62 65 64 65 64 65 63 61 63 64 65 66 66 66 66 65 66 65 63 63 63 63 64 63 64 66 67 69 66 66 64 63 63 64 63 63 64 61 63
45 55 55 53 48 39 52 37 49 56 58 63 66 61 63 63 61 62 63 63 64 65 66 66 66 65 66 64 64 63 61 61 63 63 63 64 65 66 66 66 64 64 63 62 62 63 63 61 61
50 58 54 54 47 42 47 40 46 51 53 57 60 62 63 64 63 63 64 66 66 68 66 63 64 64 65 65 65 65 64 64 65 65 64 63 64 66 68 67 65 62 62 62 62 61 60 59 59
60 55 53 51 47 34 45 43 43 48 55 57 62 64 66 64 61 64 66 67 67 65 63 63 63 63 64 65 66 66 64 63 63 61 60 60 60 61 63 64 62 61 61 60 59 58 58 57 56
55 47 35 32 31 33 46 42 46 54 60 62 62 63 64 62 61 62 63 64 67 66 65 63 61 58 60 61 61 61 61 61 61 59 58 59 58 57 58 59 59 58 59 59 57 57 56 55 55
48 48 33 27 27 33 48 39 47 55 57 58 57 56 57 57 60 64 63 65 62 60 60 59 58 57 58 58 57 57 57 57 55 56 56 56 56 57 57 58 59 59 59 58 56 54 54 54 54
50 45 52 42 41 38 42 46 52 55 52 53 54 57 57 58 59 60 60 59 57 57 57 58 58 57 57 57 57 57 57 56 55 55 55 55 56 59 58 58 57 57 57 57 55 54 54 54 54
56 57 43 43 32 31 39 42 42 45 47 51 53 54 56 58 58 57 58 57 58 58 57 58 59 58 57 57 58 56 56 56 55 55 55 55 55 56 56 56 55 55 55 55 54 52 53 53 53
51 50 48 44 37 30 31 37 47 45 50 50 52 53 54 55 56 56 56 55 55 56 56 56 57 56 56 55 54 54 54 55 55 54 54 54 54 55 55 56 55 55 54 54 52 52 52 52 52
51 49 48 34 35 38 38 37 50 48 52 52 52 54 54 55 53 53 54 55 54 54 55 55 55 56 54 54 53 52 52 52 52 52 51 52 52 53 53 54 55 55 55 53 52 52 53 52 51

GFSSGP_sfc_temp_129.txt.gz
Temp
77 80 83 85 74 71 67 71 75 75 78 84 84 84 84 85 83 80 85 88 88 87 85 84 79 80 80 80 79 79 79 79 79 79 79 79 79 79 79 79 79 80 80 81 81 80 80 80 80
79 80 83 78 69 63 68 73 72 80 81 85 88 86 84 83 87 82 84 85 88 86 85 85 79 80 80 79 79 79 79 79 79 79 79 79 79 79 79 79 79 80 80 81 81 81 80 80 80
78 78 79 73 68 64 68 73 76 81 83 84 84 88 86 84 87 86 87 86 86 85 85 84 79 79 79 79 78 78 78 78 78 79 79 79 78 78 78 79 79 80 80 81 81 80 80 80 80
79 80 75 66 65 71 75 76 78 78 82 84 85 82 91 86 85 88 88 87 86 85 87 81 79 79 79 79 78 78 78 78 78 79 78 78 78 78 78 78 79 80 80 81 80 79 79 79 79
76 73 65 61 64 70 74 80 78 79 79 82 84 82 85 83 85 87 86 87 86 87 87 85 79 79 79 79 79 78 78 78 78 78 78 78 78 78 78 78 79 79 80 80 79 79 78 78 79
70 70 60 60 64 70 75 78 78 79 80 80 82 83 87 85 84 85 88 88 89 87 87 85 80 78 78 79 78 78 78 78 78 78 78 78 77 78 78 78 78 79 79 79 79 78 78 78 78
68 64 62 62 62 67 71 80 78 80 81 81 87 81 89 83 85 87 87 88 89 89 87 86 86 82 78 78 78 78 77 77 77 77 77 77 77 77 77 77 78 78 78 78 78 78 77 77 77
69 67 59 62 63 64 72 77 81 80 80 88 88 81 83 82 84 85 85 85 88 88 89 88 87 87 86 84 78 77 77 77 77 77 77 77 77 77 77 76 77 77 77 77 77 77 77 77 77
68 61 59 62 62 66 72 72 80 83 82 83 86 86 83 83 82 80 77 79 83 86 87 87 87 85 87 88 84 78 78 77 77 78 77 77 85 84 82 80 77 77 77 77 77 77 77 76 76
66 60 62 66 70 68 72 75 77 77 77 79 83 87 83 82 82 80 77 76 79 81 82 84 83 84 86 87 85 85 85 85 84 84 82 85 84 84 85 81 77 77 77 77 77 77 76 78 84
65 59 66 66 71 72 72 73 77 74 73 79 80 85 81 80 80 81 82 82 81 82 81 80 80 82 84 86 84 85 85 85 84 83 83 83 83 83 84 85 84 84 79 85 82 81 84 84 85
58 64 67 69 70 71 70 75 73 75 77 82 83 84 82 80 79 78 80 80 81 80 82 80 80 80 82 85 84 85 85 84 84 84 82 82 82 82 83 85 85 82 85 83 83 85 83 83 84
58 64 65 69 71 71 73 70 71 71 78 82 81 82 83 81 79 80 82 82 81 79 80 79 79 78 79 81 82 83 84 83 85 85 83 84 83 81 83 82 83 83 83 83 82 83 83 83 83
64 64 66 67 68 70 67 69 70 74 78 78 78 80 83 82 80 80 79 80 79 80 79 80 79 76 78 79 77 81 81 84 84 84 84 82 83 81 82 81 82 82 82 83 83 82 82 83 83
64 58 61 64 67 66 68 62 64 73 76 76 79 81 83 82 82 80 81 80 80 80 80 78 76 76 76 78 77 80 83 84 83 83 82 82 81 80 78 81 81 81 80 79 79 79 79 79 79
58 59 54 64 63 66 66 58 69 74 73 73 76 80 80 82 81 82 82 81 81 82 77 76 76 75 75 77 78 77 80 82 82 83 83 81 80 80 79 80 80 79 75 78 78 78 78 78 78
55 52 52 57 65 66 63 60 70 75 72 72 75 78 80 82 81 80 81 82 81 81 79 77 77 76 75 75 76 76 77 80 81 81 82 80 80 80 80 80 78 75 76 74 75 76 75 76 77
49 49 52 53 61 64 63 60 69 71 72 73 77 78 77 80 82 82 81 81 80 80 80 79 78 77 75 76 75 76 77 78 79 80 81 80 80 79 78 79 77 76 74 73 74 73 71 71 75
57 53 53 58 64 61 60 62 64 71 70 71 73 75 75 76 83 82 80 80 79 78 77 77 75 74 74 74 72 74 76 75 74 76 78 78 78 78 76 76 74 71 70 70 71 70 67 73 73
54 51 52 58 63 60 62 60 66 69 70 73 73 75 76 77 78 79 78 78 76 76 76 76 76 73 74 76 74 75 75 75 76 73 73 74 75 74 72 72 72 69 68 68 69 71 71 73 76
50 50 50 54 60 63 60 58 62 68 70 73 75 77 78 78 78 76 77 77 78 76 75 75 75 73 73 74 72 71 71 72 72 69 69 70 71 72 72 72 69 69 70 73 72 73 72 74 76
45 55 55 56 55 50 62 50 58 66 67 69 73 73 76 78 77 79 77 77 77 78 79 78 75 72 71 73 71 71 72 73 72 71 71 71 74 75 74 72 70 70 72 73 74 75 74 72 74
50 56 54 56 54 53 55 51 60 62 63 68 72 75 76 78 78 77 77 78 79 80 78 77 73 70 70 72 72 71 70 73 74 73 72 71 71 74 75 74 73 73 75 74 73 73 72 75 75
59 54 54 55 54 44 53 52 55 60 65 70 74 75 76 77 77 78 79 79 78 74 72 70 67 68 71 73 72 72 72 73 74 73 72 71 72 73 74 75 75 73 74 74 74 73 72 73 73
54 50 40 38 40 42 55 50 57 64 63 65 67 68 69 74 73 73 73 74 72 67 67 68 68 66 70 71 72 73 74 73 73 73 74 72 69 70 71 72 71 73 71 71 71 70 71 71 71
50 51 44 33 37 44 51 46 56 63 59 62 63 64 68 69 71 72 72 71 69 66 66 67 65 63 67 68 68 68 69 72 71 71 73 70 70 70 69 70 70 70 71 71 70 73 73 69 70
51 47 60 49 51 46 50 53 55 57 58 60 61 64 64 61 61 63 64 62 60 61 64 65 64 63 65 65 64 64 65 65 65 66 68 69 69 69 69 69 68 68 69 69 68 71 68 67 67
56 60 47 52 38 38 47 50 54 53 54 55 56 57 57 57 57 57 56 57 58 61 64 65 65 63 63 63 62 62 62 62 61 62 62 64 64 66 67 67 67 67 67 67 66 67 67 65 67
52 50 54 53 50 44 40 48 55 56 57 55 55 54 53 53 53 53 55 57 59 64 65 64 64 63 62 62 59 58 57 59 60 60 61 62 63 64 65 65 65 65 65 64 64 64 65 64 64
59 52 55 47 43 49 52 45 53 58 56 55 51 51 52 53 53 54 56 58 62 63 63 61 61 62 61 58 54 54 53 57 57 59 59 60 60 61 62 62 63 63 63 62 62 62 64 63 62

GFSSGP_sfc_temp_132.txt.gz
Temp
80 93 97 94 80 82 78 83 90 86 87 93 94 92 92 95 91 81 98 100 102 98 92 88 80 80 80 80 80 80 80 80 80 80 79 79 79 79 79 79 80 80 81 81 81 81 81 81 80
92 91 93 92 76 74 78 89 82 90 92 94 95 94 93 91 96 92 96 97 99 96 91 92 80 80 80 80 79 79 79 80 79 79 79 79 79 79 79 79 80 80 81 81 81 81 81 80 80
89 91 87 82 77 73 79 89 87 92 93 92 91 96 93 91 95 95 99 97 99 94 93 91 80 80 80 80 79 79 79 79 79 79 79 79 79 79 79 79 80 80 81 81 81 81 80 80 80
89 89 88 75 75 82 85 91 88 90 92 93 92 89 97 98 97 98 98 98 96 95 95 83 79 79 80 79 79 79 79 79 79 79 79 79 79 78 78 79 79 80 81 81 81 80 80 80 80
90 88 76 73 76 84 90 91 92 88 90 91 91 89 92 97 96 98 96 98 96 97 96 88 79 79 79 80 79 79 78 78 79 79 79 79 78 78 78 79 79 80 80 80 80 79 79 79 79
81 83 72 71 76 83 89 90 90 88 92 93 89 91 94 97 95 96 99 99 100 98 96 91 80 79 79 79 79 78 78 78 78 78 78 78 78 78 78 78 79 80 80 80 79 79 78 78 79
77 77 72 76 78 81 84 92 87 87 89 90 94 87 96 96 97 98 99 101 101 100 97 93 91 85 79 78 78 78 78 78 78 78 78 78 78 78 78 78 78 79 79 79 78 78 78 78 79
81 80 73 77 76 76 86 88 90 89 88 98 96 86 90 92 94 98 100 100 101 100 100 97 94 93 91 88 78 78 78 78 77 77 77 77 78 78 78 77 78 78 78 78 78 78 78 78 79
83 70 70 75 75 79 86 81 90 94 89 91 95 96 94 94 94 93 92 95 98 99 98 99 96 93 95 95 87 79 78 78 77 79 77 78 90 87 84 83 78 78 78 78 78 78 78 78 78
74 70 73 82 85 80 85 84 86 84 85 87 90 96 93 94 93 92 90 92 95 95 98 100 94 95 96 96 90 90 89 89 88 88 85 90 91 90 91 86 78 78 78 78 78 77 78 79 94
73 70 80 81 84 83 83 83 86 84 82 87 87 92 93 92 92 93 93 95 96 96 96 98 92 92 95 96 93 93 92 91 90 89 87 90 91 90 91 92 88 87 80 89 85 85 89 92 95
68 76 78 82 82 79 79 84 82 83 85 92 92 93 92 91 92 92 95 95 94 94 94 94 92 90 90 96 93 94 94 92 92 91 88 89 89 89 89 92 92 89 92 90 91 92 91 90 91
70 74 78 79 80 80 82 79 80 82 87 91 92 91 90 92 92 92 94 96 94 91 91 90 89 88 88 90 92 93 93 92 93 92 90 91 90 88 90 90 92 92 93 92 90 91 91 90 91
76 74 75 77 77 78 76 78 79 81 86 85 86 87 91 92 93 91 90 92 90 90 89 89 87 86 86 88 89 90 90 91 92 93 92 89 90 89 90 89 89 90 90 90 91 90 90 90 92
73 67 71 74 76 73 77 70 72 82 84 82 85 87 89 92 94 90 90 90 91 91 89 87 86 84 81 85 85 88 90 92 92 93 90 89 88 88 87 89 88 88 85 86 87 88 88 89 89
67 68 62 73 74 75 73 65 77 84 81 80 83 86 88 91 93 92 91 91 91 91 89 88 89 84 80 81 82 87 90 91 93 92 92 87 87 87 85 89 88 89 87 88 87 87 87 85 86
65 60 61 68 77 73 71 67 78 80 80 78 81 85 88 90 92 92 92 91 91 90 89 87 87 85 80 80 83 80 85 88 91 90 87 82 85 86 86 89 89 85 87 86 85 85 83 82 83
58 60 65 65 72 71 70 68 77 80 79 80 82 85 87 89 91 92 92 92 91 90 89 87 86 82 79 78 78 79 83 85 85 82 84 85 85 86 85 86 86 84 85 84 83 79 78 72 73
66 65 63 68 73 67 67 71 74 79 78 79 81 84 86 88 93 95 93 91 90 88 87 86 82 79 76 74 75 78 80 80 82 87 87 86 87 85 83 81 84 82 83 80 71 71 70 76 74
61 60 62 67 71 68 68 67 74 78 77 80 80 82 84 87 90 92 91 89 87 86 85 85 83 76 75 77 79 82 83 83 87 87 84 85 85 84 83 83 82 76 73 71 70 69 70 74 78
58 58 60 61 66 69 66 64 69 75 79 80 82 84 86 86 87 88 88 88 88 86 84 84 84 76 76 78 77 79 82 84 83 77 76 78 80 80 78 76 76 73 73 76 75 75 74 77 82
53 63 64 61 61 56 66 58 67 72 74 76 79 82 85 87 89 90 89 89 88 88 88 86 84 76 76 76 77 79 82 82 84 82 82 78 77 78 80 77 75 75 77 73 77 79 77 79 78
56 65 62 62 60 62 61 58 68 73 70 74 77 81 84 87 89 90 91 91 92 92 89 86 82 74 73 74 78 81 81 85 85 85 80 78 76 79 80 79 75 76 78 78 78 79 78 81 80
64 60 61 61 61 51 60 60 65 69 71 76 79 82 84 87 90 91 92 92 91 92 89 84 72 71 71 74 77 78 79 80 83 82 82 80 77 79 78 80 79 79 79 79 80 76 76 76 79
56 50 37 39 42 48 63 60 65 74 76 79 80 82 85 88 89 89 89 90 88 85 76 75 72 70 72 77 74 75 77 79 79 79 80 81 78 78 76 77 77 77 76 78 79 76 77 76 76
54 52 48 38 42 50 61 54 64 74 74 74 76 78 81 84 87 87 87 87 83 73 72 71 71 69 71 70 70 73 78 78 76 72 78 71 72 70 73 76 77 77 78 78 77 78 78 76 76
53 49 64 56 58 55 57 62 66 72 70 71 74 77 78 81 83 83 83 81 70 69 67 68 69 70 70 71 72 72 72 72 72 72 75 75 74 74 73 74 75 76 76 76 74 77 73 73 73
57 63 48 56 43 43 54 57 61 63 66 68 69 60 59 60 61 62 63 64 65 67 70 72 74 73 73 74 74 74 72 72 71 71 69 68 69 72 72 72 73 74 74 73 72 74 75 71 73
55 51 56 59 57 49 48 56 68 68 69 66 58 55 55 55 56 58 60 63 66 70 74 73 74 73 72 73 72 71 69 68 67 67 67 67 68 69 70 71 71 71 71 71 69 69 71 71 70
62 58 58 51 50 59 59 51 68 69 66 56 52 53 53 55 56 58 60 64 69 71 74 73 73 73 72 71 69 68 67 66 62 62 63 64 67 68 68 69 69 70 70 70 68 68 69 69 68

GFSSGP_sfc_temp_135.txt.gz
Temp
81 93 101 97 81 84 79 86 97 91 91 99 99 97 97 100 91 78 106 107 107 100 94 88 80 80 81 81 80 80 79 79 79 79 79 79 79 79 79 79 80 81 81 81 81 81 81 81 81
96 98 97 91 77 74 80 92 92 95 99 99 99 99 98 95 102 99 100 106 106 99 93 92 80 80 80 80 80 79 79 79 79 79 79 79 79 79 79 79 80 81 81 81 81 81 81 81 80
91 98 88 83 79 74 80 94 95 98 100 97 95 100 98 95 100 102 106 106 104 97 94 91 80 80 80 80 79 79 79 79 79 79 79 79 79 79 79 80 80 81 81 81 81 81 81 80 80
93 92 90 78 76 83 86 94 98 97 99 99 100 93 101 103 101 104 103 106 102 98 97 82 79 79 80 80 79 79 79 79 79 79 79 79 79 79 79 79 80 81 81 81 81 80 80 80 80
94 91 78 76 77 86 94 97 99 94 95 97 98 93 96 102 104 103 101 103 100 100 99 89 79 79 79 80 79 79 79 79 79 79 79 79 78 78 79 79 80 80 81 81 80 80 79 79 79
84 87 75 73 79 87 92 98 98 96 97 97 95 94 97 104 103 103 104 104 103 101 98 91 81 79 79 79 79 78 78 78 78 78 79 79 78 78 79 79 79 80 80 80 80 79 79 79 79
81 81 75 78 80 85 90 98 95 93 94 95 101 92 100 102 104 105 104 105 104 104 99 93 90 84 79 78 78 78 78 78 78 78 78 78 78 78 78 78 79 79 79 79 79 79 79 79 79
85 83 77 80 79 82 94 97 98 95 92 103 103 91 92 99 103 106 106 106 106 105 101 97 93 92 90 88 78 78 78 78 77 77 77 77 78 78 78 77 78 79 79 79 78 78 79 79 79
89 75 72 78 80 84 95 92 97 100 95 98 101 100 101 101 103 101 100 102 104 103 101 99 97 93 94 95 86 79 78 78 77 79 77 77 88 86 84 83 78 78 78 78 78 78 78 78 78
80 73 75 86 89 88 93 93 91 91 90 91 94 101 101 100 100 98 98 98 100 101 102 102 95 95 96 97 89 89 89 88 87 87 85 88 90 90 92 86 78 78 78 78 78 78 78 78 90
79 72 84 86 90 92 91 90 93 89 85 91 91 96 100 99 98 99 100 101 102 102 102 103 95 94 97 98 92 93 92 90 89 88 87 88 92 91 92 92 88 86 80 87 83 84 85 88 91
74 80 82 85 91 88 86 91 88 89 90 97 97 99 100 97 97 98 100 100 101 101 101 101 97 94 94 99 95 95 94 93 92 91 88 89 91 90 91 93 93 88 91 88 91 92 90 90 92
76 79 83 86 86 88 88 84 85 88 93 97 97 97 96 96 97 100 101 103 101 97 98 97 95 93 93 95 95 95 95 94 94 94 91 91 91 90 91 92 94 94 94 94 91 93 92 91 91
81 81 82 84 85 85 83 83 85 87 93 92 93 93 94 95 97 98 98 99 98 97 95 95 93 90 90 92 92 93 94 95 95 95 94 90 92 91 92 90 92 92 94 95 94 92 91 91 91
80 75 79 80 81 80 84 76 78 88 90 88 88 90 93 95 98 97 98 96 99 97 95 92 90 89 88 89 91 93 95 96 95 95 93 91 90 90 89 92 91 92 92 89 88 88 89 88 91
72 73 67 78 79 80 80 68 82 88 87 84 86 89 90 93 97 99 99 97 98 97 93 92 92 88 87 87 90 92 95 94 94 93 95 92 89 89 87 90 92 92 90 90 88 88 88 88 89
69 62 65 70 82 79 77 71 81 88 86 83 85 88 90 92 95 97 99 97 96 95 91 88 90 89 83 86 86 88 90 92 88 86 85 86 85 84 87 90 91 89 90 89 88 88 86 82 83
60 62 67 68 77 78 74 73 81 86 84 84 85 86 88 90 93 97 97 97 91 88 86 89 89 89 80 81 82 83 88 89 93 88 89 86 88 86 82 88 89 89 85 87 86 82 81 78 76
69 69 67 72 80 76 73 74 77 83 83 83 85 85 87 89 95 97 96 96 94 87 85 87 83 86 81 79 79 79 83 85 87 87 87 87 87 86 85 85 85 85 83 81 81 79 74 73 73
66 65 67 74 78 75 73 70 77 81 83 84 83 85 87 90 93 95 94 93 92 91 90 86 84 82 80 80 83 85 84 85 86 86 84 87 89 88 86 84 84 81 80 79 72 74 70 76 74
63 63 65 67 72 75 72 67 73 80 84 85 86 88 89 89 90 93 92 91 91 89 88 89 81 80 76 77 81 80 83 83 82 81 83 86 86 87 86 84 80 79 77 72 70 73 76 72 75
57 68 67 67 66 59 71 56 68 75 77 81 83 85 87 89 91 93 92 90 90 90 90 89 77 79 77 77 77 79 82 81 84 84 83 84 84 85 85 80 80 79 78 73 74 79 74 71 73
60 69 66 66 65 64 65 59 68 76 73 77 81 84 87 89 91 92 93 92 92 92 90 88 76 79 77 76 78 81 85 88 88 89 80 81 81 82 82 79 79 77 79 77 76 76 76 74 72
68 65 65 65 64 53 63 62 65 73 75 79 83 84 86 89 91 93 95 94 93 94 92 88 79 75 75 76 78 81 83 86 86 85 82 81 79 79 79 80 78 78 77 77 77 77 77 76 75
64 58 44 43 47 46 65 63 66 78 82 83 83 84 87 89 90 92 93 94 94 94 90 81 77 73 75 77 76 80 80 82 81 82 84 79 77 74 76 76 76 77 76 78 79 77 77 76 77
59 58 49 38 44 50 64 57 67 80 86 86 88 86 88 88 91 92 93 94 95 87 79 78 76 73 76 76 78 79 81 84 81 80 80 78 79 77 75 74 75 76 78 78 78 78 79 78 77
59 51 64 56 59 54 60 68 75 79 76 77 79 85 85 87 90 92 93 93 81 78 76 75 73 72 73 74 74 76 79 79 78 77 78 79 77 77 75 75 74 75 76 76 74 76 76 74 74
61 67 49 56 45 44 58 61 63 71 72 75 77 76 76 85 89 88 84 77 74 72 72 71 71 71 72 75 77 77 76 76 75 75 73 73 74 74 74 74 74 74 74 74 73 73 75 74 74
58 55 58 59 57 50 50 58 74 72 75 74 69 61 59 61 65 67 69 69 69 71 71 70 73 74 75 76 76 74 74 74 74 72 72 71 71 72 72 73 73 73 73 73 71 70 71 72 72
63 54 59 49 50 55 61 53 73 76 75 63 54 54 57 61 65 67 66 67 69 70 73 75 75 76 76 75 73 72 71 71 70 68 69 69 69 70 70 71 72 72 73 72 70 69 70 69 68